GFSSGP_850_thetae_003.txt.gz
Theta_e
326 328 330 336 337 327 331 329 321 322 322 319 317 318 320 319 324 319 319 320 321 320 320 321 322 321 320 319 317 317 317 318 318 320 318 314 313 312 307 310 314 324 326 327 330 327 328 321 326
325 327 333 333 335 332 331 322 324 323 320 318 317 318 318 319 318 319 320 320 320 320 318 316 318 316 317 317 318 319 320 320 320 316 315 317 317 314 311 309 314 322 325 325 326 328 328 327 321
327 331 335 335 333 331 331 323 322 321 318 319 319 318 319 320 319 319 319 320 320 317 315 315 315 315 316 317 318 320 320 321 320 319 319 323 325 323 314 309 314 320 328 325 328 328 328 328 319
328 332 329 334 334 332 329 329 319 320 317 317 317 320 319 319 320 320 320 318 317 316 315 315 315 316 317 319 319 318 318 319 319 323 323 324 325 324 321 313 314 315 322 328 328 330 327 328 322
330 330 333 333 333 328 321 319 318 321 319 317 318 321 321 320 320 319 317 317 316 316 315 315 315 316 318 316 316 317 319 320 322 322 323 323 325 325 324 320 317 315 317 322 325 329 330 325 327
330 329 334 334 333 329 322 318 318 319 319 318 319 320 321 320 318 317 317 316 316 316 315 315 315 315 316 317 316 317 319 320 319 319 320 322 323 324 324 321 319 315 313 315 324 327 330 327 325
330 331 330 331 332 328 324 317 318 320 318 318 319 321 319 319 318 317 316 316 315 315 315 315 316 314 313 317 319 320 319 319 320 321 321 320 321 322 323 319 321 322 323 314 314 327 329 329 325
328 329 332 329 329 330 321 317 317 318 320 317 319 321 321 318 318 317 316 315 315 314 313 313 313 313 319 320 320 320 320 320 321 320 320 321 322 324 323 320 321 321 321 316 311 324 327 329 326
328 329 328 328 328 328 318 319 317 317 318 318 319 318 318 318 318 316 315 315 314 312 313 314 313 317 319 320 320 319 318 319 320 320 321 321 320 321 321 323 323 320 320 320 315 323 325 328 326
326 328 328 328 326 325 320 319 319 319 319 318 318 318 317 317 316 316 315 314 312 313 312 313 318 319 320 321 320 319 318 319 319 319 319 319 319 319 319 320 320 322 321 322 318 322 324 327 325
325 325 324 324 324 322 321 317 318 320 320 320 319 317 317 317 316 315 315 313 313 313 309 318 320 320 320 321 321 320 319 319 319 320 319 319 317 318 317 318 319 319 320 322 321 322 322 326 324
324 324 324 324 321 318 318 317 318 319 321 319 319 318 317 317 316 315 314 314 314 311 310 319 321 321 320 320 320 321 320 319 319 319 318 319 319 319 319 318 318 318 321 320 321 320 322 325 322
324 324 321 320 318 317 317 318 319 319 318 319 319 317 317 316 316 315 315 314 315 310 319 321 322 321 321 320 321 321 320 319 319 319 319 321 320 318 318 318 319 319 318 319 320 321 323 324 321
323 322 320 317 317 316 318 318 318 319 318 318 319 318 317 316 315 315 314 316 314 315 323 322 323 321 320 320 320 320 319 319 318 318 319 320 320 318 317 317 316 316 318 319 321 322 322 322 322
321 322 320 318 318 319 318 319 320 319 318 319 318 317 316 315 315 315 317 317 311 318 322 322 323 322 321 321 321 321 322 320 318 317 318 320 321 321 321 319 319 320 321 321 321 322 322 321 322
321 321 323 320 317 317 318 322 323 318 318 319 317 316 315 315 315 315 317 316 310 319 320 321 322 321 322 323 322 321 322 322 321 319 317 319 320 321 321 321 320 320 320 321 321 320 323 324 322
321 325 324 323 318 318 319 321 321 317 318 319 317 315 315 315 315 316 317 316 309 316 318 322 322 322 322 322 323 323 324 323 322 321 321 321 321 321 321 321 320 320 319 320 320 321 321 320 321
324 323 322 323 321 318 319 319 321 319 318 319 317 316 316 315 315 316 317 315 311 314 318 319 322 323 323 320 322 323 323 322 321 320 321 321 321 321 322 322 320 319 320 320 320 321 322 321 321
323 323 324 322 322 321 322 322 322 321 318 318 317 316 317 316 315 317 317 315 312 312 319 318 321 323 323 318 322 324 324 324 322 320 320 321 322 323 323 323 321 320 320 321 321 322 322 324 324
322 323 323 322 321 321 323 322 322 321 320 319 319 317 317 317 316 316 318 316 313 311 319 320 319 321 323 321 324 325 325 324 321 322 323 323 323 322 323 323 322 321 320 323 323 323 325 326 326
322 323 323 324 321 320 320 322 322 322 318 318 318 318 317 317 318 316 318 316 313 312 317 319 318 319 324 324 324 325 324 323 322 326 326 326 324 325 324 323 323 321 323 325 324 325 325 325 330
325 322 323 323 322 324 321 324 323 323 323 321 319 317 317 317 317 316 318 316 312 315 315 319 317 321 324 325 325 326 326 324 325 326 326 326 326 325 325 324 325 326 325 325 325 324 325 329 330
324 322 322 322 324 321 322 322 322 321 323 324 324 319 317 317 316 316 317 316 312 316 316 320 318 319 322 324 322 322 326 327 325 323 325 325 325 326 326 326 326 326 325 326 325 326 327 331 329
323 321 320 320 321 323 323 322 321 323 324 324 324 321 318 317 317 317 317 317 315 317 317 319 317 317 318 323 322 321 323 326 327 325 324 323 323 325 326 326 326 326 324 326 326 327 328 328 327
322 324 325 326 326 324 320 321 323 324 324 323 323 322 318 317 317 318 317 317 317 317 319 321 318 317 315 317 320 321 324 325 327 326 326 325 323 322 324 326 327 327 324 325 324 325 327 329 329
323 325 324 326 323 324 320 323 322 325 323 324 323 323 318 317 318 319 317 317 315 318 319 321 322 316 317 316 315 320 322 322 325 327 327 326 324 324 324 327 327 327 327 326 327 327 329 330 329
321 322 323 324 321 322 322 323 324 326 327 326 323 319 318 317 318 318 317 317 315 318 318 321 322 319 318 317 316 317 320 321 320 325 327 326 325 326 326 327 327 327 325 326 327 328 329 329 329
323 321 323 321 324 325 323 324 325 325 325 328 325 321 318 318 318 319 317 316 315 318 319 321 322 321 316 316 316 315 317 318 319 323 323 321 322 326 327 326 326 327 325 327 327 327 328 328 329
321 322 322 322 322 325 326 325 326 328 330 332 328 322 319 318 318 319 318 316 316 319 320 321 322 321 311 314 314 315 315 317 318 319 320 320 319 322 326 327 327 327 327 328 328 328 328 328 329
323 323 324 324 325 323 324 325 325 328 331 331 329 322 320 319 319 319 318 316 317 319 320 320 321 320 310 309 311 313 315 314 317 317 317 317 321 322 325 326 326 327 327 326 327 329 329 328 328

GFSSGP_850_thetae_009.txt.gz
Theta_e
328 329 337 339 341 337 337 337 334 332 332 329 328 328 326 324 324 324 325 326 326 326 329 329 323 317 315 317 319 318 319 320 321 321 323 323 321 316 318 318 316 312 309 318 328 330 324 319 318
331 336 338 338 339 339 337 335 333 332 330 328 327 326 325 325 322 321 323 326 326 326 329 329 329 317 314 314 317 316 317 318 319 321 323 324 324 319 320 324 323 319 313 323 326 330 330 321 322
336 336 336 340 340 338 336 333 332 331 328 328 327 325 324 326 323 321 325 327 326 326 326 328 324 317 315 315 315 316 317 318 319 319 321 324 322 323 325 325 324 324 322 326 326 327 329 326 323
334 335 335 335 336 336 334 332 331 330 328 327 326 326 325 325 324 323 325 324 324 323 322 323 322 320 315 316 316 317 318 319 319 319 318 318 319 320 324 325 325 326 325 325 324 325 329 330 324
333 333 337 337 337 335 333 332 330 329 328 327 325 326 326 326 325 324 324 323 323 322 321 323 323 320 316 315 317 319 316 316 316 316 317 317 319 322 323 323 323 326 327 324 323 326 327 330 329
332 332 335 336 334 335 334 330 328 328 327 327 325 325 325 326 325 324 323 323 323 322 323 324 324 321 319 316 316 316 315 314 314 318 320 320 320 320 320 320 322 325 327 324 321 323 326 328 330
332 333 335 335 334 333 333 330 328 327 327 327 325 325 325 325 324 324 323 323 322 322 322 322 322 323 320 321 321 318 317 319 320 320 320 320 320 320 321 321 325 325 326 324 321 315 322 326 330
330 333 334 334 333 334 332 331 329 327 328 325 324 325 324 326 325 324 322 321 321 321 322 322 321 320 322 325 326 325 322 321 321 320 319 318 319 319 321 321 322 325 325 324 317 315 316 325 329
330 332 333 332 331 332 330 331 330 327 327 325 324 324 324 325 324 323 322 322 322 322 322 322 321 323 325 326 325 325 326 325 323 323 322 320 324 326 326 327 326 325 325 321 324 321 315 319 326
330 332 330 329 330 330 330 330 329 329 328 326 325 324 323 323 323 322 323 323 322 323 323 321 321 326 328 327 325 326 326 326 324 321 319 321 324 324 326 326 326 325 325 321 322 323 317 313 329
330 332 330 328 327 328 329 328 328 328 328 327 326 324 324 323 323 323 322 322 323 324 323 320 324 328 328 327 326 326 326 325 325 323 324 322 320 323 325 324 325 324 324 325 324 324 322 324 329
331 329 328 326 326 328 329 328 328 327 327 325 324 323 323 323 323 323 323 323 324 324 322 325 328 329 330 328 327 326 326 327 325 325 325 323 324 323 323 323 325 324 326 327 326 327 323 324 329
330 329 327 326 326 328 328 327 328 326 325 324 323 323 323 323 324 324 323 324 324 324 322 327 329 330 330 327 327 328 326 325 326 325 325 323 322 323 321 324 324 324 324 325 325 328 325 330 326
328 328 327 327 327 328 327 328 326 326 325 323 324 324 323 323 324 324 324 324 325 322 326 328 329 330 329 327 327 326 326 326 326 326 324 324 324 323 321 321 322 324 323 325 326 328 328 326 329
328 329 328 328 327 328 327 327 328 325 325 325 324 324 323 323 324 324 324 326 325 322 327 329 328 328 327 327 328 326 326 327 326 326 325 326 324 322 322 322 323 322 324 325 327 326 328 327 329
329 329 330 329 329 327 326 328 329 326 326 326 325 325 324 324 324 323 324 326 324 324 326 328 328 327 328 329 329 327 326 324 324 324 318 321 323 323 324 322 324 324 325 326 327 328 327 328 329
329 330 330 329 329 328 327 328 328 327 326 326 325 325 325 324 324 324 324 326 324 324 326 327 328 328 329 329 330 329 326 326 325 322 321 320 322 324 324 323 321 321 323 326 326 326 327 328 329
330 331 330 329 330 330 328 328 328 328 327 326 325 326 326 325 325 324 325 326 324 324 327 328 327 329 326 329 329 330 326 324 324 323 320 321 322 324 325 323 323 322 323 326 327 327 327 328 328
329 330 329 329 329 329 329 329 329 328 327 327 326 325 326 326 324 325 326 326 324 323 327 329 327 328 327 329 330 329 330 329 327 326 324 324 324 324 326 324 325 323 325 325 327 326 326 327 329
329 330 329 329 329 330 330 329 329 327 326 326 326 326 327 327 325 325 327 326 324 324 325 328 327 328 329 331 331 329 328 328 327 326 326 324 325 325 325 325 326 327 324 325 328 328 328 328 329
329 329 329 329 329 330 329 329 328 328 327 326 325 326 327 327 326 325 327 327 325 323 326 327 328 330 331 331 331 331 328 329 327 327 328 326 324 324 325 326 326 326 327 325 325 326 329 328 326
330 328 328 328 329 330 328 329 328 328 327 326 326 326 326 327 326 326 327 327 325 323 326 326 329 331 332 326 331 331 329 329 329 325 327 328 326 325 326 327 327 327 327 327 327 327 329 329 329
329 328 327 328 328 329 328 329 328 328 326 326 326 326 327 327 327 327 327 327 324 322 326 327 329 331 332 331 331 331 331 328 327 326 325 328 327 327 326 326 326 327 327 328 328 328 329 328 329
328 327 327 327 328 329 328 328 328 327 326 325 326 326 329 328 327 326 327 326 323 322 325 327 328 328 331 331 330 331 330 329 328 327 324 326 327 327 327 327 326 326 326 327 327 327 329 329 328
326 327 328 330 331 330 328 328 328 326 325 325 326 327 329 328 327 327 327 325 323 323 324 327 327 326 328 330 330 330 331 329 326 327 324 326 327 328 327 327 327 327 326 328 327 327 328 329 330
326 326 328 330 331 330 329 328 328 326 325 325 326 329 330 328 327 327 326 325 323 323 324 326 326 326 327 328 329 329 330 330 329 325 325 326 327 328 328 327 327 328 328 327 328 327 330 328 326
327 327 327 328 328 329 329 329 327 325 325 327 329 330 331 328 326 326 326 325 322 323 324 326 326 325 326 326 328 328 329 330 328 326 325 323 328 328 327 327 327 328 329 327 328 328 330 328 326
327 327 328 328 330 332 330 329 327 327 327 331 332 332 330 327 326 326 326 326 322 322 325 326 326 324 324 325 326 326 327 330 330 328 328 327 324 328 328 328 328 326 328 328 326 329 326 323 325
325 326 328 329 328 330 331 329 329 327 328 330 333 332 328 327 326 326 326 326 321 322 324 326 326 322 323 323 324 324 325 328 328 329 327 326 326 325 325 326 328 329 330 329 329 329 329 328 324
327 326 328 329 330 329 330 330 328 327 327 330 332 331 328 327 326 326 326 325 321 322 324 325 326 322 321 322 323 323 324 326 328 329 328 327 328 325 326 327 328 328 330 329 330 330 329 327 328

GFSSGP_850_thetae_012.txt.gz
Theta_e
328 329 336 335 340 341 339 337 337 333 332 330 329 328 327 325 324 326 326 327 325 329 331 330 327 326 318 314 316 317 319 319 319 321 321 321 322 321 317 317 320 321 318 313 310 325 329 324 317
328 330 338 338 343 345 340 337 335 332 330 329 328 327 326 326 323 323 326 327 325 327 330 332 331 328 318 314 313 315 318 317 318 320 321 320 322 322 322 321 324 325 324 322 313 320 330 331 319
334 337 336 338 341 341 339 336 332 331 330 328 328 327 326 326 324 323 327 324 326 327 326 327 326 323 321 316 314 315 316 317 319 320 321 321 322 323 322 321 321 324 325 326 327 322 324 330 328
337 335 335 338 337 335 337 334 332 331 329 328 328 327 326 325 324 324 325 324 324 323 324 324 323 322 322 319 315 316 316 317 317 318 318 319 320 321 320 321 321 322 325 329 327 325 325 328 329
335 333 336 338 337 336 336 335 332 330 328 328 327 326 327 325 324 324 324 324 323 323 323 323 322 323 322 318 315 315 316 320 318 316 316 315 314 316 318 322 322 321 324 326 327 324 323 325 329
333 333 335 336 334 335 335 333 330 329 328 328 327 326 328 327 325 324 324 324 324 323 322 324 325 323 321 320 319 318 316 315 314 314 316 319 320 320 320 320 320 320 324 325 327 321 324 324 328
332 334 335 334 334 333 334 333 332 330 327 327 326 326 327 327 325 324 324 324 324 323 323 322 324 323 322 322 324 325 325 325 322 320 320 320 320 319 318 318 320 320 325 326 326 323 320 325 325
331 332 333 333 334 333 333 333 332 331 329 327 326 326 326 327 326 324 324 323 323 323 323 323 323 323 322 324 327 327 326 325 324 322 321 321 319 319 319 319 321 320 324 326 326 324 316 317 321
331 332 333 333 332 331 331 331 331 330 329 328 327 325 326 327 325 324 324 323 323 323 324 324 323 323 323 326 328 326 326 327 326 326 324 321 320 325 325 326 326 325 324 325 326 320 315 313 318
330 332 332 332 331 329 329 329 330 329 330 330 327 325 324 325 324 323 324 324 324 324 324 324 322 322 322 329 327 326 326 326 326 323 320 320 319 321 323 325 326 326 325 324 325 322 322 318 312
331 332 331 331 331 328 328 328 328 329 329 328 327 326 325 324 323 323 324 323 324 324 325 323 323 327 326 329 329 326 326 326 326 322 324 322 321 322 324 323 325 324 325 325 323 320 323 322 314
332 331 331 331 330 328 327 327 329 328 328 327 326 325 325 325 324 324 324 323 324 325 325 324 328 329 331 330 328 327 327 327 322 326 324 324 321 324 324 324 323 324 325 325 324 322 323 323 323
332 332 330 330 329 328 327 328 329 328 327 326 325 324 323 323 324 324 324 324 325 326 324 328 328 331 331 329 327 327 325 325 324 326 326 325 323 323 323 322 322 325 325 326 325 325 326 323 326
330 331 329 329 329 328 328 328 328 328 327 325 324 324 324 324 324 324 325 325 326 326 324 329 330 331 330 327 327 327 324 325 325 325 326 325 322 323 322 322 321 322 324 325 325 325 328 326 326
329 330 329 329 329 328 328 328 329 327 327 327 326 325 325 324 324 324 326 325 327 325 326 329 329 328 329 329 329 328 327 326 325 325 325 326 324 324 322 322 322 322 323 324 324 325 326 328 328
328 328 328 329 329 329 329 329 329 327 328 328 327 326 325 325 325 325 326 326 328 325 327 328 329 328 329 329 329 329 328 327 326 324 323 321 319 322 322 323 322 323 322 323 325 325 327 326 323
328 329 328 329 330 329 329 329 328 328 328 328 327 327 326 326 326 325 325 326 328 325 327 329 329 330 330 327 329 330 328 327 325 326 324 321 321 320 322 324 321 324 323 324 325 326 328 324 327
328 328 328 330 330 330 330 330 329 328 328 329 329 328 327 326 326 326 325 327 328 325 326 329 328 328 326 328 330 331 328 328 327 326 324 321 321 323 322 324 323 321 325 324 326 326 327 327 327
327 328 329 331 331 330 331 332 330 330 329 330 330 328 327 327 326 326 326 327 327 325 326 330 329 329 326 331 329 330 327 329 327 327 326 324 323 323 324 324 324 321 323 326 327 326 326 327 328
326 328 329 329 329 329 329 330 330 330 330 329 328 328 327 328 326 327 326 328 326 326 326 329 329 330 327 331 329 327 329 328 327 329 328 325 327 325 325 325 324 322 321 323 325 326 325 328 328
327 329 330 329 329 329 329 331 331 330 329 328 327 326 327 329 327 327 327 328 327 326 324 329 329 331 330 330 331 330 329 328 328 326 329 327 325 325 324 324 325 324 323 322 326 325 325 327 328
329 328 328 329 329 329 329 332 332 330 330 329 326 327 326 329 328 327 327 329 327 326 325 328 330 333 333 326 331 330 329 327 329 327 326 327 326 326 326 325 327 324 324 322 324 325 326 327 329
328 328 329 329 329 330 328 329 329 330 331 329 326 326 327 329 328 328 328 329 328 325 327 328 331 333 333 331 328 331 328 328 328 326 326 328 325 327 326 326 325 324 327 324 323 324 324 325 325
327 328 329 328 328 331 329 330 330 330 328 326 326 327 328 329 329 328 329 329 327 324 327 329 330 331 333 333 331 330 329 326 327 325 327 327 328 326 327 326 324 325 327 327 324 324 326 329 326
328 331 330 331 329 330 328 329 331 331 327 326 326 328 330 329 329 329 328 328 326 324 326 329 329 329 330 332 331 331 329 325 325 326 326 328 328 328 327 326 324 324 325 326 325 325 326 327 326
329 331 330 330 331 329 331 330 329 328 327 326 325 328 330 329 329 328 328 328 325 324 325 328 328 328 329 329 331 330 330 327 324 324 326 328 328 328 327 327 327 325 325 326 326 326 325 325 330
329 330 328 329 328 329 330 332 330 328 326 326 327 331 332 330 329 329 328 326 325 325 324 327 327 327 327 328 330 329 330 328 329 328 324 328 328 327 327 327 327 327 327 326 326 326 328 326 326
330 328 328 328 330 332 329 330 329 329 327 329 333 332 332 330 329 328 328 326 325 324 325 326 327 326 326 327 328 328 331 330 328 327 324 325 328 327 325 326 328 327 327 326 327 329 328 326 326
328 329 328 329 328 331 333 331 334 331 331 335 334 333 332 330 328 328 327 327 323 324 326 326 327 325 325 325 326 327 329 329 329 327 326 323 326 327 327 325 327 326 326 327 327 328 327 326 326
329 329 330 330 333 330 331 330 332 332 330 330 333 333 330 328 328 328 327 327 323 323 326 326 327 323 324 324 325 325 328 329 329 326 327 324 326 326 329 328 327 327 325 326 328 324 324 324 326

GFSSGP_850_thetae_015.txt.gz
Theta_e
329 329 330 332 332 335 338 337 334 331 328 328 328 326 322 322 323 329 329 328 324 328 329 329 329 327 325 318 313 313 315 316 315 316 318 321 318 317 320 318 317 318 323 321 317 309 322 325 320
328 332 333 337 338 342 339 337 336 328 328 328 328 327 323 323 324 326 326 325 325 326 326 327 326 325 323 321 319 313 313 317 319 316 316 317 317 317 318 322 323 322 325 325 323 316 314 330 331
328 333 331 333 336 339 340 336 334 329 328 328 328 327 326 323 325 326 326 324 324 324 324 326 327 325 323 322 320 315 315 320 320 317 316 316 318 318 321 322 318 318 320 326 330 324 318 327 330
333 337 338 333 334 334 335 333 333 330 328 328 327 325 325 325 323 324 324 319 324 325 326 327 325 323 322 322 321 317 318 319 323 318 318 318 318 318 321 321 318 317 319 321 327 327 325 326 328
334 336 331 333 334 335 332 334 334 328 327 327 326 326 324 324 324 324 319 321 323 323 323 323 322 321 320 321 318 316 315 315 318 321 319 317 317 315 314 317 320 320 321 322 325 327 324 323 326
334 332 330 332 332 332 331 333 333 329 329 326 325 326 325 324 323 323 322 322 322 323 323 322 320 319 321 321 320 321 322 324 323 322 319 316 316 319 320 320 319 320 320 320 324 326 326 323 323
331 329 330 330 331 331 332 333 332 331 328 326 326 326 326 325 325 323 323 324 323 323 321 322 322 323 322 322 323 325 326 326 324 322 322 321 320 320 320 319 318 319 323 320 320 326 327 322 322
332 329 330 330 330 330 330 333 333 331 329 327 327 325 326 326 325 323 323 323 322 322 322 323 323 323 323 323 323 324 327 326 326 326 325 323 321 318 317 318 320 319 325 320 325 327 327 321 322
333 329 330 330 330 330 330 326 328 329 329 329 328 325 326 326 325 323 323 323 323 322 323 323 324 323 323 322 321 328 326 326 327 326 325 324 320 318 318 322 325 325 323 320 325 326 326 319 312
331 328 330 329 329 328 329 327 327 328 328 329 327 325 326 326 325 322 323 323 323 323 324 324 324 323 322 319 323 328 327 326 326 325 326 321 322 318 319 319 324 326 324 324 325 325 326 318 311
330 329 328 329 330 330 330 327 327 326 327 328 326 325 325 324 323 323 323 323 324 324 324 324 324 322 321 318 324 327 326 327 327 327 324 323 323 320 322 323 322 323 324 324 324 325 322 320 312
331 329 330 330 330 330 327 329 327 327 328 327 326 325 325 324 323 323 323 324 324 324 325 325 324 323 320 324 322 319 325 327 327 325 323 324 325 322 321 324 323 324 324 323 324 325 321 322 318
330 330 330 331 331 329 329 327 327 326 328 327 325 324 325 325 324 324 323 324 324 324 325 324 323 322 323 320 325 327 326 325 324 324 324 326 325 324 321 321 321 322 323 324 324 324 318 323 321
329 329 329 330 330 328 328 328 327 327 328 326 325 324 324 324 323 324 324 324 324 325 325 324 323 322 326 324 328 328 327 327 326 324 324 326 326 325 322 322 322 321 323 324 325 324 324 323 323
324 325 326 328 328 326 328 327 327 328 328 327 325 325 324 324 324 324 324 324 324 325 325 323 325 327 328 327 329 327 329 329 327 326 324 325 326 324 322 322 323 321 322 324 324 325 325 326 324
322 323 326 326 326 327 326 327 326 328 328 327 327 327 325 325 325 324 324 324 325 325 325 326 324 325 326 327 326 329 329 327 326 325 327 324 324 321 319 321 323 322 322 324 323 324 326 326 325
322 323 324 326 326 326 326 327 327 328 327 327 327 328 327 326 325 324 325 325 326 326 324 325 323 325 328 324 329 330 330 326 327 326 326 325 323 320 320 322 324 323 323 322 323 324 327 327 326
322 323 325 326 327 326 327 329 327 328 327 327 327 328 327 327 325 325 325 325 326 326 323 324 321 325 324 326 329 329 328 327 326 327 325 325 321 321 320 322 324 322 323 322 323 325 326 327 324
322 323 325 327 327 327 329 329 329 328 327 328 329 328 328 329 326 325 325 325 326 326 323 321 328 327 327 327 330 327 327 327 327 326 329 324 324 323 323 323 324 322 324 323 324 325 327 325 326
325 324 324 325 326 329 329 329 328 328 327 328 328 328 328 328 325 325 325 326 326 326 323 325 328 328 327 330 330 330 329 328 328 327 327 327 325 325 322 324 324 322 324 325 326 326 326 325 327
325 326 325 325 326 327 327 326 327 329 328 328 328 328 328 327 326 325 326 326 327 326 325 325 329 328 330 328 329 330 328 327 328 328 326 327 325 324 323 324 324 322 323 324 326 326 326 326 327
324 326 325 325 327 327 328 326 327 326 325 326 327 328 328 326 326 326 326 327 328 326 325 327 328 330 333 328 327 329 329 328 328 328 326 326 325 325 324 323 324 324 323 322 325 326 325 326 328
323 326 325 326 327 326 326 325 325 327 327 326 325 327 328 327 326 326 327 328 328 327 324 328 328 330 331 331 329 329 325 327 327 326 326 327 326 325 325 324 325 325 323 323 325 324 325 325 327
324 325 326 326 327 327 327 326 326 326 327 325 325 328 329 327 327 327 327 328 328 326 324 327 330 331 332 332 329 329 325 325 325 326 327 327 328 326 325 324 324 324 326 323 325 325 325 326 325
325 324 325 326 325 325 326 326 325 326 327 324 326 329 329 328 327 328 328 329 328 325 324 328 330 328 330 331 329 328 325 324 324 327 328 328 327 327 326 325 322 324 326 324 323 323 323 324 324
322 324 325 328 329 326 326 326 326 326 326 326 329 329 329 329 328 328 329 329 326 324 325 327 329 328 329 329 330 329 327 326 327 325 328 327 327 327 326 324 323 322 326 324 323 324 325 327 322
323 325 324 325 327 325 325 329 328 325 324 323 329 330 329 329 328 328 328 328 326 324 324 326 328 327 328 328 328 329 329 327 327 326 327 327 327 326 326 326 325 323 322 325 325 326 326 324 324
322 325 327 324 326 326 327 328 330 326 324 328 330 330 329 329 329 328 328 327 325 324 324 327 327 327 327 327 328 329 330 327 328 325 325 327 327 326 327 327 326 326 326 326 326 325 323 324 329
321 324 325 322 322 324 327 327 326 324 327 329 330 331 330 329 329 328 328 326 325 324 324 326 327 326 326 326 326 327 329 329 327 326 324 326 328 324 327 326 326 326 326 326 326 326 326 326 327
322 324 324 325 327 324 325 328 326 328 330 329 331 331 330 329 329 328 327 326 324 324 325 325 326 324 325 325 325 326 328 328 327 326 325 327 326 327 325 326 326 326 325 325 327 326 326 326 327

GFSSGP_850_thetae_021.txt.gz
Theta_e
324 324 324 330 331 331 336 336 331 333 329 326 325 323 322 322 322 322 330 330 332 335 335 329 326 324 325 324 321 320 318 316 314 315 316 316 316 320 318 316 315 318 320 318 321 321 313 308 307
325 325 331 334 334 338 336 334 334 330 331 326 324 322 322 322 326 330 329 326 328 326 327 328 326 326 325 325 322 321 319 318 316 314 316 317 317 317 315 315 314 315 319 322 322 324 322 315 309
324 325 330 333 333 337 336 334 332 332 332 324 323 323 323 323 325 326 326 327 326 324 321 322 324 326 325 324 322 320 320 318 316 316 321 323 319 320 317 316 314 315 325 327 327 330 328 323 313
324 330 333 333 334 331 333 332 331 330 333 325 324 324 324 323 324 324 324 326 324 320 320 323 326 326 325 322 320 318 318 317 315 315 322 325 323 323 322 322 320 323 320 327 327 327 328 328 324
331 335 332 332 333 330 329 330 329 329 326 324 325 324 324 324 324 324 324 324 319 318 319 322 324 324 322 321 319 319 319 320 317 319 321 321 321 321 321 320 321 321 323 327 327 327 326 327 326
332 329 328 330 329 328 327 330 328 328 329 325 325 323 324 325 324 324 324 320 318 319 321 321 323 322 322 319 321 321 321 321 321 324 325 324 323 322 322 321 321 325 324 325 326 326 325 326 326
329 327 330 328 331 329 327 329 327 327 328 324 326 322 324 324 324 324 323 319 321 322 321 321 322 322 320 321 322 322 322 322 323 325 325 324 324 324 323 321 320 320 324 324 325 325 325 325 325
331 326 329 327 329 329 327 329 329 328 328 327 326 324 325 326 324 324 322 321 321 322 322 322 322 321 322 322 323 322 323 321 326 325 325 325 325 325 321 318 318 317 322 327 326 325 323 324 324
330 327 328 328 328 328 328 327 329 328 327 326 326 326 326 326 324 323 322 322 322 322 322 322 321 322 322 323 323 322 319 323 326 326 326 325 325 326 322 321 317 317 323 324 325 323 325 323 323
328 326 328 327 327 327 328 327 327 326 327 326 326 327 326 326 324 323 323 323 322 322 323 322 322 322 322 323 322 319 321 320 325 326 325 326 326 325 323 320 319 319 319 324 327 324 323 323 323
328 329 328 327 329 330 327 328 328 326 325 327 326 327 326 325 324 324 324 323 321 322 323 322 322 322 323 322 320 318 320 321 323 324 324 326 327 325 323 322 320 323 322 321 324 324 323 323 326
328 328 329 329 329 330 328 329 328 328 328 329 328 327 326 325 325 325 324 324 321 322 323 322 322 323 323 323 318 318 323 325 326 326 325 325 325 323 324 323 321 321 322 322 322 323 324 323 325
327 326 327 328 329 329 329 328 328 329 329 328 327 326 326 325 325 325 325 324 322 323 323 322 322 323 324 320 319 319 323 326 328 328 327 326 325 324 323 325 323 321 320 320 322 322 323 324 325
321 322 324 325 327 328 327 326 325 325 326 327 326 326 326 326 325 325 324 323 322 323 323 322 323 324 323 318 317 319 326 328 327 326 326 326 326 325 324 325 324 321 322 321 320 323 323 324 324
317 316 318 319 321 322 323 322 324 325 325 326 326 325 326 325 325 325 325 323 323 323 323 323 324 324 321 318 316 322 327 327 326 325 326 325 326 326 324 324 324 320 323 321 321 323 323 324 321
317 317 318 320 321 322 322 323 323 325 325 325 326 326 325 325 325 324 325 323 323 323 324 324 325 323 318 317 319 323 326 327 326 326 326 326 325 326 325 324 323 320 322 322 322 323 324 323 320
315 317 317 318 319 320 321 322 322 324 325 324 325 326 324 325 324 324 324 323 323 323 324 325 324 321 316 316 321 324 327 324 326 326 326 326 327 324 325 323 321 320 323 322 322 323 324 323 322
317 317 318 319 320 319 320 320 322 323 324 324 324 326 325 324 324 324 324 323 322 324 325 325 323 317 317 317 322 326 324 326 327 327 327 327 328 325 322 322 320 321 323 323 322 323 324 324 324
318 319 320 320 321 321 320 321 322 322 323 323 324 325 326 325 325 324 322 323 324 325 325 325 321 317 317 322 326 327 326 327 327 328 328 328 327 326 322 321 320 322 323 322 322 323 324 325 325
318 317 319 320 321 320 320 321 321 321 322 324 325 326 324 324 325 326 323 324 324 325 325 323 318 318 321 324 323 323 327 327 327 327 328 327 327 326 325 322 322 323 322 322 322 323 323 325 325
318 317 318 319 320 322 321 323 322 322 322 324 326 326 326 326 326 325 323 324 325 325 325 322 318 319 324 325 324 325 325 325 327 327 328 326 326 325 325 322 323 324 323 322 321 322 323 325 323
316 317 318 319 320 320 321 323 322 321 322 321 323 324 325 325 325 326 324 325 326 325 324 321 320 320 326 326 326 326 325 324 325 326 326 326 326 324 323 323 324 322 323 322 323 324 324 325 324
317 318 320 321 321 322 323 322 322 320 323 321 320 324 324 325 326 326 325 326 326 325 324 320 323 322 325 328 328 326 324 324 325 326 326 327 327 325 323 323 322 322 323 324 324 325 326 325 326
316 318 318 319 319 322 322 322 322 321 322 323 322 323 325 325 326 326 326 326 326 326 323 323 323 322 327 328 328 326 325 326 324 327 327 327 327 325 323 323 322 322 322 323 324 325 324 325 325
314 313 315 318 319 323 321 322 323 321 321 322 322 323 325 325 326 326 326 326 326 325 324 324 322 324 328 328 328 326 326 326 325 325 327 327 327 326 323 323 323 323 322 322 325 324 325 324 324
314 315 318 321 323 323 321 324 324 322 322 323 324 323 325 324 325 325 326 326 327 325 324 323 324 325 326 328 327 326 328 326 325 325 327 327 326 326 324 322 323 325 322 324 324 324 324 325 326
313 315 316 318 321 321 321 322 322 323 323 322 324 324 325 325 325 326 326 327 327 325 324 322 326 327 326 328 325 328 327 327 325 324 326 326 326 326 324 322 322 326 323 323 324 325 324 324 325
312 313 315 315 322 324 323 323 324 324 324 325 324 323 325 326 326 326 326 327 327 325 323 323 327 326 327 326 326 328 328 327 325 325 327 326 326 326 323 322 321 325 324 323 323 323 324 324 324
313 314 314 314 317 321 323 323 319 321 323 325 323 324 325 326 326 326 327 328 327 324 323 324 328 326 326 325 326 327 327 327 325 326 326 325 326 326 326 323 320 323 325 324 323 324 325 325 323
315 314 314 319 319 319 320 322 321 319 320 323 323 325 326 326 327 327 327 328 326 324 323 324 326 326 325 324 325 327 327 327 326 326 326 325 326 326 326 324 323 322 323 324 325 325 325 324 323

GFSSGP_850_thetae_024.txt.gz
Theta_e
320 321 324 329 331 329 335 335 330 333 331 326 324 324 319 323 328 324 328 328 327 330 331 333 327 321 323 323 321 320 320 318 317 315 313 312 313 313 314 316 314 313 312 316 317 318 320 314 309
324 325 332 334 333 337 334 333 335 331 332 330 323 323 321 322 324 327 328 327 328 329 330 329 326 325 324 323 323 321 319 318 318 317 315 314 316 316 317 314 313 315 321 322 322 321 322 322 316
324 327 330 332 332 336 334 332 332 331 331 330 323 322 323 323 324 325 326 325 325 325 326 325 324 323 323 324 323 321 318 318 317 316 315 317 323 321 318 317 315 315 326 328 329 331 330 324 323
322 326 333 335 335 332 332 331 330 327 331 328 324 323 324 324 324 324 325 325 323 321 322 321 323 324 324 324 323 319 318 318 318 317 316 323 325 324 323 324 321 320 319 328 328 327 327 327 328
325 335 334 334 334 331 328 330 330 326 327 324 323 324 324 324 325 324 325 324 322 320 319 320 323 324 325 324 322 320 319 320 320 319 318 324 323 323 323 323 323 320 320 324 327 328 326 326 325
331 328 330 331 330 328 327 330 328 327 327 325 324 323 325 325 325 325 324 324 320 320 318 319 322 324 325 323 321 321 321 321 321 319 322 324 323 322 322 321 323 323 323 323 325 325 325 325 325
328 326 329 328 329 328 327 328 326 326 326 327 325 323 325 326 325 324 324 323 320 320 319 320 321 323 325 322 320 321 322 322 322 319 324 324 324 323 324 323 322 320 323 324 324 325 325 324 325
330 325 329 327 328 327 327 328 327 327 326 326 325 323 324 327 326 324 324 323 320 321 320 321 321 323 323 321 321 322 322 322 320 321 325 325 325 325 324 323 319 317 317 323 325 325 323 324 324
329 326 326 327 327 326 327 327 327 329 329 327 328 327 328 326 326 324 324 323 320 321 321 322 322 322 322 321 322 322 322 321 318 323 325 325 326 325 325 323 321 318 316 317 324 324 324 324 323
327 325 327 324 324 325 326 327 328 327 327 328 327 328 327 327 325 325 324 324 322 322 321 321 322 322 322 322 322 323 322 318 318 321 324 325 325 325 326 323 322 317 317 317 322 325 326 321 324
327 329 327 326 326 327 328 328 329 328 326 328 327 330 330 328 325 325 325 324 324 324 322 321 322 322 322 322 322 322 320 317 321 322 323 325 325 326 326 323 323 319 321 322 320 324 324 323 323
327 327 328 327 327 327 327 328 328 329 328 329 329 329 327 326 325 325 325 325 323 324 322 322 322 322 322 322 322 322 316 321 325 326 326 326 326 326 324 324 324 323 320 322 322 321 322 324 322
324 325 326 327 327 327 327 328 328 328 329 329 328 326 327 326 325 325 325 325 324 324 323 322 323 323 322 322 323 319 316 323 326 328 328 327 327 326 324 324 324 324 321 320 320 321 322 323 324
322 325 323 323 324 323 325 324 325 326 326 325 326 327 326 325 326 325 325 325 325 324 323 322 323 322 322 323 322 317 321 326 327 326 326 325 325 326 325 324 324 325 321 321 321 320 322 322 323
317 315 315 316 317 318 320 319 321 322 323 324 325 326 326 326 325 325 326 325 325 324 323 322 322 322 322 324 318 318 323 327 327 327 326 326 325 325 326 325 324 325 322 322 322 320 321 322 324
317 315 317 317 318 318 319 319 320 321 322 323 324 325 325 325 325 325 326 325 325 324 323 322 322 322 324 321 317 321 324 326 327 327 326 325 326 326 325 326 324 324 321 320 322 321 322 323 324
314 315 314 315 316 317 319 319 320 322 322 322 323 324 325 325 325 326 325 325 324 324 322 322 322 324 323 318 318 322 325 326 325 326 326 326 326 327 325 325 324 323 320 321 322 322 322 324 323
315 314 315 315 317 316 316 317 319 320 320 321 323 323 324 324 326 325 324 324 324 323 322 322 324 324 320 318 321 323 325 325 327 328 328 328 328 327 325 323 323 321 319 323 323 322 323 324 322
315 314 315 317 318 318 318 318 319 320 320 320 321 322 324 325 326 326 324 322 323 323 322 324 325 323 318 318 323 326 323 325 326 327 327 327 328 326 326 323 321 320 321 323 323 322 323 324 324
316 316 317 318 319 319 318 319 318 319 319 320 322 323 324 325 326 324 324 323 321 322 324 325 324 319 318 323 324 322 324 325 325 326 327 328 326 326 326 323 321 321 323 323 322 322 323 324 324
318 318 318 318 318 317 317 318 318 319 321 322 323 324 325 325 325 324 324 322 322 323 325 325 322 319 321 324 323 323 325 324 324 326 327 326 326 325 325 325 321 323 324 323 322 322 323 324 325
317 319 320 320 318 317 318 320 319 319 320 320 322 323 324 324 324 325 324 322 323 325 325 323 320 319 322 324 325 325 324 324 324 325 325 325 326 325 323 322 322 324 322 322 321 322 322 324 324
318 318 319 318 317 318 320 320 321 319 320 320 320 323 324 323 323 325 323 323 325 325 324 322 321 319 323 325 327 325 324 325 323 325 326 327 327 325 323 323 323 322 323 322 321 322 323 324 324
317 316 315 315 316 317 317 320 319 320 321 321 320 323 324 324 325 325 324 324 325 324 323 321 321 320 323 327 327 325 326 325 324 324 327 326 327 325 323 323 322 322 323 324 324 324 325 325 325
313 312 313 314 315 318 318 318 319 319 319 320 320 321 323 325 325 325 324 325 325 324 323 323 319 319 324 327 327 325 326 325 324 325 327 327 326 325 322 324 323 322 322 323 324 324 324 325 325
314 312 313 315 319 321 318 322 321 320 321 322 323 322 323 325 325 325 325 325 325 325 324 322 318 322 325 327 326 326 327 326 325 325 326 326 326 325 322 324 324 323 322 322 325 324 325 325 325
312 315 312 315 318 319 319 320 320 319 320 320 320 322 323 325 325 325 325 325 326 325 324 321 322 325 326 328 325 328 327 326 325 325 326 326 325 325 322 323 323 323 322 325 324 324 324 324 325
313 312 314 312 318 321 320 322 322 322 322 324 323 321 323 324 325 325 325 325 326 325 323 321 324 325 326 327 326 327 327 326 325 325 327 326 326 325 323 321 323 324 323 323 324 324 324 323 325
310 313 311 312 314 318 321 321 318 321 321 323 322 323 324 324 325 325 325 326 327 325 323 322 325 326 326 326 326 326 327 326 325 326 326 324 327 326 323 321 323 325 324 323 323 323 324 324 323
313 312 312 314 314 315 318 319 319 319 318 320 321 323 324 325 325 325 325 326 327 324 323 322 326 326 325 325 325 326 326 326 326 326 325 326 326 326 326 321 320 323 324 323 323 324 325 324 323

GFSSGP_850_thetae_027.txt.gz
Theta_e
315 319 324 328 335 335 339 340 334 337 334 326 325 328 329 329 334 330 326 327 325 327 326 327 328 326 321 322 321 320 320 317 316 315 314 313 311 313 313 313 313 312 311 312 315 316 317 320 315
320 323 330 333 340 341 341 338 339 336 333 331 324 323 322 326 323 325 326 326 325 326 324 326 326 324 321 321 321 321 320 317 316 316 314 313 313 315 317 317 314 312 312 311 312 319 320 321 322
321 329 331 337 341 342 339 336 336 334 331 329 326 322 323 325 324 324 326 326 325 324 324 322 321 322 321 321 321 321 319 317 317 317 316 314 314 321 320 319 318 317 317 324 319 326 328 327 324
323 326 332 337 340 339 337 337 334 333 331 326 325 326 324 326 325 325 326 326 325 322 323 320 320 320 321 322 322 320 318 318 319 319 318 316 320 328 324 324 324 323 323 328 324 330 328 326 326
324 334 336 340 339 336 334 334 333 333 330 329 324 327 326 327 325 325 325 325 324 322 320 319 320 321 322 324 323 323 320 319 320 320 319 318 326 324 324 324 323 325 326 327 326 328 324 326 326
330 331 336 336 335 333 332 331 331 330 329 328 324 325 326 327 326 325 325 325 323 321 319 318 320 322 323 324 324 323 321 321 321 321 320 320 325 324 322 322 323 322 326 326 326 326 325 326 323
330 333 331 332 331 331 330 329 330 329 329 328 325 327 327 327 326 325 324 324 323 320 319 319 320 322 323 325 325 324 321 322 321 322 321 322 324 323 322 323 322 322 321 320 322 324 324 325 325
331 331 329 330 329 328 329 328 327 329 330 329 325 329 330 328 328 326 324 324 323 320 320 319 320 322 323 324 325 323 321 322 322 322 321 322 324 324 324 323 323 321 317 317 318 322 325 325 324
329 330 328 327 328 328 328 329 327 328 329 328 327 328 328 328 329 327 325 324 324 321 321 320 321 321 323 325 325 322 321 322 322 321 319 321 324 325 325 325 324 321 320 317 316 317 321 323 324
329 330 328 327 327 327 327 327 328 329 328 328 329 328 328 329 328 327 326 325 324 323 322 322 321 322 322 326 325 322 322 322 322 319 317 319 323 325 325 325 325 322 319 317 316 318 325 326 328
329 331 329 328 327 326 327 328 328 328 329 328 328 328 329 329 328 326 326 326 325 324 323 323 321 322 323 325 323 322 322 322 321 316 320 323 324 325 325 326 325 323 321 319 321 320 322 325 328
328 328 328 328 328 328 328 328 328 328 328 328 328 328 329 329 329 329 326 326 325 325 324 323 322 322 323 324 322 322 322 322 317 320 325 325 325 325 326 326 324 323 323 320 321 322 320 323 323
328 327 327 328 328 328 328 327 327 326 324 325 327 327 326 325 327 329 326 325 325 325 324 323 323 322 323 324 322 322 323 320 317 324 327 328 327 326 327 326 324 323 324 322 320 320 321 322 322
323 325 325 326 326 326 326 325 323 323 322 323 323 323 323 324 327 327 325 326 325 325 324 323 323 322 323 323 322 322 322 317 321 326 327 326 326 326 326 326 325 324 325 324 321 321 320 322 322
319 322 322 321 322 321 319 319 320 320 320 321 321 323 323 324 325 325 325 325 326 325 324 323 323 323 323 323 322 323 320 318 324 327 328 327 326 326 326 326 326 325 325 324 321 322 321 320 322
319 319 320 320 319 319 319 320 321 321 321 322 323 323 323 323 324 325 325 325 325 324 324 323 323 322 323 322 323 323 317 322 326 327 327 327 326 326 327 326 325 325 325 324 321 322 322 322 323
318 320 319 319 318 318 320 321 321 320 321 321 322 323 323 324 324 325 325 325 325 324 324 322 322 322 322 322 323 319 318 323 327 326 327 327 326 327 327 327 325 325 324 323 320 323 322 322 323
319 318 318 318 318 318 318 320 321 321 322 322 322 323 323 323 324 324 324 325 325 324 323 322 322 322 322 324 322 316 321 326 325 327 328 328 328 328 327 326 324 325 323 321 322 323 322 322 324
319 320 321 318 319 318 321 322 323 322 322 322 322 322 322 322 324 324 325 325 324 323 322 322 322 322 324 324 317 319 326 325 326 326 326 327 328 328 326 327 324 323 321 320 323 323 322 323 324
315 316 318 318 318 320 322 322 322 322 322 321 322 323 324 325 324 325 325 323 321 322 322 322 322 323 324 319 319 325 324 325 325 325 326 327 327 327 326 326 322 321 320 321 323 322 322 324 323
316 317 317 319 321 320 321 322 322 322 322 321 321 324 324 324 324 324 324 322 321 321 322 323 324 324 320 318 324 323 325 324 323 325 326 327 326 326 325 326 323 321 322 323 323 322 323 324 324
318 318 318 318 319 323 321 325 323 322 322 323 323 325 325 323 322 323 324 323 321 322 323 325 324 321 319 324 324 324 325 324 323 325 326 325 326 326 324 324 322 322 324 323 323 322 323 324 324
317 318 318 318 320 321 322 322 322 323 322 323 322 324 326 322 322 323 324 323 322 324 325 324 322 320 322 325 326 324 325 325 324 323 327 327 327 326 324 322 323 324 322 323 321 322 322 324 324
317 319 320 320 321 323 323 322 323 321 322 322 323 325 323 324 324 324 324 323 324 325 325 323 321 320 325 325 326 324 325 325 325 324 327 326 327 326 323 323 322 322 323 322 321 322 323 324 325
319 319 321 322 323 326 321 321 322 322 322 323 325 326 324 324 325 325 324 326 325 325 323 322 322 322 323 327 326 324 326 326 325 325 326 326 327 325 323 322 322 322 323 324 324 324 325 325 325
319 321 322 323 322 322 320 319 319 322 322 321 324 324 324 325 325 325 326 327 325 324 324 322 321 321 325 326 326 325 326 326 325 325 326 325 326 325 323 323 323 322 322 323 324 324 324 325 325
318 319 319 320 321 321 321 322 324 325 325 325 324 324 326 327 326 326 326 325 325 324 323 322 320 323 325 327 325 327 327 326 325 326 326 326 325 325 322 323 325 323 322 324 324 324 324 324 324
318 318 317 319 318 318 321 325 323 326 327 327 327 326 326 326 326 326 326 325 325 325 324 321 323 325 326 326 326 327 327 326 325 326 326 326 326 324 321 323 325 323 325 324 324 324 324 325 325
316 318 318 318 318 317 319 322 328 328 328 329 330 327 326 326 326 326 326 325 325 325 323 320 324 325 326 326 326 327 327 326 325 326 324 325 326 324 323 322 325 323 323 324 324 324 323 323 325
315 317 318 318 319 318 321 321 324 327 326 328 328 326 326 327 326 326 326 325 325 324 323 321 324 325 325 325 326 326 326 326 326 326 325 326 326 325 323 322 324 325 323 323 323 323 324 324 324

GFSSGP_850_thetae_030.txt.gz
Theta_e
312 316 326 329 334 332 334 340 340 339 338 333 333 333 333 331 333 334 327 328 325 325 323 323 325 325 325 320 320 319 319 318 316 315 314 313 312 312 312 313 312 313 315 313 313 315 316 318 320
318 323 328 333 334 340 339 341 340 338 335 334 334 332 331 331 329 329 332 327 325 324 323 322 322 324 322 320 319 319 319 317 316 316 316 315 313 313 314 317 317 315 311 310 311 313 320 320 322
321 327 333 339 342 341 340 340 338 335 333 333 332 329 329 331 329 329 332 327 325 324 323 320 319 322 320 319 319 320 319 318 318 318 317 317 315 315 320 320 320 321 320 320 315 321 323 328 328
325 330 332 337 338 338 340 338 336 335 333 331 331 332 328 328 329 329 329 326 325 324 322 319 320 321 320 320 320 320 320 319 319 320 320 318 317 319 327 326 325 326 327 326 325 318 330 331 328
327 330 332 335 336 336 337 337 334 335 333 332 329 332 331 329 326 325 326 326 327 327 323 319 319 321 320 320 321 321 320 319 320 320 321 320 317 326 328 325 325 325 324 328 328 324 325 330 325
330 330 334 335 335 335 334 332 332 333 333 332 330 330 330 328 329 329 332 333 332 331 322 324 319 320 320 321 322 323 322 320 321 321 321 321 319 326 327 324 323 325 325 324 328 329 324 326 325
329 332 331 332 333 333 332 331 332 332 333 332 330 331 331 331 330 330 329 332 335 333 326 319 318 320 321 322 323 324 324 322 321 322 321 322 321 324 323 323 322 322 323 322 323 325 327 326 325
328 331 332 332 332 332 331 331 330 331 332 331 329 332 332 332 330 330 331 331 334 334 333 325 319 320 321 323 324 324 325 324 322 322 322 322 322 324 324 324 324 324 324 322 319 323 324 324 325
330 332 332 331 331 331 331 331 330 330 330 329 330 330 330 330 330 331 332 332 332 332 334 332 334 333 323 327 327 325 325 325 323 322 323 324 330 331 332 331 327 324 324 322 320 317 319 323 323
331 332 331 331 331 331 330 330 329 330 330 330 329 330 330 330 331 331 331 330 332 332 333 333 335 337 337 336 337 327 330 331 332 335 336 334 332 332 331 329 327 324 325 322 319 316 317 322 330
331 333 331 331 330 330 330 330 330 330 331 330 330 329 329 329 329 330 331 331 330 330 332 333 334 334 337 336 337 338 337 336 335 332 332 331 331 332 332 332 332 332 330 328 327 328 326 326 328
331 330 331 330 330 330 331 330 330 330 330 329 328 327 327 328 328 327 327 331 331 330 331 334 335 326 327 336 336 337 335 333 332 332 324 320 332 333 332 331 331 330 329 329 328 326 327 327 327
328 329 329 329 330 330 330 330 331 330 328 327 326 325 325 325 325 325 325 328 332 329 331 333 336 332 324 326 336 334 330 328 329 329 327 324 330 332 332 332 332 330 329 329 330 326 326 328 327
326 326 326 328 329 329 330 330 328 328 326 325 324 324 324 323 324 325 326 329 331 328 330 333 335 329 324 323 324 325 323 328 324 328 330 327 328 331 332 332 331 331 330 330 327 327 326 327 327
325 326 327 326 326 328 327 328 327 325 323 323 323 324 324 323 324 327 329 329 330 330 329 331 329 327 324 324 323 325 325 323 329 329 326 326 327 331 329 330 330 328 328 327 326 327 327 327 327
324 326 327 327 326 325 325 326 327 325 324 325 325 325 324 323 324 326 327 328 330 326 327 328 329 327 324 323 323 325 327 325 329 330 331 327 327 329 328 328 328 327 326 326 326 328 327 328 328
325 327 327 327 326 324 324 326 327 325 324 325 325 326 325 323 325 326 328 330 330 326 327 325 326 329 323 324 324 323 323 324 329 331 331 332 331 329 328 328 328 330 326 328 327 328 327 327 326
326 326 327 329 328 323 324 324 326 324 324 325 326 326 324 324 325 326 329 328 324 325 324 324 326 325 324 325 325 325 330 329 330 332 331 333 332 331 329 328 328 326 329 327 326 326 324 327 326
325 327 327 326 327 325 325 326 326 326 326 327 327 326 325 325 327 329 327 324 325 324 323 326 327 327 328 330 330 330 329 330 332 332 332 333 331 330 329 328 327 326 325 326 326 324 324 324 325
321 324 326 326 326 326 325 326 328 328 328 327 326 326 325 326 329 330 328 325 324 324 324 325 330 326 326 330 330 330 331 332 332 332 332 330 330 328 328 327 327 326 326 326 325 323 326 325 324
320 321 323 324 325 325 325 325 326 328 327 327 326 324 324 324 329 331 330 330 328 326 326 328 331 326 328 331 329 325 327 327 330 332 332 332 329 328 327 327 326 323 326 326 324 323 325 324 324
321 320 320 321 322 323 323 329 329 329 329 328 326 326 324 327 329 331 331 331 332 331 330 333 331 324 325 321 330 331 329 329 331 329 331 330 329 328 327 325 326 325 325 323 324 326 325 325 328
320 320 321 321 322 323 324 326 328 329 329 328 328 326 324 329 329 331 331 332 331 331 332 332 326 326 326 322 332 329 329 331 331 330 329 330 329 328 326 326 327 327 324 324 326 327 325 325 327
318 319 321 322 323 326 325 326 329 330 330 329 329 324 324 331 331 332 331 331 331 331 332 332 330 332 328 331 327 327 331 331 331 331 332 332 329 328 326 328 326 325 325 326 327 327 326 327 326
318 321 323 325 326 327 326 328 329 329 328 329 326 325 330 331 332 331 331 331 331 331 332 332 332 332 332 332 331 329 331 330 332 331 331 330 328 327 328 328 327 326 326 327 327 327 326 324 325
319 322 324 325 329 329 327 328 329 325 327 325 324 324 331 331 332 332 331 331 331 331 331 331 332 332 332 332 332 331 331 332 332 331 331 331 328 327 328 327 326 327 328 328 327 326 325 325 326
320 323 323 326 328 326 328 327 325 324 324 324 324 323 330 331 332 332 331 331 331 331 332 332 331 331 331 331 331 332 332 331 331 331 329 327 328 329 328 327 327 328 328 328 328 327 327 325 325
321 322 324 325 329 329 326 325 326 326 326 326 329 328 329 332 332 331 331 331 331 332 332 332 329 330 331 331 331 332 332 332 331 330 330 328 327 329 328 328 328 328 328 328 327 326 328 328 327
320 322 323 325 325 328 327 325 324 325 327 330 331 330 332 332 331 331 331 331 331 331 332 329 329 330 331 331 331 331 332 331 331 331 330 329 328 330 328 329 328 329 329 328 327 328 328 328 328
319 321 323 323 325 323 324 322 327 328 331 329 331 333 332 331 331 330 330 331 331 331 330 329 329 329 330 330 330 331 332 331 331 331 331 329 329 329 328 329 329 329 329 329 329 329 329 328 326

GFSSGP_850_thetae_033.txt.gz
Theta_e
312 313 328 331 333 329 335 335 338 339 338 336 335 336 336 334 334 335 336 337 334 333 323 321 323 325 325 321 319 319 318 317 315 315 314 314 313 312 312 312 313 313 315 315 314 313 314 316 317
317 324 328 332 332 336 336 337 339 339 337 336 336 336 335 334 332 332 334 338 334 333 322 320 321 323 324 321 319 318 319 318 317 316 316 316 315 314 314 314 316 317 315 312 312 313 312 317 321
325 326 332 335 338 338 340 340 339 338 336 335 335 333 332 333 332 331 336 336 334 333 323 320 320 321 323 320 318 319 319 319 319 319 319 318 317 316 316 320 322 322 323 322 321 323 326 318 326
326 328 331 339 340 338 337 338 338 336 335 334 333 333 332 331 331 331 334 336 334 333 335 319 319 320 321 319 319 319 320 320 319 320 320 320 319 317 321 327 328 327 325 328 327 327 326 327 329
327 329 333 334 333 334 336 336 336 335 334 333 332 332 333 331 330 331 334 335 334 334 334 331 320 320 320 320 320 320 320 320 320 320 321 321 321 318 323 329 327 326 325 325 327 330 327 326 331
328 329 335 334 333 334 335 334 334 333 332 333 332 331 332 331 332 332 332 336 334 334 334 336 322 321 320 320 320 320 321 321 320 320 321 321 322 320 322 327 327 325 322 326 325 326 330 329 327
329 333 333 333 333 334 335 332 332 332 333 333 332 332 332 333 333 333 333 334 336 334 335 335 332 320 321 321 321 321 322 322 322 321 321 321 322 322 322 324 324 323 322 322 321 320 321 326 328
327 332 332 333 332 332 332 332 331 331 332 333 333 332 333 334 333 333 333 333 334 336 335 335 338 328 321 322 322 322 323 323 324 323 322 322 322 323 330 331 327 324 325 324 323 321 317 318 320
329 332 333 333 333 332 331 332 332 331 331 331 330 330 331 331 332 332 332 333 333 334 335 336 335 339 335 328 328 323 323 323 324 324 323 323 327 334 335 334 333 331 329 325 324 322 320 317 316
331 335 334 333 333 333 333 332 332 331 331 331 331 331 330 331 331 331 331 330 331 332 334 335 336 337 340 338 339 336 325 324 325 325 333 337 339 335 334 333 333 331 329 325 324 323 321 316 325
332 334 334 333 332 332 332 332 331 332 333 331 332 331 331 330 329 329 329 329 329 330 332 334 336 336 339 339 339 342 341 338 338 338 339 339 336 332 333 334 333 333 332 331 331 329 330 330 327
331 331 332 332 332 332 333 332 333 332 332 331 331 331 330 328 327 328 328 328 328 328 331 332 335 336 339 339 338 340 341 340 338 338 339 337 334 334 335 334 333 333 332 332 330 329 329 328 328
328 328 328 330 331 331 331 332 332 332 331 331 330 329 328 327 327 327 326 326 326 327 328 333 334 336 336 337 338 339 339 338 337 335 335 335 333 334 335 334 333 332 333 332 331 329 329 328 327
328 329 329 328 328 329 331 332 331 332 331 331 330 329 327 326 327 327 326 326 327 328 330 333 334 336 336 338 338 338 338 336 334 333 333 333 333 334 334 334 332 332 333 332 330 329 328 328 328
328 330 331 330 329 330 328 331 332 330 330 330 329 327 327 327 327 327 327 326 329 331 333 335 334 338 338 339 338 340 338 333 333 333 333 333 335 335 332 333 333 333 331 329 330 329 328 328 328
327 330 331 330 330 329 329 331 330 329 329 329 328 327 327 327 328 328 325 326 330 330 332 336 335 339 341 343 342 340 335 334 332 332 333 335 335 334 334 333 334 332 330 328 327 329 330 327 327
328 330 330 330 330 330 330 331 329 327 328 328 328 327 327 328 328 327 326 328 330 332 335 337 337 339 343 344 342 338 334 334 333 332 333 334 335 335 333 334 332 329 328 329 327 328 329 327 328
326 328 328 329 329 329 330 330 330 327 327 327 328 327 326 328 328 328 327 328 332 334 336 337 337 337 341 342 339 336 335 334 332 333 333 334 335 334 335 333 331 329 329 328 328 327 329 329 327
325 326 328 329 329 329 330 331 331 328 327 327 327 327 328 329 329 328 329 333 332 334 337 336 336 337 340 339 336 334 334 334 332 333 334 335 334 334 333 332 329 329 328 328 327 328 328 326 326
322 324 326 328 329 330 330 330 329 329 328 327 328 329 329 329 329 327 332 335 334 336 336 336 336 338 337 336 334 333 333 332 334 334 335 335 334 333 332 330 329 328 328 327 326 327 325 325 325
322 323 325 327 328 329 329 330 330 329 329 327 326 326 328 329 328 327 334 336 336 337 337 337 338 338 336 334 334 335 335 334 333 332 333 334 332 333 330 330 329 328 328 328 327 327 327 327 326
321 322 324 325 326 328 328 331 329 328 328 328 328 329 329 328 328 327 336 337 337 337 337 338 338 337 336 336 335 335 332 332 332 333 331 334 333 332 331 329 329 327 328 328 328 325 325 326 326
321 322 324 325 325 326 326 326 326 326 327 329 330 330 329 329 326 331 336 336 337 337 337 338 338 337 337 333 335 335 332 330 331 331 332 334 331 331 330 329 329 328 326 326 325 325 325 326 327
320 321 323 325 325 327 326 326 327 327 328 329 330 330 329 328 328 333 335 336 336 336 337 337 337 337 336 335 335 333 333 333 332 333 333 331 329 329 330 329 329 328 327 325 327 326 328 326 327
321 322 323 325 327 329 325 327 328 327 328 330 330 330 328 326 333 335 336 335 336 336 336 336 336 337 336 336 334 333 334 334 333 333 332 332 330 328 329 329 327 326 326 326 327 327 328 327 328
321 322 323 325 327 326 326 328 328 330 330 329 329 328 326 333 334 335 335 335 335 336 336 335 337 336 336 334 333 333 333 333 333 333 330 330 332 330 329 330 330 329 329 329 328 328 327 327 328
321 323 323 325 326 326 328 330 331 330 330 329 329 329 327 334 335 335 335 335 335 335 335 336 336 335 334 333 333 332 332 333 334 333 330 330 329 330 330 330 328 329 328 328 327 326 330 326 326
320 322 323 326 326 328 330 330 332 328 327 328 327 326 327 334 335 335 335 335 335 335 335 336 335 334 333 332 332 332 332 333 333 332 330 332 331 330 329 329 329 330 330 329 329 327 328 326 323
320 322 322 324 325 328 330 332 330 329 328 329 328 327 327 334 335 335 335 335 335 335 335 335 332 332 332 332 331 332 332 332 332 331 332 330 332 329 330 330 330 330 330 330 327 328 329 324 326
320 322 324 326 328 327 330 331 326 327 328 330 332 330 330 335 335 335 334 334 335 335 335 332 332 331 331 331 331 331 332 332 331 331 331 331 330 329 329 330 330 329 330 329 330 331 331 331 331

GFSSGP_850_thetae_036.txt.gz
Theta_e
312 312 320 328 334 329 334 334 335 340 338 336 335 335 335 334 333 336 337 337 335 329 323 322 321 321 321 320 317 316 316 315 315 315 314 314 314 313 313 312 312 313 313 314 313 312 311 312 314
312 322 329 331 332 335 332 336 340 338 338 336 335 335 335 334 332 335 337 336 335 330 324 322 321 321 321 319 318 317 317 318 318 318 318 317 315 315 315 315 315 316 316 315 314 313 313 313 313
322 324 328 331 336 335 335 339 340 339 337 335 334 335 333 333 332 336 338 336 334 332 324 321 321 320 320 320 318 318 319 319 320 320 320 320 319 316 317 320 323 323 323 325 323 323 324 321 323
326 327 328 335 339 338 339 340 339 339 336 335 334 333 333 332 333 332 335 336 335 336 330 321 320 320 320 320 319 319 320 320 320 320 320 321 321 319 317 323 328 327 328 324 329 328 327 325 322
328 328 331 332 333 334 333 336 337 338 335 334 334 333 333 332 332 332 335 336 335 335 336 329 319 320 320 321 319 319 319 320 320 320 320 321 321 322 319 321 326 328 326 325 324 327 331 331 327
327 328 331 334 333 333 333 335 335 334 333 333 333 333 333 333 333 332 333 336 335 335 334 335 325 320 320 321 320 319 320 320 320 320 320 321 322 322 322 319 323 330 328 322 321 323 322 329 330
328 328 330 331 333 334 335 335 335 333 333 334 334 333 332 334 334 333 333 334 336 335 335 335 335 323 321 320 321 320 320 321 321 321 321 321 322 322 322 322 326 326 322 322 321 320 321 320 321
327 328 330 332 334 333 332 332 333 333 332 333 333 334 333 334 334 334 334 334 335 336 335 335 335 335 325 322 321 321 321 321 322 323 323 322 322 322 322 330 332 333 332 330 325 322 322 320 318
327 327 330 331 332 332 332 332 332 332 332 332 332 331 331 331 331 331 332 332 332 332 336 336 336 335 336 323 322 322 321 321 322 323 324 324 323 322 330 335 333 334 333 331 329 325 323 321 320
329 329 330 331 332 333 333 332 333 333 333 332 332 332 332 332 331 332 331 331 330 330 330 336 336 336 336 337 325 323 323 322 322 323 324 324 324 333 337 335 334 332 332 331 330 329 327 327 323
331 332 330 331 332 332 333 333 333 333 334 333 333 332 332 332 331 330 329 329 329 329 329 329 336 336 336 337 339 337 333 326 323 323 324 325 331 339 336 334 334 334 333 333 331 332 330 328 330
327 331 331 331 332 332 333 332 333 332 333 333 333 332 332 332 331 330 328 328 328 328 328 327 333 336 336 337 340 339 339 337 331 325 329 333 339 337 329 331 334 334 333 332 331 330 329 329 329
328 327 328 330 331 331 332 332 332 332 332 331 332 332 332 332 330 330 328 328 328 328 327 327 334 335 335 335 339 340 340 342 340 339 339 338 336 331 333 335 336 335 335 333 333 332 330 329 328
327 327 328 328 328 329 330 330 330 330 330 331 332 332 332 332 330 329 327 328 329 328 326 328 336 335 334 335 336 339 339 342 341 339 338 336 334 331 332 335 334 334 330 331 331 331 330 328 328
325 329 329 330 329 331 330 332 332 330 329 330 331 331 331 331 329 328 328 330 328 326 328 332 334 336 335 335 337 337 340 339 339 337 334 334 333 332 331 334 335 334 333 332 330 329 329 330 328
326 327 330 329 330 330 330 333 332 330 329 330 330 330 331 330 328 328 328 330 328 327 328 333 333 335 336 336 338 337 343 340 337 334 334 333 333 332 331 334 334 332 332 333 329 328 328 327 328
326 328 328 329 328 329 331 332 332 330 330 331 330 328 329 329 328 328 328 329 329 328 329 330 334 336 337 339 340 340 343 340 337 333 333 333 334 335 333 333 333 333 333 330 328 328 327 327 328
326 327 327 329 329 329 330 331 331 331 331 331 331 329 328 328 329 327 328 329 330 330 334 335 336 337 339 341 341 343 342 338 335 333 333 334 334 336 335 334 334 332 332 329 329 329 327 328 328
325 327 327 328 328 329 330 331 331 332 331 331 331 329 328 329 328 328 329 330 332 331 330 332 337 338 339 340 343 343 338 336 334 333 333 334 335 336 334 333 332 332 330 329 329 328 327 328 329
320 323 325 327 326 328 329 330 331 332 332 331 331 329 329 328 331 331 330 333 333 332 332 335 336 337 339 340 341 338 336 335 334 333 335 334 335 334 333 331 332 330 329 329 328 327 326 327 326
320 321 323 324 325 326 327 329 331 331 331 331 329 329 329 329 327 327 330 333 334 334 334 335 336 338 338 340 337 336 334 335 334 335 335 332 333 332 329 331 330 330 329 328 327 325 326 327 324
321 320 320 322 323 326 325 329 332 331 332 332 331 330 329 328 329 330 330 336 336 336 335 337 337 337 337 337 336 335 335 333 333 332 334 334 335 333 329 330 330 329 328 328 326 327 325 326 325
320 320 321 322 323 325 325 327 329 330 330 329 330 328 328 328 330 331 336 338 338 338 338 339 338 334 338 335 336 335 334 333 333 333 332 332 331 330 330 331 328 329 327 327 327 325 325 325 325
320 320 320 322 324 327 328 327 328 329 330 329 330 328 328 331 330 330 338 339 339 339 339 339 337 338 337 335 336 335 332 334 333 333 333 333 331 328 330 330 328 327 326 325 326 325 325 326 325
318 323 324 324 324 326 326 327 328 329 328 329 330 329 329 330 331 337 339 339 338 338 339 339 338 338 335 336 337 334 335 328 328 330 332 330 332 329 329 328 328 326 326 325 325 325 326 326 326
319 322 324 324 325 325 324 327 328 329 328 328 330 329 330 330 336 338 338 338 338 339 339 338 338 338 337 337 335 334 334 333 333 333 332 329 330 328 328 327 328 326 324 325 325 325 326 325 326
319 319 322 325 324 324 326 327 328 329 330 331 330 330 331 335 337 338 337 337 338 338 338 337 338 337 337 335 334 333 334 334 335 332 330 329 328 327 328 329 327 327 327 328 327 326 326 326 327
319 320 321 324 325 327 326 328 330 332 333 331 332 332 330 336 337 337 337 337 338 338 337 338 337 337 335 334 333 333 330 332 331 331 330 330 329 331 328 327 327 327 327 326 327 326 326 325 326
319 319 321 325 324 326 328 328 331 334 332 330 331 329 330 337 337 337 337 337 337 337 337 337 337 335 334 333 332 331 330 332 332 330 331 330 329 330 328 327 327 328 329 328 326 326 325 325 325
319 320 322 324 327 326 326 328 331 329 329 330 331 328 334 336 337 337 337 337 337 337 337 336 335 333 333 333 332 331 330 333 331 330 330 329 328 329 328 330 329 329 328 328 327 329 326 328 328

GFSSGP_850_thetae_039.txt.gz
Theta_e
318 312 316 327 330 329 329 329 329 336 338 336 335 334 334 332 334 338 336 337 336 325 323 323 322 321 319 318 318 317 317 317 317 317 317 316 315 314 314 314 315 314 313 314 313 312 311 310 311
312 321 328 331 330 331 330 328 337 337 337 338 335 334 332 333 336 337 337 336 335 327 324 323 322 321 319 318 318 318 318 319 319 320 320 318 317 315 315 317 319 318 317 317 318 316 313 312 311
312 323 324 326 330 330 329 336 337 338 338 337 335 334 333 333 337 337 336 335 334 331 324 323 322 321 320 319 318 318 319 319 320 321 321 321 321 319 316 318 322 323 323 323 325 325 324 323 318
323 327 327 328 332 333 334 335 338 337 337 337 335 332 332 332 333 336 336 335 333 333 329 321 321 321 320 320 319 318 319 319 320 321 321 321 322 322 320 317 319 324 326 327 324 328 329 328 324
325 329 324 327 329 332 332 336 336 338 337 337 336 332 331 332 332 333 336 336 334 333 333 325 321 321 321 320 320 318 319 319 320 321 321 321 322 322 322 320 318 321 329 326 324 324 326 330 331
325 328 326 328 330 331 331 333 336 335 336 333 333 333 333 332 332 332 333 336 335 335 334 334 329 321 321 321 321 319 319 320 320 321 321 321 322 322 322 322 320 322 327 326 321 320 321 322 324
330 324 324 326 327 329 330 333 332 333 332 333 333 332 333 333 332 332 332 333 334 335 335 334 334 332 321 320 321 320 319 319 320 320 321 321 321 321 322 322 323 329 331 326 323 322 320 320 319
333 325 325 325 327 329 330 331 332 332 332 332 332 332 331 334 334 333 333 333 333 334 335 334 334 334 332 321 320 320 320 319 320 321 321 322 322 322 322 322 325 331 332 331 330 329 325 322 322
333 328 324 325 326 327 329 330 332 332 333 332 332 332 332 331 333 333 333 332 333 334 336 335 334 334 334 332 322 320 320 320 320 320 321 322 323 323 322 326 327 333 333 331 331 330 329 324 323
334 329 327 325 326 327 329 331 331 332 333 333 333 333 332 332 331 332 331 331 330 329 330 335 335 335 335 335 333 324 321 320 320 321 321 322 323 323 324 330 328 331 332 332 332 331 329 328 328
330 330 328 327 327 328 330 331 332 332 332 332 332 332 332 332 332 331 330 329 329 328 328 330 334 335 335 335 335 331 321 321 321 321 321 321 322 324 329 333 334 333 334 334 333 331 330 329 328
326 328 330 330 330 329 329 330 331 332 331 331 331 332 332 331 332 332 331 331 330 328 328 328 328 332 334 336 335 335 335 326 322 322 322 323 322 324 334 335 333 333 334 334 332 331 330 329 329
325 325 325 329 330 329 330 331 331 330 331 330 330 330 330 331 331 332 331 330 330 329 328 328 327 327 332 336 336 335 335 336 336 336 334 328 324 332 337 338 331 333 334 333 333 332 332 331 329
323 325 327 326 326 326 327 328 329 329 329 329 329 329 329 330 331 332 331 330 329 329 329 328 326 328 331 335 336 335 336 336 338 339 337 334 337 337 336 332 334 336 335 334 332 331 332 331 330
321 321 322 323 325 326 326 327 328 328 329 330 330 330 329 329 329 330 330 330 328 329 329 328 327 330 333 336 336 336 337 338 339 340 340 339 338 337 333 332 335 334 335 334 332 331 331 331 329
324 323 323 323 324 325 327 328 327 328 329 330 330 329 329 329 329 329 331 328 327 329 329 328 327 331 334 336 336 340 341 340 341 342 341 338 335 333 332 331 332 334 334 332 332 332 330 328 329
321 325 324 324 324 325 326 327 327 328 329 329 329 329 329 329 329 328 329 328 327 328 329 328 328 330 332 335 337 338 339 341 341 340 338 335 333 333 333 333 331 332 333 333 333 332 328 328 328
321 324 324 324 324 325 325 326 326 326 327 328 328 329 329 330 329 327 327 328 327 328 330 329 330 331 333 336 339 339 338 341 341 338 334 333 333 333 334 334 333 332 333 333 332 329 329 328 327
319 323 324 324 324 324 324 325 326 326 327 326 327 328 330 330 329 328 328 328 328 330 331 330 332 334 336 337 340 341 341 341 341 339 334 333 333 334 335 335 334 332 332 331 330 329 329 327 327
317 317 318 322 324 324 324 325 326 326 326 326 327 328 329 330 330 328 328 328 330 331 331 331 333 335 338 340 342 340 340 342 340 336 334 333 333 334 334 334 331 330 330 330 329 329 328 327 327
315 316 316 317 319 320 320 321 322 323 325 327 329 329 329 329 329 328 327 328 331 332 331 332 334 338 340 341 340 340 338 336 334 334 333 333 334 334 334 332 328 330 329 329 328 328 327 325 326
316 316 317 318 318 319 320 320 321 321 323 324 326 327 329 329 329 329 328 330 333 332 332 332 332 336 338 339 338 336 336 336 336 335 335 334 333 334 333 331 329 330 328 328 327 326 325 325 325
316 318 317 318 317 317 319 319 321 323 325 325 325 327 328 328 328 327 328 332 334 333 333 331 333 336 339 336 336 337 336 334 334 333 332 332 331 332 332 329 330 328 328 327 327 326 326 325 325
315 317 317 317 317 317 318 319 320 320 321 324 324 327 327 327 326 327 333 335 335 336 333 334 334 335 337 337 335 335 334 334 333 332 332 332 332 330 328 329 329 327 326 326 325 326 325 325 324
312 313 314 318 318 318 318 320 321 321 322 324 324 325 327 328 329 335 337 337 337 336 336 335 333 336 337 335 335 335 333 333 332 332 332 331 329 328 328 328 327 327 325 326 325 325 324 325 325
310 313 314 317 319 318 319 321 320 322 324 324 325 325 328 327 334 337 338 337 337 337 337 334 336 337 336 335 335 335 334 330 327 330 332 331 328 327 327 327 327 325 324 324 324 324 325 326 325
310 310 315 315 317 318 319 320 320 320 321 323 324 327 329 335 337 338 338 338 338 338 337 334 336 335 333 334 333 330 327 334 334 332 331 329 328 326 327 327 326 324 327 326 326 327 327 326 325
315 312 315 315 317 319 321 320 320 321 323 324 326 325 334 338 339 339 338 338 338 338 337 336 336 335 336 334 333 331 330 332 331 331 330 328 328 330 327 326 325 326 327 326 326 325 326 326 327
315 311 311 314 315 318 321 320 320 322 328 324 325 328 337 338 338 338 338 338 338 337 337 337 337 336 335 334 331 331 329 330 331 330 329 328 329 328 326 325 325 328 328 327 326 326 326 323 325
315 312 311 314 317 318 320 320 321 323 329 325 325 329 337 337 338 337 338 338 337 337 337 337 337 335 334 333 331 330 329 330 332 330 329 328 329 328 327 327 327 326 327 327 325 326 325 324 326

GFSSGP_850_thetae_042.txt.gz
Theta_e
321 312 314 326 326 326 328 329 330 329 335 336 336 333 331 332 334 335 332 331 331 325 324 323 322 322 320 318 319 319 319 319 319 318 318 318 317 316 315 315 317 317 316 316 314 313 312 310 310
319 312 325 330 328 331 328 326 328 335 337 337 337 336 334 336 336 336 335 335 329 326 324 324 322 322 319 318 319 319 319 319 319 319 320 320 320 319 317 316 317 319 320 320 320 322 319 315 312
312 325 324 326 328 327 328 331 335 337 338 337 336 335 333 336 337 335 334 335 333 328 324 324 323 321 320 319 319 319 319 319 320 320 321 321 321 321 320 317 316 318 323 324 324 323 325 325 324
314 324 326 325 330 330 330 331 333 336 336 336 337 333 332 336 336 336 334 333 334 331 325 324 323 322 321 320 320 320 319 319 320 321 321 321 322 322 322 321 317 316 323 325 326 324 326 327 325
326 328 323 325 327 329 329 331 332 335 336 336 336 333 331 334 336 336 334 332 331 332 331 327 323 323 322 321 320 320 319 320 320 320 321 321 322 322 322 322 321 318 321 327 325 323 326 326 329
325 325 324 326 327 328 328 329 331 336 336 336 335 334 331 332 332 332 333 334 333 332 331 332 330 323 322 321 320 320 319 319 320 320 321 321 322 322 322 322 322 321 324 326 324 321 320 319 323
328 323 323 325 326 327 328 329 330 332 335 333 332 331 331 332 332 332 333 333 333 334 332 332 333 327 321 321 321 321 320 319 319 320 320 321 321 321 321 322 322 323 326 328 327 326 324 321 320
329 324 326 323 326 326 327 328 329 330 332 331 332 331 331 332 332 332 333 332 334 335 334 334 334 333 330 322 321 321 320 319 319 320 320 320 321 321 321 321 322 324 326 329 329 329 329 328 324
332 328 325 324 325 326 327 328 331 330 332 331 332 332 332 333 332 333 333 333 335 335 335 335 334 334 334 331 326 321 321 320 319 319 320 320 321 321 322 322 323 328 326 330 331 331 330 329 327
330 332 330 324 324 324 325 326 327 329 330 332 332 332 332 332 333 333 333 333 332 332 333 334 334 334 334 334 333 328 321 321 320 320 319 320 321 322 322 323 326 330 330 332 332 332 331 329 328
332 333 332 331 329 326 326 327 328 329 329 331 331 331 331 332 332 332 332 331 331 329 329 329 332 334 334 334 334 334 328 322 321 321 320 320 320 321 322 323 330 332 332 333 334 333 330 330 329
327 330 332 331 330 329 329 329 328 328 329 331 331 330 330 330 331 331 332 331 331 331 330 329 328 330 333 334 334 334 334 332 326 321 321 321 320 320 321 323 329 330 330 333 334 332 331 330 329
324 325 327 327 327 329 329 329 328 329 330 330 330 330 329 329 328 329 329 331 331 331 330 330 328 328 328 330 331 334 335 335 333 326 322 322 322 322 321 324 332 334 332 332 334 332 331 331 330
319 321 324 325 324 324 324 326 327 327 327 327 328 328 328 328 329 329 329 329 331 330 330 330 329 328 327 327 328 330 334 335 336 334 329 324 328 327 324 330 333 338 332 335 334 332 331 330 330
317 317 319 319 320 321 324 324 325 326 326 326 328 328 329 329 329 329 329 329 329 330 330 329 329 328 328 327 328 331 334 335 336 336 337 338 337 331 334 335 334 331 333 335 333 332 332 330 330
318 319 319 320 321 322 322 324 325 327 327 327 327 327 328 328 328 329 329 328 328 328 329 328 329 329 328 327 328 333 335 336 336 338 339 340 339 338 337 335 333 331 333 335 334 334 332 331 331
315 321 322 322 322 322 322 324 324 326 326 326 327 327 327 328 328 328 329 329 329 328 327 328 329 329 329 328 331 333 335 337 338 340 341 341 340 338 335 334 332 332 331 334 334 332 332 331 330
317 318 321 322 323 323 323 323 323 324 324 325 325 325 326 326 327 328 329 329 328 327 327 327 329 329 329 330 333 336 339 340 341 342 342 340 336 334 332 333 333 333 331 331 332 331 330 330 328
317 319 321 322 322 323 323 323 323 323 324 323 324 325 325 327 328 328 329 329 327 328 327 327 329 330 329 331 336 339 342 342 342 339 337 335 335 333 333 333 334 332 332 332 330 329 330 328 329
313 314 316 316 317 320 322 323 323 323 323 324 324 325 325 326 327 327 329 327 327 328 329 329 330 331 331 334 337 340 342 342 342 340 338 337 333 333 332 333 334 334 331 329 329 329 329 329 328
313 313 315 316 316 316 316 316 317 318 319 320 321 323 325 327 327 328 328 329 328 328 328 330 331 332 334 338 341 342 341 340 340 341 338 334 333 332 333 334 332 331 327 329 329 329 328 328 327
313 314 314 314 314 315 316 316 317 318 319 319 320 321 323 324 324 325 327 328 327 328 331 332 332 333 338 342 342 341 339 340 337 333 333 333 332 333 334 334 332 329 329 329 328 327 327 326 325
311 314 315 315 315 314 315 314 316 317 319 318 319 322 323 324 326 326 328 328 328 330 332 333 333 337 339 340 339 337 334 334 335 335 334 334 334 334 333 331 330 329 329 327 327 326 324 325 325
309 313 313 314 313 315 315 315 317 316 317 317 320 323 324 324 324 326 327 328 331 334 334 333 333 337 339 338 337 335 337 336 334 334 333 332 332 331 331 328 328 329 327 326 325 326 327 325 325
307 307 310 312 315 316 315 315 317 317 318 317 317 320 322 324 325 327 327 331 334 335 335 334 336 338 337 335 336 335 335 333 334 333 332 331 332 329 328 328 329 327 326 326 325 326 325 325 324
305 306 310 313 315 316 316 317 317 316 317 318 319 320 322 324 324 328 331 334 336 336 335 335 336 337 337 335 335 334 334 334 333 332 331 330 330 328 327 327 326 325 325 324 324 324 325 325 325
309 306 307 310 312 313 316 316 318 318 318 318 318 320 323 324 327 334 336 337 337 337 336 334 335 337 337 335 334 334 333 333 328 328 330 329 328 326 326 325 326 324 324 325 325 325 326 325 326
310 311 309 308 313 314 315 317 318 317 318 317 318 318 322 332 336 337 338 338 338 337 335 333 336 336 335 335 333 329 325 329 331 330 330 329 327 325 325 326 325 325 325 326 326 325 326 326 326
312 312 310 308 310 314 315 316 316 317 317 318 321 321 331 337 337 338 338 338 337 336 333 335 335 333 333 331 327 328 330 330 330 331 329 328 329 327 326 326 324 327 327 326 326 325 326 324 327
312 313 312 309 309 312 315 315 316 315 316 318 320 333 336 337 338 338 338 337 338 335 335 334 333 333 332 329 330 330 328 329 330 330 329 328 327 327 325 325 326 327 327 327 324 325 325 324 325

GFSSGP_850_thetae_045.txt.gz
Theta_e
321 318 312 325 323 324 325 325 329 330 332 336 334 331 329 331 334 331 330 329 328 325 324 324 322 322 320 318 319 319 319 319 319 319 319 318 318 317 317 315 315 316 317 317 316 314 313 311 310
321 312 322 328 325 330 323 325 325 328 334 336 335 333 333 335 336 332 329 330 327 325 325 325 323 322 321 320 320 320 320 320 319 319 319 320 320 320 319 317 316 316 319 320 320 321 321 319 314
320 317 325 325 326 324 324 327 334 334 336 336 335 334 333 335 335 333 331 329 326 326 325 324 324 323 322 320 320 320 320 320 319 320 320 320 321 321 321 319 318 316 318 321 323 323 322 324 324
312 323 325 325 328 327 326 329 330 330 333 336 336 331 333 335 335 334 333 331 330 328 325 324 324 323 323 321 320 320 320 320 319 320 320 321 321 322 322 322 321 318 317 322 323 323 323 325 326
320 327 322 324 325 327 328 328 328 330 334 335 334 331 332 334 335 333 330 330 330 331 327 325 324 324 323 322 320 320 320 320 319 320 320 321 321 322 322 322 322 321 319 322 324 322 321 328 325
325 323 323 324 324 326 326 328 327 333 335 335 334 331 333 336 334 332 330 332 331 331 330 330 325 323 323 322 321 320 320 320 320 320 320 321 321 321 322 322 322 322 322 324 325 324 322 320 319
323 320 323 324 325 326 326 328 328 328 330 333 332 330 331 332 333 332 332 333 332 333 332 331 329 324 322 322 322 321 320 320 319 320 320 320 321 321 321 321 322 322 323 326 327 327 327 326 322
324 323 327 322 324 325 326 328 328 329 330 331 332 330 330 332 332 332 333 333 333 333 333 333 332 331 327 323 322 321 320 320 319 319 320 320 320 320 320 321 321 321 325 326 328 329 329 328 328
330 325 325 324 324 325 324 323 326 327 329 329 331 332 331 332 332 332 334 334 334 334 334 334 334 333 333 329 324 322 321 320 319 319 319 319 320 320 320 321 321 322 326 327 329 331 330 330 328
328 326 326 324 324 324 327 326 325 327 327 328 329 331 331 331 332 332 333 334 333 333 333 334 334 334 334 333 329 326 323 321 321 319 319 319 319 320 320 321 322 323 327 328 330 332 332 330 329
330 331 327 327 328 329 327 327 327 326 326 328 329 330 331 330 330 331 332 333 332 332 332 332 333 334 334 334 334 332 330 324 322 321 320 319 319 320 320 321 322 323 328 328 330 332 332 330 329
327 330 330 329 328 332 331 331 329 328 327 328 328 329 330 329 329 329 331 329 330 331 329 329 329 330 331 334 334 334 333 330 325 323 321 320 319 319 320 320 321 323 328 329 329 332 333 331 329
321 325 328 331 331 331 329 328 328 328 329 328 328 328 327 327 328 328 328 328 329 329 330 331 330 329 329 331 332 332 333 332 331 326 324 322 321 319 319 319 320 322 329 332 330 332 333 332 330
317 320 323 325 324 324 325 324 324 325 325 327 326 325 326 326 328 328 328 328 329 329 329 330 330 330 328 328 328 328 330 330 332 331 329 325 322 321 321 320 321 323 333 334 332 332 332 331 331
315 315 316 316 318 318 321 322 323 324 325 324 325 326 326 327 327 328 327 328 328 328 329 328 328 329 328 328 328 328 328 330 332 333 334 332 327 323 323 323 323 328 334 335 333 332 331 329 331
317 317 318 319 318 319 320 323 323 325 325 325 326 326 326 327 327 327 327 327 328 328 328 328 328 329 328 328 328 328 328 330 333 334 335 335 332 332 335 333 328 335 333 332 333 332 330 332 332
313 319 319 320 320 321 321 323 323 324 324 324 325 325 326 326 327 327 326 326 327 328 328 328 328 328 328 328 328 328 330 332 334 336 338 337 337 339 337 335 337 336 332 332 332 334 331 332 331
316 316 318 320 321 321 322 322 321 322 323 322 323 323 324 324 325 326 326 327 327 328 328 328 328 328 329 329 328 329 332 334 336 338 339 339 340 340 339 336 337 335 333 332 331 331 332 330 329
314 317 318 319 320 322 322 322 322 322 321 321 322 322 323 324 325 325 325 326 327 327 328 328 327 328 329 329 329 332 332 335 338 340 340 341 342 341 336 335 333 333 334 331 331 332 330 329 329
311 312 313 315 316 316 317 320 318 319 320 322 322 322 323 324 324 324 324 326 327 327 328 327 328 328 329 330 331 333 334 338 341 341 341 341 340 337 334 333 332 333 333 332 330 328 328 328 328
311 312 313 314 314 314 314 316 316 315 315 317 318 320 321 322 321 323 323 324 324 324 327 328 328 328 329 331 334 337 341 342 341 341 339 336 335 334 332 332 333 333 331 331 328 328 328 328 328
309 311 313 313 313 314 315 316 314 315 315 315 316 317 318 320 321 322 322 323 324 325 327 329 329 330 332 334 337 339 341 342 341 340 339 337 335 333 332 333 333 332 331 329 329 329 328 327 327
308 309 310 312 313 312 313 312 314 314 315 315 315 316 318 319 320 321 321 324 325 326 329 331 332 333 334 337 339 342 342 341 340 339 334 333 333 332 333 334 333 329 328 329 328 327 326 326 325
308 308 310 310 311 312 313 313 313 313 314 314 314 316 318 319 320 322 323 322 325 328 331 333 334 334 337 341 341 340 337 336 334 333 334 333 334 334 334 332 330 328 328 327 325 325 325 325 325
306 304 308 310 311 314 313 313 314 314 315 315 313 315 317 318 319 320 321 323 325 329 333 335 334 335 338 339 337 335 334 334 333 333 333 333 332 331 331 329 328 328 327 325 325 325 325 325 325
303 304 307 312 314 312 314 315 315 315 315 316 316 316 318 318 320 320 320 325 327 333 335 335 335 336 338 337 336 335 336 335 333 333 332 331 331 329 329 327 327 326 325 325 325 325 325 324 324
308 305 305 306 308 310 313 314 315 315 315 315 314 316 317 318 319 320 323 328 332 336 336 335 337 337 335 336 335 335 334 333 332 332 331 329 329 328 326 326 324 324 323 323 323 324 324 325 325
307 309 305 304 309 312 312 313 316 315 315 315 314 314 318 321 320 321 328 333 336 337 336 337 337 335 335 335 334 333 333 332 330 329 329 329 328 326 325 324 325 323 325 326 325 326 326 326 325
308 311 311 305 306 311 312 313 312 314 315 315 314 316 320 323 326 330 334 336 337 337 336 336 337 337 336 335 334 331 327 327 329 329 330 328 326 326 325 325 323 325 325 326 326 325 326 324 326
308 311 310 310 309 309 311 312 313 314 312 313 313 317 327 331 333 336 337 338 337 336 335 336 336 335 335 333 325 326 329 329 329 330 328 327 328 325 325 324 324 327 327 327 326 326 325 323 326

GFSSGP_850_thetae_048.txt.gz
Theta_e
321 321 312 324 319 321 322 320 326 326 329 333 332 332 334 334 333 332 330 329 327 326 325 323 323 323 322 321 320 318 318 318 318 318 318 318 318 317 317 316 316 316 316 316 316 315 314 312 311
322 315 316 326 319 325 319 322 325 324 329 336 333 330 332 332 334 331 329 328 327 326 325 325 324 324 323 321 320 319 319 319 319 319 319 319 319 319 318 318 317 316 317 318 320 321 321 320 318
321 311 324 324 322 322 319 324 326 330 330 331 334 332 333 334 334 331 329 328 327 325 325 326 325 325 324 321 320 320 319 319 319 319 319 320 320 321 321 320 319 317 317 319 321 322 322 323 324
317 320 323 323 327 325 321 326 327 327 329 334 334 330 332 335 333 330 329 327 326 325 326 325 326 325 324 323 320 320 319 319 319 319 319 320 320 321 322 322 321 319 317 319 321 322 322 322 323
314 325 321 323 324 324 325 327 327 326 329 333 333 331 331 335 332 330 329 328 328 327 327 326 325 324 324 323 321 321 320 319 319 319 319 320 320 321 322 322 322 322 320 320 322 322 322 321 321
322 323 322 322 323 324 323 326 326 327 329 333 332 330 332 335 334 330 330 330 330 330 330 328 327 325 323 323 321 321 321 320 319 319 319 320 320 321 321 322 322 322 322 322 325 324 323 322 320
321 319 323 323 324 324 324 326 325 327 327 331 333 329 332 334 333 333 331 332 332 331 331 330 327 327 324 323 322 321 321 320 320 319 319 320 320 320 321 321 321 321 322 323 324 326 326 327 325
322 322 325 322 324 324 324 325 327 328 328 329 330 329 330 331 332 332 332 332 332 332 332 332 331 329 326 324 323 322 321 320 320 319 319 319 320 320 321 321 321 321 321 324 324 327 327 328 328
327 321 321 324 323 323 323 324 326 326 328 328 330 330 331 331 332 332 332 332 333 332 332 332 333 331 328 325 323 323 322 320 319 319 319 319 319 320 320 320 320 321 321 325 325 328 329 329 328
326 322 321 322 323 322 325 326 326 325 325 326 328 330 330 331 330 332 332 332 333 332 332 332 333 333 331 330 329 325 323 322 321 320 318 318 318 319 319 320 320 321 322 325 327 328 331 330 328
328 329 325 324 324 324 326 327 328 326 326 326 328 328 328 329 330 330 330 331 332 332 333 332 332 332 333 333 333 330 326 324 323 321 320 318 318 318 319 319 320 321 322 323 328 328 331 332 329
328 328 328 326 326 329 329 328 328 329 328 329 329 328 328 328 329 327 327 328 331 332 330 330 331 331 332 333 333 333 331 329 326 323 321 320 319 318 318 319 319 320 322 323 329 329 331 332 331
325 325 328 329 330 330 330 329 329 329 329 328 327 326 325 326 328 327 327 327 330 327 328 328 329 329 329 329 331 332 333 333 332 328 324 322 321 319 318 318 319 320 321 322 330 331 330 332 332
317 322 325 324 324 325 324 325 325 326 327 325 325 325 325 326 326 326 326 327 327 327 327 327 328 328 329 329 329 329 330 331 333 332 330 325 322 321 319 319 318 319 320 321 332 333 331 332 331
314 315 314 315 317 318 322 323 324 325 325 324 324 325 325 326 326 326 327 326 327 327 326 326 327 327 327 328 328 328 328 330 331 331 331 331 329 323 321 320 320 319 320 323 335 335 332 332 331
315 314 317 318 315 317 321 323 323 325 324 324 325 325 325 326 326 326 326 326 326 325 326 326 327 327 327 328 328 328 328 328 329 329 330 332 333 332 325 323 323 322 322 326 334 332 333 332 330
312 317 316 317 318 319 319 322 322 324 323 323 324 324 324 324 325 326 326 326 325 325 325 326 327 327 328 328 328 328 328 328 329 330 331 333 335 335 332 328 326 328 327 335 333 332 332 333 329
313 315 316 317 318 318 319 320 320 322 322 321 322 322 323 323 324 325 325 325 325 325 326 326 326 326 328 328 328 327 327 328 329 330 334 337 338 336 335 337 336 334 336 336 332 331 331 332 332
313 314 316 317 317 320 319 320 320 320 321 320 321 322 322 323 324 324 324 324 325 324 325 327 327 328 328 328 327 328 328 328 330 333 337 339 338 338 339 339 336 335 334 333 333 331 331 330 329
311 311 312 313 314 315 315 314 313 315 316 319 320 321 321 322 322 323 323 324 324 323 324 323 324 328 328 327 328 328 328 329 333 337 339 339 340 341 341 337 334 333 332 333 333 330 328 327 328
309 310 312 313 313 313 313 315 315 315 314 316 316 317 317 318 318 319 321 322 323 324 323 323 324 326 327 327 328 329 331 334 337 339 340 341 341 341 338 334 332 332 332 332 329 329 328 328 328
308 310 312 312 313 313 313 316 314 314 314 314 314 315 315 315 317 320 321 322 322 321 322 323 325 326 328 328 330 332 333 335 337 340 341 340 337 335 334 332 332 333 333 331 330 329 329 328 328
307 309 310 311 311 311 312 311 312 312 312 313 313 314 314 315 316 317 317 318 320 320 321 324 326 328 330 330 334 335 337 339 340 340 338 337 336 333 332 332 331 333 331 329 328 328 328 326 327
308 307 307 309 309 311 310 311 313 312 312 312 312 313 314 315 316 317 317 319 320 322 322 327 330 332 333 335 337 339 341 341 340 339 338 333 332 332 332 333 333 333 330 328 328 326 326 326 324
305 304 307 309 310 310 311 311 312 312 312 312 313 314 315 316 317 317 318 319 320 321 324 330 333 334 336 337 340 342 341 340 339 336 332 332 332 333 333 332 331 329 328 328 325 325 325 325 325
302 302 307 311 312 309 311 313 313 312 313 313 314 315 315 316 317 317 319 319 320 322 328 333 336 336 338 339 340 338 336 334 333 332 332 333 332 331 331 329 328 327 327 325 324 325 325 325 325
306 303 303 304 306 306 310 311 312 312 313 313 313 314 316 317 319 321 321 320 320 325 331 336 337 337 338 337 334 333 334 334 333 332 332 332 331 329 328 327 326 324 324 323 322 323 323 323 324
306 305 305 301 307 310 310 311 313 312 312 312 313 312 315 317 321 324 322 320 324 330 336 337 336 335 336 335 334 334 334 333 332 332 331 330 329 328 327 325 324 324 322 323 324 325 325 325 325
307 306 308 303 304 309 311 310 309 312 312 313 311 312 315 323 328 327 325 327 331 335 336 336 337 336 335 335 334 333 332 332 331 328 328 329 328 325 324 324 324 323 324 325 326 325 326 326 325
306 308 309 309 309 306 307 307 309 310 309 309 310 314 317 327 332 332 335 334 336 337 337 337 337 335 334 334 333 332 329 326 326 328 329 328 326 326 324 324 322 325 325 326 325 325 325 323 327

GFSSGP_850_thetae_051.txt.gz
Theta_e
319 320 312 323 323 325 322 321 322 330 332 331 332 337 339 337 335 337 331 329 327 327 326 324 323 323 321 319 319 318 318 318 318 317 317 317 318 317 317 316 315 315 316 316 316 315 315 314 313
321 319 317 325 322 321 321 322 324 327 326 329 334 331 336 339 336 332 330 328 327 327 326 325 324 324 323 320 320 319 319 319 319 318 318 318 319 319 319 318 317 316 317 318 319 320 320 320 320
322 313 322 326 321 321 321 323 323 329 330 331 335 332 333 335 337 331 329 328 328 327 326 326 325 325 324 322 321 321 319 319 319 318 318 319 320 320 320 320 319 317 317 319 320 321 322 323 323
319 316 322 325 324 322 322 327 330 329 329 331 334 335 332 334 335 330 328 328 328 327 326 326 325 325 324 323 322 321 320 319 319 318 319 319 320 321 321 321 321 319 318 319 320 321 321 322 323
315 322 321 324 322 324 326 324 325 328 329 332 334 334 332 334 334 329 328 328 327 327 326 326 325 325 324 324 323 321 320 319 319 319 319 319 320 321 321 322 322 322 321 319 320 322 322 321 322
319 324 323 319 321 322 324 325 326 327 328 330 334 332 333 335 330 329 328 328 328 327 327 327 326 325 324 324 323 322 320 320 318 318 318 319 320 320 321 322 322 322 322 321 321 321 322 323 322
322 325 321 323 322 321 322 323 324 326 329 331 332 333 332 334 332 330 329 330 329 328 329 328 327 326 325 324 323 322 320 319 318 318 318 319 319 320 321 321 322 322 322 322 322 322 322 324 325
319 325 322 322 321 322 325 325 326 328 329 329 330 333 333 334 334 333 330 331 332 332 331 330 329 327 326 325 323 322 322 320 318 318 318 318 319 320 320 321 321 321 321 322 323 322 323 325 326
323 322 322 321 323 321 324 325 326 326 326 327 329 330 328 330 333 333 334 332 333 333 332 332 332 330 329 327 326 323 322 321 319 317 317 317 318 319 320 320 321 321 321 321 323 324 325 327 327
327 326 324 321 322 323 323 326 326 326 327 328 328 329 329 328 329 332 332 332 332 332 332 332 332 332 332 330 328 325 323 322 321 318 317 317 317 318 319 320 320 320 320 321 323 326 327 329 330
327 329 325 323 322 323 323 324 325 326 327 328 328 328 329 328 329 330 330 330 331 332 332 332 332 332 333 333 332 331 327 324 323 321 319 317 317 317 318 319 319 320 320 321 323 327 329 333 332
324 326 327 326 324 324 324 324 325 326 326 327 328 328 329 328 327 327 329 327 327 328 331 332 330 329 331 333 333 333 331 331 328 324 321 319 317 317 317 318 318 319 320 321 322 327 331 330 331
323 323 325 326 327 326 326 327 327 328 327 328 329 328 327 326 326 325 327 327 326 328 330 328 327 327 328 328 329 331 330 332 332 330 326 322 320 318 317 318 318 318 319 320 322 325 332 331 331
322 323 322 323 328 329 329 329 329 329 328 327 327 327 327 326 325 325 326 327 326 327 327 326 326 326 326 327 327 327 328 329 331 332 332 329 323 321 319 318 318 318 318 319 321 322 332 333 331
318 320 320 325 324 326 325 328 328 326 325 325 326 326 326 326 325 325 326 326 326 326 326 326 325 325 325 326 327 327 327 327 328 330 331 332 331 328 325 320 318 318 318 319 320 320 333 334 333
316 317 320 321 319 322 323 327 327 326 325 325 325 326 325 325 325 325 325 326 325 325 325 325 325 325 325 326 327 327 327 327 328 329 330 331 333 331 331 330 323 319 318 319 319 321 333 335 333
316 319 319 320 320 320 321 325 325 324 323 325 325 325 325 325 325 325 325 325 324 324 325 325 324 325 326 326 326 327 327 328 328 328 329 330 333 334 335 334 329 322 320 321 322 325 332 331 331
316 317 318 320 320 320 321 323 324 323 323 324 324 324 324 324 324 324 324 324 324 324 324 324 324 324 326 326 326 328 328 328 328 329 330 331 333 335 337 335 331 327 325 329 325 333 331 331 331
315 316 317 318 319 320 321 323 323 322 322 322 323 323 324 323 323 323 323 322 323 323 324 324 324 323 323 327 328 328 328 328 328 329 330 332 335 338 337 333 332 335 333 335 335 332 332 329 328
314 315 317 317 317 319 321 322 322 320 321 322 323 323 323 323 322 322 322 322 323 323 323 323 324 322 323 324 327 327 328 327 328 330 333 335 338 338 338 338 338 334 334 335 334 333 332 330 329
313 314 315 317 316 317 317 320 320 320 319 319 319 319 319 319 320 319 320 321 322 322 323 322 321 321 322 325 327 327 327 328 329 332 334 338 339 339 340 340 336 334 333 332 332 332 329 329 328
313 313 314 314 316 319 317 320 321 321 320 320 319 318 319 318 317 318 319 319 319 321 321 319 320 321 322 325 326 326 328 329 331 334 338 340 341 341 341 338 335 334 332 332 332 331 330 329 329
311 312 314 314 315 316 316 316 318 318 318 318 320 318 317 317 317 317 316 316 316 317 318 320 320 322 323 327 328 329 332 334 336 339 340 340 340 338 336 334 332 332 332 333 331 329 329 329 328
311 310 311 312 313 315 316 316 317 318 318 318 318 316 316 316 316 316 315 316 316 317 319 321 321 325 328 330 331 334 335 336 339 340 340 338 337 335 333 332 332 332 333 333 329 328 328 326 326
308 311 312 313 313 314 314 315 316 317 316 315 317 316 316 317 317 316 317 317 318 317 318 320 324 329 332 334 336 337 338 339 340 339 339 337 333 332 332 332 333 333 332 329 328 326 324 325 324
308 310 311 311 313 313 312 314 315 316 316 316 315 316 316 317 318 319 320 321 319 318 320 323 328 333 336 338 339 340 341 340 339 338 332 331 332 332 332 331 331 330 328 327 325 325 325 325 326
307 308 309 309 311 312 313 313 314 314 315 316 316 317 318 319 321 326 325 323 322 320 321 327 333 337 338 339 340 340 339 337 333 332 332 332 332 331 330 329 329 327 326 324 324 324 325 325 325
309 309 308 309 310 310 313 313 314 317 317 316 316 316 317 323 328 332 329 323 321 321 326 334 337 338 338 339 338 335 334 333 332 331 331 331 330 329 328 327 326 324 324 323 323 323 323 323 324
309 309 309 310 310 312 313 314 316 317 317 316 316 315 316 321 329 333 332 327 326 329 333 338 339 338 338 336 334 334 334 333 332 332 331 329 328 328 327 325 324 323 323 324 325 325 326 326 326
310 309 310 311 310 310 311 312 316 314 314 315 315 315 315 319 328 333 334 338 334 337 338 339 339 337 335 334 333 333 332 331 331 329 327 328 328 325 324 325 323 324 325 326 325 325 325 324 326

GFSSGP_850_thetae_054.txt.gz
Theta_e
314 319 318 323 327 325 325 325 326 334 335 333 335 339 340 339 340 340 335 332 334 328 327 326 324 322 319 318 318 318 318 318 318 318 316 316 316 317 316 315 315 315 315 316 316 316 316 314 313
323 322 322 324 325 326 325 326 327 331 333 333 334 337 338 341 338 336 332 328 327 327 327 326 324 323 321 318 318 318 319 319 319 319 318 317 317 317 317 317 317 316 316 317 319 320 321 321 320
325 320 322 324 325 325 326 326 329 329 333 334 336 336 336 340 339 335 333 327 327 327 327 326 325 324 322 320 320 319 319 319 319 319 318 318 318 317 317 318 318 317 317 318 319 320 321 322 322
321 320 321 325 325 324 325 328 328 333 334 335 335 337 334 336 339 336 329 327 327 327 326 326 324 324 324 321 320 320 319 319 319 318 318 318 318 318 319 320 320 319 318 318 319 320 321 321 322
322 321 322 323 323 324 325 324 326 331 332 334 337 338 336 336 336 333 328 327 328 327 327 326 325 324 324 323 320 319 319 319 318 318 318 318 319 319 320 321 321 321 320 319 320 320 321 321 322
323 323 324 322 323 324 325 324 326 329 330 333 336 337 337 337 336 331 327 328 328 327 327 326 325 324 323 323 321 320 319 319 319 318 317 318 318 319 320 321 321 322 321 321 321 321 321 322 322
325 323 323 323 323 323 324 324 325 327 331 334 335 337 337 336 336 337 328 328 328 327 327 327 326 325 323 322 322 322 320 319 319 318 317 317 317 319 320 321 321 322 322 322 322 322 322 322 323
324 325 324 322 322 324 324 323 323 325 330 332 333 337 337 336 339 334 333 336 329 328 327 328 327 326 325 324 323 322 321 320 319 318 317 316 317 318 319 320 321 321 321 322 322 323 323 323 323
324 326 326 325 322 321 322 324 325 327 330 331 331 333 331 335 339 338 337 336 336 336 329 329 329 328 327 325 324 323 322 321 319 317 317 316 316 316 318 320 321 321 321 321 322 323 324 325 326
327 328 327 325 324 323 322 324 324 329 330 331 331 331 331 332 337 338 338 336 336 337 337 333 332 332 330 329 327 326 323 322 321 319 317 317 316 321 320 320 320 321 321 321 321 323 326 326 336
328 330 328 327 324 322 322 323 323 327 330 331 332 332 332 332 332 333 333 335 336 337 338 341 333 333 333 333 332 331 329 327 324 321 320 318 320 327 329 330 321 320 320 321 322 322 327 337 337
327 328 328 328 327 325 324 323 324 323 325 329 329 331 330 331 332 332 332 332 332 332 334 337 333 332 329 329 329 331 332 333 334 334 325 320 325 331 333 331 333 329 330 325 333 335 337 338 337
324 325 326 327 327 327 326 326 326 325 325 325 327 328 329 330 330 331 330 330 331 331 331 331 331 327 326 326 326 327 328 331 337 338 336 327 332 333 334 332 331 332 332 332 334 334 336 337 337
321 322 324 324 325 327 327 328 328 328 327 328 328 329 329 329 329 330 330 329 330 331 329 333 328 326 325 325 325 325 327 329 334 340 339 333 335 335 334 333 332 331 332 331 333 334 335 336 336
317 321 323 325 325 325 327 329 330 328 329 330 329 328 328 328 328 329 329 329 330 331 329 327 326 325 325 325 325 325 326 326 331 337 337 337 334 336 335 335 334 332 331 332 332 333 334 335 336
317 318 320 323 324 325 325 330 329 328 328 329 328 328 328 328 328 329 329 329 331 327 328 325 325 325 325 324 325 326 325 326 327 334 339 335 333 334 337 337 335 334 332 333 332 331 331 331 334
318 318 320 321 323 324 326 328 328 327 328 329 328 328 328 328 328 329 329 329 329 325 324 325 325 325 325 323 325 325 326 326 327 334 340 335 331 333 335 338 337 336 334 333 331 331 329 332 335
316 318 318 321 322 323 323 326 327 327 327 327 328 327 328 328 329 328 328 328 328 327 324 324 324 324 324 323 323 325 326 327 328 336 340 332 330 333 334 339 339 336 336 332 331 330 331 334 336
314 317 318 319 321 323 324 324 325 325 326 327 327 327 328 327 327 327 327 327 327 324 322 322 323 323 323 323 323 325 328 330 337 341 337 331 332 334 335 341 337 333 332 330 327 335 335 336 333
313 315 318 319 319 321 323 324 324 325 326 326 326 326 326 326 326 327 327 326 327 324 322 322 321 322 322 321 322 326 334 342 343 342 332 330 333 336 338 340 337 336 337 334 334 336 337 335 332
312 315 317 318 319 320 321 323 324 324 324 324 324 324 324 324 324 324 324 324 325 327 324 323 322 321 320 319 322 324 329 332 340 341 333 333 336 339 338 338 341 334 336 337 336 335 335 334 332
310 312 315 317 319 322 321 323 324 324 324 325 324 323 323 323 323 323 322 323 324 325 325 325 319 320 319 320 322 325 336 341 342 342 343 336 339 339 339 340 339 334 337 337 336 335 333 333 332
310 311 314 316 318 320 321 322 322 323 324 324 325 323 322 322 321 321 321 321 322 322 323 324 319 318 319 321 324 328 336 343 344 344 340 343 340 340 341 340 338 336 338 335 332 334 331 332 332
311 311 314 316 317 319 319 321 321 322 322 323 323 321 320 320 320 320 320 321 320 321 321 324 319 320 321 323 327 331 343 344 345 345 345 345 343 342 340 339 336 336 337 332 333 332 330 329 332
311 311 316 318 319 319 318 319 320 321 320 321 322 319 319 320 320 321 321 322 323 323 323 328 323 322 325 330 332 337 337 339 343 342 345 344 342 341 336 337 335 336 333 333 333 332 332 330 331
312 312 314 316 316 317 317 318 319 320 320 319 319 319 320 323 323 325 327 328 327 324 327 332 338 340 341 340 339 341 339 344 345 343 342 340 337 337 333 336 337 335 334 334 331 332 331 331 330
309 310 312 313 314 316 317 317 318 319 319 320 319 319 321 324 328 331 334 335 331 325 332 338 343 345 346 344 341 341 344 343 342 342 339 338 338 338 336 337 335 334 334 331 331 331 330 330 328
310 311 311 313 314 315 316 317 318 319 318 319 319 320 320 322 326 332 337 336 333 332 338 343 345 346 346 344 344 343 342 341 337 333 338 338 337 336 334 334 334 333 331 331 328 331 331 331 330
310 310 311 312 312 314 315 317 318 320 320 320 320 319 319 319 323 331 337 335 338 339 342 345 345 345 345 344 343 341 339 337 335 335 335 334 330 332 334 334 332 331 330 330 330 332 331 331 330
311 313 313 311 313 313 316 319 319 320 320 320 319 319 318 318 320 330 337 336 340 341 343 345 344 344 343 341 339 339 338 338 337 337 336 331 334 334 333 331 331 330 331 332 332 332 331 331 331

GFSSGP_850_thetae_057.txt.gz
Theta_e
314 322 325 324 328 327 328 328 329 330 330 333 335 338 339 338 341 344 340 336 335 337 327 326 325 323 322 321 319 318 319 319 318 317 317 316 315 315 314 314 314 314 315 316 317 317 318 318 317
316 322 323 325 327 329 328 329 328 330 335 336 337 338 341 341 340 339 340 337 336 333 327 327 325 324 322 320 319 318 318 318 318 317 317 316 315 315 315 315 315 315 316 317 318 319 320 321 321
327 325 323 325 328 328 329 330 329 332 334 335 337 338 339 341 340 337 337 336 337 330 327 327 326 324 322 320 319 318 317 317 317 318 318 317 317 317 316 316 316 316 316 317 319 320 321 321 322
325 321 323 327 326 328 328 329 330 333 333 336 337 339 337 339 340 338 334 335 337 338 327 327 326 325 323 320 319 318 318 317 317 318 318 318 318 318 318 318 318 318 317 318 319 320 320 321 321
324 323 324 325 326 327 328 328 331 332 336 337 338 339 337 337 340 338 335 335 337 337 336 327 325 325 323 321 319 318 318 318 317 317 317 318 318 318 318 319 319 319 319 319 320 320 320 321 321
325 323 325 325 325 327 327 327 327 329 334 336 337 338 339 338 338 338 335 335 336 337 340 332 325 324 324 323 320 319 318 317 317 317 317 317 317 318 319 319 320 321 321 321 321 321 321 321 321
327 327 324 325 327 327 327 326 327 329 333 335 336 339 339 339 339 337 334 334 335 337 340 336 326 325 324 323 322 321 319 319 317 317 317 316 317 318 319 320 321 321 321 322 322 322 322 322 322
327 328 326 325 324 326 327 326 325 327 332 333 335 338 339 338 338 337 335 335 335 337 339 341 329 326 324 324 322 321 320 319 318 317 316 316 316 317 318 319 320 321 321 322 322 323 323 323 323
327 330 330 327 326 324 323 324 325 326 329 332 334 336 336 339 339 337 335 336 336 337 338 341 343 335 327 324 324 323 321 319 318 317 316 315 315 316 316 318 319 320 321 321 322 323 324 324 324
329 330 330 329 327 327 325 324 324 326 329 332 334 334 334 338 337 336 335 336 336 336 337 339 342 343 343 340 336 329 326 323 321 319 318 316 315 316 318 319 319 320 321 321 321 322 324 325 332
329 330 330 329 328 327 326 325 325 325 328 331 333 333 334 335 337 336 337 336 336 336 337 338 342 343 343 343 340 338 334 332 328 324 321 320 319 321 330 331 328 322 320 321 321 321 322 333 338
327 329 329 329 329 328 327 325 325 325 325 329 333 334 334 334 334 335 336 336 337 338 338 339 343 342 335 339 340 341 341 343 342 341 338 330 328 329 330 333 334 334 333 326 334 335 336 338 339
324 325 326 328 328 329 329 328 328 326 325 325 330 332 333 333 334 334 334 334 334 335 334 335 337 341 333 327 328 331 338 341 342 343 343 341 338 335 334 334 335 335 337 335 335 334 336 338 338
320 322 323 325 326 327 329 329 328 329 327 326 325 327 330 331 332 333 334 334 333 333 334 335 338 341 327 326 325 325 326 338 343 342 344 343 341 339 339 337 337 334 335 336 335 336 336 337 337
318 319 321 323 323 325 327 329 330 329 328 329 327 328 329 330 332 332 333 333 333 333 333 336 338 338 333 326 325 325 325 341 342 343 342 343 341 342 340 340 339 336 334 334 334 334 336 336 336
317 320 319 320 323 324 326 328 328 327 329 329 329 330 330 331 331 331 331 332 332 333 333 335 334 332 334 328 325 324 329 339 343 343 343 342 343 341 341 341 339 338 337 335 334 335 335 335 335
313 316 320 320 321 323 324 328 328 326 328 330 330 330 330 330 330 330 331 331 332 334 335 333 333 330 332 327 325 325 324 334 342 343 342 343 344 345 343 342 341 339 338 336 336 336 335 334 332
313 314 316 319 321 321 323 325 327 327 327 328 329 330 330 329 329 330 330 331 332 333 332 330 326 326 325 324 324 324 329 338 342 342 343 344 345 344 342 343 343 341 340 338 337 336 335 333 332
314 313 314 317 320 321 322 323 325 327 327 328 328 329 330 330 330 329 330 331 331 331 331 330 327 323 323 323 325 333 339 342 344 343 344 346 345 344 342 344 344 343 341 340 337 335 334 333 339
313 313 314 314 316 320 321 322 325 325 326 326 327 329 329 329 330 330 330 330 330 330 330 330 329 331 324 323 324 334 339 342 345 345 346 346 345 343 343 343 345 342 342 339 337 335 337 338 337
314 313 313 314 315 318 321 322 323 324 325 325 325 327 328 328 329 329 329 329 329 328 328 329 330 327 323 322 328 335 339 345 347 347 348 346 346 345 341 341 345 341 342 342 339 339 339 338 337
313 313 312 312 315 318 320 322 323 324 325 326 325 326 326 327 328 328 328 327 327 327 328 328 329 327 321 321 323 334 342 346 346 346 347 347 346 344 342 345 344 343 342 340 340 339 338 336 336
312 313 312 312 313 317 319 322 323 323 325 325 326 325 326 326 326 326 326 327 326 326 325 326 326 327 321 324 321 337 341 344 346 346 347 346 347 346 345 345 344 343 339 342 340 338 337 336 335
311 311 312 312 313 316 318 321 323 324 324 325 325 325 325 325 325 325 325 324 324 324 324 325 326 325 324 320 320 327 342 344 347 347 349 348 346 346 345 346 342 342 341 340 338 337 335 335 334
311 312 313 313 314 316 318 321 323 324 324 324 325 324 324 324 323 323 323 323 323 324 325 324 324 328 337 339 327 336 342 347 347 349 348 347 345 346 344 344 343 342 339 339 337 334 333 332 334
311 313 315 317 315 316 318 321 322 322 323 321 322 323 323 322 322 323 324 325 325 326 327 326 327 339 346 344 344 347 350 349 350 349 348 347 345 344 342 343 341 338 339 338 335 334 334 333 331
312 312 314 316 315 318 318 319 320 321 321 322 323 321 323 325 327 329 331 332 334 332 328 328 331 342 347 348 349 350 350 349 348 347 343 343 340 342 341 339 338 339 337 335 335 334 333 333 332
314 311 314 313 314 316 317 318 321 321 322 322 323 322 322 323 325 329 335 338 338 333 330 335 339 346 348 350 350 350 349 348 347 345 342 340 339 339 338 337 338 337 336 335 332 333 332 331 332
313 313 313 314 314 316 318 320 321 321 321 322 322 322 322 322 323 331 338 339 339 334 337 342 346 348 349 348 348 348 347 346 344 341 341 341 339 338 336 336 336 336 334 333 330 332 332 331 331
313 314 315 317 315 315 316 317 322 322 323 322 323 321 321 321 321 326 339 337 341 340 343 346 347 347 347 347 347 346 344 342 342 341 340 338 337 336 335 336 335 333 332 332 332 332 332 332 332

GFSSGP_850_thetae_060.txt.gz
Theta_e
314 317 325 327 327 327 327 327 328 330 331 331 333 335 337 338 343 346 338 337 337 327 327 327 327 325 323 321 320 320 319 319 319 318 318 318 318 317 317 316 316 316 315 316 317 318 319 319 320
314 318 324 326 327 328 329 328 329 329 331 331 334 336 339 341 340 340 337 337 334 327 328 328 327 326 324 323 320 320 320 319 318 318 318 317 317 317 317 317 317 316 316 317 318 319 320 320 321
318 322 325 324 326 328 328 330 329 330 330 336 336 336 338 341 340 339 337 337 332 327 328 328 328 326 325 323 322 320 319 319 318 318 317 317 317 317 318 318 318 318 317 318 318 319 320 320 321
328 328 324 325 326 326 328 329 330 330 329 336 336 338 338 340 341 339 336 336 329 327 327 328 327 326 325 323 322 321 319 318 318 318 317 317 317 318 318 318 319 319 319 319 319 319 320 320 321
325 324 323 324 325 327 328 328 329 330 333 333 336 337 338 339 341 336 336 336 331 328 327 327 326 326 325 323 322 320 320 319 318 318 318 317 317 318 318 319 320 320 320 320 320 320 320 320 320
326 324 325 325 325 326 327 327 327 329 332 334 337 337 338 338 340 337 336 337 338 335 328 327 326 326 325 323 321 320 320 319 318 318 318 317 317 317 318 319 320 321 321 321 321 321 321 321 320
327 327 326 324 325 326 327 327 328 328 328 330 335 337 338 339 339 337 335 336 337 338 333 329 327 326 324 323 322 320 319 319 318 318 317 317 317 317 317 318 319 320 321 321 321 322 321 321 321
328 329 328 327 327 325 326 326 325 325 327 328 333 336 337 340 340 337 335 336 337 339 336 332 329 328 326 324 323 321 319 318 318 318 317 316 316 316 316 317 318 320 320 321 321 322 322 322 322
328 330 331 329 328 327 326 326 325 325 325 327 332 335 338 339 339 337 335 335 336 338 340 334 332 329 327 325 324 322 321 320 318 317 317 316 316 316 316 316 317 319 320 321 321 321 322 322 323
326 330 330 329 329 329 327 327 326 325 325 326 329 335 336 338 339 339 336 336 336 337 339 341 339 333 331 327 326 324 323 322 321 320 319 317 316 316 316 315 316 317 319 320 321 321 322 323 323
326 330 329 329 329 328 329 328 326 326 326 326 329 332 335 336 338 338 337 336 336 337 337 339 341 339 338 335 334 335 334 332 331 327 321 319 317 317 316 316 318 318 318 319 320 321 321 322 323
323 326 328 329 328 329 329 329 328 327 326 326 327 331 334 334 338 337 336 336 337 337 337 339 340 340 338 339 343 338 333 329 330 332 334 333 328 322 318 320 326 328 328 321 320 321 322 322 323
318 320 323 326 328 329 329 330 330 328 327 326 326 327 334 335 335 336 337 337 336 337 337 338 340 342 342 340 344 343 339 337 335 336 333 338 340 338 330 327 331 333 334 335 332 326 329 335 336
318 319 320 320 323 325 328 329 329 330 329 328 327 327 328 334 335 335 335 336 336 335 335 335 337 336 338 339 334 333 339 337 343 343 341 340 340 342 339 334 333 334 336 336 336 335 333 337 338
316 318 320 320 321 322 324 328 329 329 329 329 329 328 328 328 334 334 334 335 335 335 334 334 336 337 338 337 326 326 325 326 333 342 344 343 342 343 343 339 337 336 335 339 337 336 335 335 337
314 316 318 320 320 321 322 325 327 327 328 330 329 330 329 328 328 331 332 335 334 334 334 333 336 339 337 332 329 327 326 325 326 330 341 343 342 343 343 341 339 339 338 335 335 336 337 336 335
315 314 314 316 319 321 321 323 325 325 326 328 329 330 330 330 330 329 330 334 333 332 332 334 334 337 335 335 332 327 326 326 326 329 338 343 343 343 344 342 341 341 339 337 335 335 334 335 335
314 315 315 314 315 317 319 321 323 325 326 327 327 328 330 330 330 331 332 333 332 332 333 333 335 335 334 333 329 326 326 325 326 333 341 343 343 343 343 343 343 341 340 339 338 336 335 335 335
315 315 315 316 316 316 317 320 323 324 324 325 329 328 328 330 332 330 331 332 331 332 332 333 333 332 333 326 324 323 323 325 331 339 341 343 343 344 344 343 344 342 342 340 338 337 337 336 335
315 314 315 316 316 316 317 317 319 323 325 325 327 328 329 330 329 332 331 332 334 333 332 332 331 330 328 325 323 324 332 338 339 342 344 344 344 344 344 344 343 344 343 342 341 339 337 336 334
315 314 314 315 315 315 315 316 318 320 323 323 325 327 327 329 331 329 331 330 332 332 331 330 330 329 327 324 324 323 326 338 344 344 346 345 345 346 344 344 345 345 342 342 341 339 337 336 338
314 314 314 314 314 313 314 316 319 319 322 324 325 327 327 327 328 331 331 331 331 332 331 330 329 328 327 326 325 327 326 327 334 345 347 347 347 346 346 345 345 347 342 342 341 337 337 338 337
315 313 313 313 314 314 313 315 315 320 321 325 325 326 327 326 326 328 330 331 331 329 329 327 327 328 328 327 324 326 333 328 345 347 348 348 347 346 346 342 345 345 340 344 342 339 338 337 335
314 313 312 312 312 313 313 314 315 317 322 324 326 324 326 327 326 326 328 329 328 328 329 328 327 327 329 329 327 327 329 331 344 346 348 348 347 346 344 343 344 343 341 344 342 339 337 335 334
314 312 313 312 312 315 313 313 315 316 319 323 325 325 325 325 326 327 328 327 328 328 327 326 328 328 327 328 330 326 330 337 348 346 347 348 345 344 343 343 344 344 340 342 340 336 334 332 332
314 313 314 315 315 318 317 318 315 318 318 320 323 324 325 326 326 326 326 325 324 324 324 324 324 328 328 329 327 328 337 337 352 347 348 347 345 344 344 344 343 342 340 340 337 333 331 331 330
315 313 313 313 314 316 316 317 317 318 320 321 324 323 323 324 324 324 324 324 325 326 328 327 327 328 327 331 343 346 340 346 350 349 347 348 346 344 343 344 342 339 338 336 334 332 334 333 331
314 314 315 316 317 317 316 317 317 319 321 322 323 325 323 325 326 327 329 332 335 334 335 332 328 329 342 347 347 346 348 349 350 349 350 347 345 345 343 338 338 338 337 335 334 332 333 331 332
314 314 314 313 314 314 315 316 318 319 321 323 322 323 324 323 323 325 330 337 340 339 337 331 329 342 348 349 350 350 351 350 350 349 345 342 341 341 337 338 336 335 334 334 331 333 332 331 330
313 315 316 317 315 316 318 320 318 321 321 322 323 323 323 323 322 323 339 341 339 339 337 335 340 347 349 351 350 350 349 348 348 344 341 340 339 339 337 336 333 334 335 333 332 331 332 331 330

GFSSGP_850_thetae_063.txt.gz
Theta_e
314 314 322 325 323 320 321 323 322 323 323 330 335 335 337 341 341 342 341 335 332 327 327 326 326 325 322 322 322 322 321 320 320 320 320 320 320 319 318 318 318 318 318 318 318 318 319 319 320
314 315 322 324 321 322 322 324 324 325 325 333 334 334 337 340 340 338 339 340 327 327 327 327 327 326 324 321 322 322 321 321 320 320 320 320 320 319 319 319 319 318 318 318 319 319 320 320 320
314 320 322 320 320 323 322 324 324 326 327 335 336 336 338 340 337 335 335 338 326 328 328 328 328 327 326 324 322 322 322 321 321 321 320 320 319 319 319 319 319 319 318 319 319 319 320 320 320
327 329 327 320 321 322 324 324 324 325 327 336 336 336 337 340 337 337 337 335 326 328 328 328 328 327 326 325 323 321 321 321 321 321 320 319 319 319 320 320 320 319 319 319 320 320 320 320 320
324 324 320 319 321 323 324 325 325 324 325 334 335 334 339 339 339 336 336 334 327 328 328 329 328 329 327 326 324 323 320 320 320 320 319 319 319 319 319 320 320 320 320 320 320 321 320 320 320
328 325 321 320 321 322 323 324 324 323 323 330 332 335 337 340 339 336 336 332 327 328 328 328 328 328 327 326 325 323 321 320 320 319 319 318 318 318 319 319 319 320 321 321 321 321 321 321 321
329 324 324 322 322 323 323 325 322 323 323 325 329 331 338 338 337 336 336 329 327 327 328 328 328 327 326 326 324 323 322 321 320 319 319 318 318 318 318 318 319 319 320 321 321 321 321 321 321
327 325 326 326 325 325 325 325 326 325 324 325 325 328 338 339 338 337 336 336 331 327 327 327 327 327 327 326 325 324 323 321 320 319 318 318 317 317 317 317 317 318 319 320 321 321 321 321 321
324 326 328 328 327 326 326 324 327 326 325 325 325 334 339 339 336 337 338 339 338 336 330 328 328 328 328 327 326 325 324 323 321 319 318 317 317 317 317 317 316 317 318 319 320 321 321 321 322
321 322 328 327 328 327 327 327 327 325 325 325 325 333 336 338 337 337 336 338 338 337 333 332 332 329 329 328 327 326 324 323 323 322 321 319 318 317 316 316 315 316 316 318 319 320 321 321 321
321 322 323 326 327 328 328 328 328 327 323 325 325 326 334 337 338 338 335 335 339 337 336 333 332 332 330 329 328 326 325 327 327 326 325 322 319 319 317 316 315 315 315 316 318 319 320 321 321
314 317 322 324 326 327 327 328 328 328 328 327 327 326 326 334 337 338 337 335 336 338 338 337 335 333 332 332 331 331 333 330 329 328 330 331 330 327 321 318 317 316 317 317 317 318 319 320 321
315 315 316 318 320 323 326 327 328 328 329 329 328 328 327 327 334 335 338 337 336 338 339 338 338 338 340 339 337 336 333 329 327 327 329 330 330 335 336 333 326 321 321 325 328 330 326 322 321
313 313 315 317 317 318 319 321 326 327 329 329 329 328 328 329 332 335 337 336 336 336 338 339 340 338 335 338 341 338 337 329 327 326 326 327 329 334 340 340 337 331 328 329 333 335 335 333 329
313 312 313 314 316 317 319 319 320 323 326 328 329 329 329 329 328 334 335 335 336 335 335 338 338 339 339 340 341 339 331 326 326 327 327 327 331 334 341 342 342 337 333 333 335 338 336 335 334
311 310 311 314 316 317 317 317 319 321 324 326 327 328 329 329 329 329 334 335 335 335 335 334 336 340 341 343 341 330 327 326 327 334 334 332 335 339 343 343 343 341 336 335 335 339 338 336 335
310 310 311 312 313 314 315 318 318 319 320 324 324 327 328 329 329 329 330 333 334 334 334 334 335 336 339 339 336 331 328 327 326 326 336 341 342 344 344 343 343 342 339 337 336 336 337 339 338
310 310 311 312 313 312 311 313 315 317 319 321 323 323 326 328 328 329 329 330 331 333 335 334 334 335 337 337 334 333 332 329 327 327 329 338 342 341 344 344 344 343 341 340 339 337 335 335 335
313 313 313 314 314 313 313 313 314 315 315 317 321 324 325 326 327 327 328 330 330 329 333 333 332 333 334 334 333 334 333 327 326 325 328 331 336 342 343 344 344 343 342 342 341 338 337 337 335
313 313 313 313 314 313 313 313 314 314 314 315 316 320 323 326 325 326 328 328 330 330 333 333 332 332 332 332 332 332 328 324 323 326 334 337 340 343 343 343 344 343 343 342 341 340 339 337 336
313 313 313 313 313 313 313 313 313 314 314 314 315 316 320 325 326 326 327 328 328 330 333 333 332 332 332 331 329 328 326 325 330 335 340 341 344 343 343 344 344 343 343 342 343 341 339 338 337
313 314 315 314 312 311 312 312 312 313 313 314 316 316 317 321 327 326 324 326 331 332 333 334 332 332 331 330 329 328 324 322 324 340 342 343 345 344 344 344 344 341 343 344 342 341 341 339 337
314 314 314 313 311 308 310 309 311 312 312 313 313 315 318 320 324 326 324 326 327 332 333 332 331 330 329 329 328 327 324 323 326 331 345 345 345 346 346 345 342 343 345 345 342 341 338 337 335
314 314 313 312 308 309 309 309 309 310 311 313 313 314 316 320 322 326 325 325 327 333 332 331 330 329 328 327 327 326 324 323 330 338 344 346 346 347 344 344 343 342 344 342 343 343 339 337 337
311 314 315 312 309 311 311 313 313 313 313 312 313 314 314 315 318 325 325 324 326 330 331 329 328 328 327 327 326 325 325 326 329 339 347 346 347 347 344 345 341 343 343 342 341 341 339 336 334
310 312 314 316 313 312 311 312 311 313 314 315 314 315 313 314 317 323 326 325 325 325 328 327 327 328 328 327 327 326 326 329 330 338 346 345 346 346 345 342 342 342 343 341 342 340 336 334 332
309 311 310 313 314 315 313 312 313 313 314 316 317 316 316 316 323 324 326 325 326 326 327 327 327 325 325 325 326 328 330 332 328 339 350 346 346 345 341 343 344 343 343 340 339 336 332 331 331
312 311 311 314 314 317 314 314 314 319 318 315 315 316 318 320 325 327 326 326 325 325 328 329 330 326 324 324 328 332 332 329 337 343 351 347 346 344 343 344 343 342 340 338 334 333 333 332 331
313 313 314 314 315 317 315 313 318 317 316 315 314 314 317 319 324 325 328 329 332 333 330 331 333 332 327 328 330 331 340 341 348 352 348 347 348 345 342 343 342 337 335 335 334 332 332 332 330
312 312 314 316 315 313 315 315 315 314 314 314 313 315 320 322 322 328 331 336 334 332 331 332 335 329 327 330 341 345 344 350 351 348 349 348 346 345 343 339 337 333 333 333 333 331 332 331 330

GFSSGP_850_thetae_069.txt.gz
Theta_e
317 314 315 324 321 316 318 320 319 320 321 322 325 324 330 330 339 338 339 327 326 325 324 324 325 324 323 323 323 322 321 320 320 320 320 320 320 320 320 319 319 320 320 320 319 320 319 319 319
316 314 319 323 320 319 318 319 321 320 322 324 324 324 336 339 340 340 334 326 326 326 325 325 325 325 324 323 324 323 323 322 321 321 321 320 320 320 320 319 319 319 319 319 319 320 320 320 320
314 319 321 319 317 320 319 321 321 321 323 323 322 323 329 339 341 340 330 327 326 326 326 326 325 325 324 324 324 324 324 323 322 322 321 321 320 320 320 320 320 319 320 319 319 319 320 320 320
327 322 323 321 320 320 321 320 319 319 322 323 323 323 329 339 340 340 328 327 326 326 326 326 326 325 324 324 324 325 324 323 323 322 322 321 321 321 321 321 321 320 320 319 319 319 320 320 320
323 324 323 319 320 320 320 320 321 319 319 322 323 323 325 338 340 337 328 326 327 327 326 326 325 324 324 324 324 324 324 323 323 322 322 322 321 321 321 321 321 321 320 320 319 319 320 320 320
325 322 319 321 319 321 320 322 322 320 322 325 322 322 329 337 338 336 332 327 327 327 327 327 325 325 324 323 323 324 324 323 323 323 322 322 321 321 320 320 320 320 320 320 320 320 320 320 320
327 320 321 320 320 322 323 324 323 322 322 325 324 322 332 337 337 336 337 328 326 327 327 327 326 325 324 322 323 323 323 323 322 322 321 321 320 320 319 319 319 319 319 320 320 320 320 320 321
327 322 325 324 324 323 324 326 326 325 326 326 326 323 326 334 337 337 338 333 326 327 327 327 326 325 324 323 322 322 323 323 323 323 322 321 320 319 319 319 319 318 318 318 319 319 320 320 321
321 324 326 326 325 324 325 325 326 327 327 327 327 326 330 336 338 337 338 328 326 327 328 327 326 325 325 324 323 322 322 323 323 323 324 322 322 321 320 319 318 318 317 317 317 318 319 320 320
318 319 325 326 326 326 326 326 326 326 326 327 327 327 328 341 343 338 334 326 326 327 328 327 326 326 325 324 323 323 323 323 324 325 326 325 323 322 320 320 318 318 317 316 316 316 317 318 319
317 320 323 324 322 323 323 322 323 324 325 326 326 327 327 328 341 341 333 327 327 328 327 327 327 326 326 325 324 324 324 325 324 325 325 326 324 323 322 321 320 319 317 316 315 315 315 316 317
312 313 314 315 316 317 320 320 321 322 323 325 322 323 326 328 329 329 338 332 326 326 327 327 327 326 327 326 325 325 325 325 326 326 326 326 326 326 326 325 324 322 320 317 316 315 314 314 315
310 311 312 312 312 313 314 314 315 316 317 318 319 320 321 326 328 329 328 334 333 331 327 327 327 327 327 327 326 327 327 326 327 326 326 327 327 328 328 328 330 332 330 329 323 319 316 315 316
310 310 310 311 312 312 313 314 315 317 318 318 318 319 320 322 325 328 329 332 330 332 335 329 327 327 327 327 328 329 328 328 327 328 329 329 329 328 329 331 333 335 337 338 336 330 323 321 326
310 309 308 310 312 312 314 313 314 316 317 317 318 318 319 320 323 324 326 328 329 336 335 338 332 329 329 328 329 330 329 329 329 332 333 332 330 330 329 332 335 337 340 340 340 337 331 329 332
308 306 305 308 309 311 312 313 315 316 315 316 315 316 317 318 319 321 325 326 327 329 335 336 338 337 333 333 331 331 331 335 339 338 337 334 330 329 330 333 336 338 341 342 342 340 335 332 334
305 307 309 309 310 309 311 310 311 314 314 313 314 314 314 314 315 317 320 323 325 327 328 334 336 338 337 336 336 335 338 337 339 337 334 328 326 326 328 332 337 340 342 343 343 342 339 334 334
310 309 309 309 310 310 310 311 311 313 313 313 313 314 314 314 314 314 315 316 320 324 325 330 336 337 338 338 338 340 338 338 337 335 333 328 326 327 328 330 335 339 341 343 344 342 340 336 336
310 310 309 310 310 310 310 311 312 311 312 311 313 313 314 314 313 313 314 315 315 317 326 326 329 334 338 339 340 339 338 336 335 334 330 329 329 329 328 329 333 336 342 342 344 343 341 337 337
310 310 310 311 312 312 311 312 312 311 310 312 312 313 313 313 313 313 313 313 315 315 319 324 326 329 335 338 340 338 335 335 334 332 332 330 331 331 328 328 333 339 342 343 344 343 341 340 337
311 311 311 312 312 311 310 311 310 310 310 311 311 311 311 311 312 312 312 312 313 315 316 319 322 325 327 333 340 338 336 334 334 332 332 331 332 329 326 329 338 340 342 343 344 343 342 341 340
312 311 312 311 312 312 311 312 310 310 308 309 309 310 310 310 310 311 312 312 312 313 315 317 320 323 325 327 335 338 335 333 332 331 332 332 331 327 328 332 339 342 343 343 345 344 343 342 340
311 311 310 311 312 311 312 308 310 310 309 307 307 309 311 312 313 313 313 314 313 312 313 315 316 321 325 327 329 337 334 334 332 332 334 330 328 326 326 336 341 343 343 344 344 344 343 341 342
310 309 309 309 307 310 310 308 310 309 308 308 309 313 314 315 315 315 315 313 314 314 313 314 315 320 324 328 329 331 336 335 335 334 331 329 328 325 324 335 342 343 344 344 345 342 341 343 341
305 306 306 309 309 310 308 309 309 309 309 311 314 315 315 313 312 313 314 316 314 315 314 314 315 317 322 326 327 331 335 335 335 332 330 327 326 324 323 329 341 343 345 343 341 341 342 340 339
307 305 305 310 312 309 309 311 309 309 314 315 314 313 313 312 311 311 312 314 315 317 316 315 315 316 318 325 326 329 334 335 334 331 328 326 325 322 324 328 340 345 343 341 341 342 340 340 339
308 307 306 309 309 309 309 309 309 310 315 314 313 313 311 312 312 313 313 313 315 320 320 317 317 318 321 324 327 331 333 335 332 328 327 326 326 325 328 338 345 345 343 341 339 341 341 340 339
308 308 309 303 307 311 311 311 311 310 310 314 312 311 312 312 313 313 313 313 318 319 321 322 319 320 322 324 329 334 333 332 329 328 327 327 327 327 331 346 346 345 342 339 340 340 340 339 337
307 308 310 306 311 313 314 311 309 312 313 313 311 312 312 312 313 313 315 316 319 319 323 327 322 323 323 324 330 333 332 330 328 327 327 328 328 328 336 346 346 344 339 340 339 339 340 335 332
308 308 308 306 310 310 311 312 309 311 311 311 311 312 312 311 312 314 316 318 320 321 322 330 324 324 323 324 327 332 331 329 328 328 327 329 331 329 334 347 345 342 340 340 340 338 332 331 331

GFSSGP_850_thetae_072.txt.gz
Theta_e
318 315 314 324 319 315 318 318 318 320 320 321 322 322 325 326 337 337 339 338 326 325 323 321 320 321 320 320 320 320 319 318 318 318 319 320 321 321 320 320 320 320 319 319 319 319 319 319 319
318 314 316 323 319 319 317 318 320 319 321 322 322 322 320 322 327 331 339 332 326 326 324 321 321 322 322 321 322 322 321 321 320 321 321 321 321 321 320 320 320 319 319 319 319 319 319 319 319
317 315 320 318 316 318 319 319 319 320 321 320 321 324 322 336 337 330 338 328 326 326 325 323 321 323 323 322 323 323 323 322 322 322 322 322 321 321 320 319 319 319 319 319 319 320 320 320 319
319 320 321 320 318 319 320 320 318 318 322 323 322 320 324 325 338 335 335 327 326 326 325 324 322 323 324 323 323 323 323 323 323 323 322 322 321 321 320 320 319 319 319 319 319 319 320 320 320
324 324 320 320 320 320 320 320 320 318 319 323 324 321 322 330 338 340 335 327 326 326 325 325 324 324 324 323 323 323 323 323 323 323 322 322 322 321 321 320 320 320 320 320 320 320 320 320 320
323 320 319 320 318 320 320 321 321 320 322 326 323 321 325 329 337 339 333 326 326 326 325 324 323 324 325 323 323 324 323 323 323 323 323 322 322 321 321 320 320 320 320 320 320 320 320 320 320
323 319 321 319 320 322 321 323 322 321 323 326 326 321 326 330 334 338 327 326 325 325 325 324 323 323 324 324 323 323 323 323 323 323 323 322 322 321 320 320 319 319 319 319 319 320 320 320 320
326 322 325 323 323 323 323 325 326 324 325 326 326 323 325 330 337 338 330 326 325 325 325 325 324 323 323 324 323 322 322 322 322 322 322 321 321 320 320 319 319 318 318 318 318 319 319 319 320
322 326 326 325 324 324 325 325 326 326 326 325 326 326 327 327 339 340 333 327 325 325 324 324 324 324 323 323 323 322 321 321 321 321 320 320 320 321 320 320 319 318 317 317 317 317 318 318 319
317 319 324 324 324 325 324 325 324 325 323 324 324 325 323 325 333 341 336 330 325 323 323 323 324 324 324 323 323 322 321 321 320 320 321 320 320 320 320 319 318 318 317 316 316 316 316 316 317
315 318 321 322 320 320 320 320 321 321 322 323 322 322 321 322 327 332 339 336 326 324 323 322 323 324 324 325 323 323 322 321 321 321 322 321 321 320 320 320 319 319 318 317 316 316 315 315 315
311 313 311 313 313 313 314 314 315 317 318 318 318 319 319 320 322 326 330 336 331 326 324 323 323 323 324 324 324 324 324 323 323 323 323 323 323 321 320 319 320 320 320 319 318 316 315 314 314
309 310 311 311 312 313 313 313 314 315 315 317 318 318 318 319 321 324 326 329 334 332 326 324 323 323 323 324 325 325 325 325 325 325 324 324 324 323 321 320 321 324 326 329 327 323 319 316 314
309 310 309 310 311 311 312 313 314 316 316 317 316 317 318 318 319 321 323 326 327 329 329 329 326 323 323 325 326 326 326 326 326 325 325 325 324 324 325 325 327 330 333 335 336 335 330 323 319
310 308 306 309 310 310 312 311 313 314 315 316 316 316 316 317 318 318 321 324 326 327 329 331 334 331 325 325 325 326 325 325 325 325 325 325 326 326 330 331 332 332 335 337 339 339 337 333 327
306 304 305 306 309 310 311 311 312 313 313 314 314 314 314 314 314 315 318 320 324 326 327 327 328 334 334 327 326 325 327 326 325 325 328 327 328 333 333 331 333 333 336 338 340 341 340 337 332
305 308 308 308 308 308 310 309 311 312 312 313 313 313 313 313 314 314 314 315 317 320 324 326 326 327 333 338 329 327 326 329 329 329 328 334 335 337 331 329 332 334 335 337 340 342 341 339 336
308 309 308 308 309 309 309 310 310 312 312 312 312 313 313 313 313 313 313 313 314 316 319 322 325 328 330 335 338 338 333 330 332 331 336 339 337 333 329 328 330 333 333 334 339 342 342 341 338
308 309 309 308 309 310 309 310 310 311 311 311 311 312 312 312 312 312 313 312 313 314 316 318 323 328 333 329 332 339 340 336 334 337 337 337 335 333 329 329 330 331 329 335 341 343 343 341 339
308 309 308 309 310 310 309 311 310 310 310 311 311 311 311 311 311 310 310 310 311 312 313 315 318 323 325 326 331 333 339 340 338 338 337 336 336 334 330 331 331 328 331 338 341 343 343 342 340
309 310 309 311 310 310 309 309 309 308 309 310 311 311 311 311 309 310 311 311 311 311 312 313 315 317 319 323 325 335 337 340 340 339 337 334 334 332 333 331 331 326 335 338 341 343 344 343 341
311 309 311 310 309 309 310 311 310 309 309 308 309 311 310 310 310 312 312 312 313 313 311 312 313 315 318 320 323 324 330 332 338 339 337 335 333 335 332 332 328 329 336 339 341 343 344 343 340
308 310 310 309 309 310 310 309 308 309 308 307 306 309 309 311 312 313 313 313 312 313 315 312 312 313 316 316 320 324 326 329 333 338 337 337 335 335 332 329 329 331 337 340 342 343 343 342 340
309 308 305 305 306 308 307 309 308 307 307 308 307 309 312 314 314 313 312 313 312 312 312 315 313 313 314 316 317 322 325 326 331 334 335 337 336 334 330 328 327 335 339 342 342 343 344 342 340
305 304 305 305 307 308 307 308 308 308 309 308 308 312 314 313 312 312 312 312 312 312 312 313 315 313 313 314 316 319 324 327 329 332 335 337 335 332 329 328 326 332 338 341 343 342 343 340 340
307 305 305 308 310 306 306 308 307 307 308 311 314 314 313 312 312 312 311 312 312 312 312 313 317 315 314 314 315 317 322 327 329 330 332 336 336 332 327 326 325 335 341 344 342 340 339 340 340
308 306 304 306 307 307 307 307 307 308 309 313 313 313 312 312 312 311 312 312 313 312 312 313 319 317 317 314 315 317 319 324 327 328 330 335 337 330 326 325 326 336 343 344 340 340 340 340 339
307 306 308 301 306 305 307 309 309 309 309 310 311 311 312 312 312 312 311 314 314 314 314 318 319 319 319 315 315 317 321 323 325 328 331 335 335 329 326 325 329 341 345 343 341 340 340 340 339
306 306 308 304 303 307 311 308 307 308 308 309 309 311 311 312 313 312 313 318 318 318 318 319 321 322 322 320 315 318 321 324 325 329 334 336 332 327 326 326 330 343 345 343 339 340 338 338 338
305 306 306 306 309 309 309 311 309 308 308 309 310 311 312 312 314 312 313 316 313 315 316 320 326 330 327 322 315 318 322 324 328 333 336 334 329 327 327 327 333 344 344 341 338 338 337 338 337

GFSSGP_850_thetae_075.txt.gz
Theta_e
321 317 317 323 323 322 322 322 321 323 323 322 322 323 325 325 331 334 337 334 326 325 323 320 318 321 320 318 320 323 325 327 326 320 319 320 321 321 320 320 320 319 319 319 319 319 319 319 319
319 316 315 323 322 321 321 321 322 323 322 322 322 322 323 325 324 327 329 338 326 326 324 321 319 319 318 318 321 323 323 322 320 320 321 321 322 321 321 320 320 320 319 319 319 320 320 319 319
320 314 321 324 324 320 321 321 323 322 321 321 323 323 323 327 334 334 332 328 327 325 325 323 321 319 319 318 320 322 322 321 322 322 322 322 322 321 321 320 320 319 319 319 319 320 320 320 320
319 317 320 322 322 321 321 322 322 322 321 321 324 325 324 325 333 337 333 336 329 324 325 324 323 320 319 319 321 322 322 323 323 322 322 322 322 321 320 320 320 319 319 319 319 320 320 320 320
323 323 320 323 321 321 321 321 321 322 321 323 325 327 326 328 331 336 339 335 326 324 325 324 323 321 320 320 321 321 323 323 323 323 322 322 322 321 321 320 320 319 319 319 319 319 320 320 320
323 322 323 320 319 321 321 321 321 323 324 325 327 325 327 328 329 336 339 333 325 325 325 324 323 321 321 321 322 322 323 323 323 323 323 322 322 322 321 321 320 320 320 319 319 319 320 320 320
322 324 324 323 321 320 321 323 323 324 326 327 326 327 327 327 331 339 339 328 323 324 325 324 324 322 321 321 322 323 323 323 323 323 322 322 322 321 321 321 320 319 319 319 319 319 319 319 320
326 325 324 323 322 322 323 324 326 325 327 326 326 328 327 325 333 341 338 327 324 322 323 324 324 322 321 321 321 323 323 323 322 322 322 321 321 320 320 319 319 318 318 318 318 318 318 319 319
324 325 325 325 324 324 325 326 325 326 326 326 325 325 324 322 328 334 339 328 326 321 322 322 323 322 321 321 322 322 322 322 322 322 321 320 320 320 319 319 318 318 317 317 317 316 316 317 318
321 322 323 325 324 325 325 324 322 324 325 325 325 323 321 320 325 327 337 334 327 323 321 322 322 322 322 321 321 321 321 321 321 321 321 320 320 319 319 318 318 317 317 317 316 316 315 315 315
318 320 322 324 323 320 322 321 321 323 324 324 322 320 319 320 320 323 328 337 330 324 322 321 321 321 321 321 320 321 321 321 321 321 321 320 319 319 318 318 318 317 317 316 316 315 315 314 314
314 315 314 318 315 314 316 314 317 319 321 320 317 318 318 319 319 321 325 330 336 334 324 321 320 320 320 320 320 320 320 321 321 321 321 320 320 319 319 319 318 318 317 317 316 316 316 315 314
313 312 312 312 312 313 313 314 315 318 318 318 317 317 318 318 319 319 324 329 326 332 334 326 322 321 320 320 320 320 321 322 321 322 322 321 321 320 320 320 319 319 319 320 321 322 324 322 319
311 311 311 311 312 312 313 314 314 316 315 315 316 317 316 317 318 319 322 327 328 327 326 333 327 324 324 320 320 320 320 321 322 323 322 322 321 321 320 320 320 323 325 327 331 333 333 333 330
310 311 311 311 311 312 312 314 314 313 313 315 321 321 317 315 315 316 318 320 329 328 326 327 331 332 327 326 322 321 322 325 323 323 322 322 321 321 321 320 321 327 331 333 335 337 338 338 337
311 309 310 311 311 312 312 314 313 312 313 314 314 314 314 314 314 314 314 316 320 330 327 322 327 329 333 333 330 324 322 323 323 324 323 323 323 323 323 323 324 331 333 334 336 338 340 340 340
311 311 312 312 312 312 313 314 313 312 312 313 313 313 313 313 313 313 314 314 314 318 329 329 321 326 327 330 332 333 325 323 324 323 327 324 325 326 329 332 330 334 335 335 335 338 341 342 341
312 312 312 312 312 312 313 313 313 312 312 312 312 312 313 313 313 313 312 313 313 313 315 332 326 325 323 327 331 334 338 334 325 324 325 330 332 334 330 333 333 336 335 334 334 337 340 342 341
311 311 311 312 312 312 313 312 312 312 312 312 312 312 312 312 312 311 311 311 311 312 313 314 325 329 325 325 327 335 335 337 337 331 326 330 332 333 336 334 337 336 333 333 332 338 342 343 342
311 311 311 311 312 312 312 312 313 313 313 312 312 312 312 311 311 310 310 310 311 311 312 313 313 315 323 325 318 323 326 331 336 339 337 331 332 334 336 334 339 337 333 333 332 338 342 343 342
312 312 311 311 312 311 312 312 312 313 312 312 312 312 311 311 310 310 311 312 312 312 312 312 312 313 313 313 315 317 323 325 333 338 340 337 334 334 333 337 340 338 333 332 334 339 342 343 343
311 311 311 311 311 311 311 311 311 312 313 312 312 312 311 309 310 311 312 313 313 313 313 313 312 312 313 313 314 315 318 324 325 329 338 340 337 334 334 338 341 336 333 330 335 339 342 343 343
311 311 312 311 311 312 311 312 311 312 312 312 313 312 311 311 313 314 313 312 312 312 312 312 313 313 312 313 313 314 315 319 324 325 326 335 340 334 338 340 341 333 332 329 336 340 341 343 343
311 311 311 310 310 311 310 311 311 311 313 312 312 311 312 314 315 314 312 312 312 312 312 312 312 312 313 312 313 314 315 316 321 324 325 327 333 340 339 338 336 333 330 329 336 341 342 343 343
310 311 311 311 310 310 311 310 311 312 312 312 311 311 313 315 314 313 313 313 313 312 312 312 312 312 312 313 312 313 314 316 318 323 325 325 329 337 338 336 335 331 328 328 338 342 343 344 343
311 312 312 312 310 310 310 310 310 311 310 310 310 313 315 314 313 313 313 313 314 315 315 314 313 313 312 313 313 313 314 315 316 322 324 326 328 333 337 337 331 329 327 329 340 343 344 344 342
310 311 309 311 311 311 310 310 310 310 311 312 313 314 313 313 313 313 314 314 314 318 317 317 317 315 314 313 314 314 314 314 316 320 323 326 328 331 337 335 330 327 325 333 342 344 342 341 339
311 310 312 313 312 311 309 310 310 310 311 312 312 312 312 312 313 314 314 314 315 316 316 316 316 318 318 317 317 315 314 314 315 318 323 325 328 330 337 335 331 326 325 336 343 343 340 340 339
310 311 312 312 311 311 311 311 311 311 311 312 312 313 311 312 314 314 314 314 314 313 313 315 314 316 318 320 320 318 316 315 315 317 321 323 325 327 333 337 329 325 326 338 344 342 340 339 340
310 311 311 312 311 312 312 314 311 311 311 313 312 311 311 314 314 313 314 314 313 313 313 315 313 314 319 322 325 325 318 317 316 315 320 323 324 326 336 333 327 326 330 340 344 342 338 337 338

GFSSGP_850_thetae_078.txt.gz
Theta_e
322 318 315 324 331 324 327 327 325 326 326 325 325 326 328 328 331 339 338 335 336 334 325 321 319 321 327 325 323 327 332 329 326 324 319 320 319 320 320 320 319 319 319 319 318 318 318 319 318
321 318 318 325 333 328 327 325 325 325 325 325 326 326 327 328 329 332 331 336 334 334 325 323 319 319 326 323 321 325 327 326 324 321 320 321 321 321 321 320 320 320 320 320 319 319 319 319 319
319 317 319 330 334 335 331 324 325 325 323 324 327 328 326 329 331 335 336 339 334 330 324 324 321 319 324 324 322 325 325 324 322 321 322 322 322 321 321 321 320 320 320 320 320 320 320 320 320
324 322 320 322 329 333 330 327 325 324 323 323 325 330 327 329 332 339 341 341 335 337 326 324 323 321 319 321 323 325 325 323 322 322 322 322 322 322 321 321 320 320 320 320 320 320 320 320 320
323 323 325 322 322 325 326 326 324 324 325 324 327 330 329 330 334 341 342 341 336 337 331 324 323 322 319 320 323 324 323 321 322 322 322 322 322 321 321 320 320 320 320 319 320 320 320 320 320
324 324 327 326 323 322 322 323 326 326 325 325 328 329 330 329 333 338 341 341 337 336 340 324 323 322 320 319 320 321 321 321 321 322 322 322 321 321 320 320 320 319 319 319 319 319 319 320 320
324 326 326 327 326 323 322 322 324 328 327 326 328 330 330 328 331 337 341 338 335 335 340 325 322 322 322 319 320 319 320 321 321 321 321 321 321 320 320 320 320 319 319 319 318 318 318 319 320
324 325 326 326 327 326 324 323 323 325 328 327 327 330 329 326 326 332 340 338 335 336 339 342 321 321 321 320 320 320 320 320 321 321 321 321 321 321 320 320 319 319 319 318 318 317 317 318 319
322 327 326 326 326 327 325 325 325 327 327 327 327 327 327 325 324 327 334 340 335 336 339 341 338 329 322 321 321 321 321 321 321 321 321 321 321 321 320 320 319 319 318 318 317 317 316 316 317
322 324 324 325 326 327 326 325 326 326 327 328 329 327 326 324 324 326 331 338 337 336 336 339 341 341 339 337 334 321 321 322 322 322 322 321 322 323 324 322 319 319 318 318 318 317 316 315 322
320 323 322 323 324 325 326 326 325 325 327 327 329 326 324 323 323 324 329 331 339 335 336 339 343 344 342 339 341 339 335 327 326 322 322 322 334 331 323 337 319 318 318 318 319 317 317 324 330
318 319 320 321 323 323 324 324 324 323 324 324 328 325 322 323 322 323 325 331 333 337 336 332 339 341 343 342 340 340 339 340 339 330 322 323 324 324 322 336 337 326 334 323 327 335 334 330 331
316 317 316 317 318 318 319 321 322 322 322 318 323 322 321 321 321 321 324 327 330 331 338 338 327 323 322 324 331 325 332 337 338 338 323 320 324 322 320 327 328 334 336 333 330 331 333 331 332
315 315 315 315 316 316 317 317 318 318 317 317 322 324 323 321 321 320 322 327 331 329 328 330 339 329 324 321 321 321 321 324 324 334 327 320 321 322 323 320 319 319 326 331 332 334 334 333 335
314 315 315 315 315 316 315 317 318 317 316 316 316 318 323 323 325 321 319 321 320 331 330 327 328 336 328 324 322 321 320 320 320 320 320 319 319 319 320 320 319 320 320 322 325 329 332 334 337
314 314 314 316 314 314 314 317 318 316 316 316 316 315 317 317 320 319 318 317 316 324 331 328 328 324 328 333 330 326 325 326 321 320 320 319 320 320 320 319 321 323 321 324 331 334 338 339 340
315 313 314 315 315 315 315 316 317 315 315 316 316 315 315 316 316 317 317 315 315 315 324 328 331 329 323 324 332 333 334 331 329 325 332 321 320 320 320 320 322 326 324 324 333 336 340 341 342
315 315 314 314 315 315 315 315 316 315 315 315 315 315 314 315 316 316 316 316 313 313 313 323 327 330 330 328 324 327 330 331 333 328 325 322 321 321 322 323 324 335 334 332 334 336 342 342 343
314 314 314 315 315 314 315 315 316 315 315 315 315 315 315 315 314 315 315 314 312 312 312 312 322 328 331 331 331 336 342 330 336 336 337 328 328 322 326 327 331 334 334 334 336 337 339 344 344
313 314 314 314 314 314 314 314 315 315 315 315 315 315 315 315 315 314 314 316 316 311 312 312 312 320 327 329 330 331 327 331 330 327 336 338 331 326 325 329 333 335 335 337 336 337 343 345 345
313 314 314 313 313 314 314 315 315 315 315 314 314 315 314 315 314 313 315 317 317 318 313 313 312 312 315 326 330 331 329 328 326 330 329 337 339 336 328 330 335 334 335 337 338 338 337 345 346
313 313 312 312 314 314 314 314 315 315 315 315 315 315 315 314 313 315 317 317 316 315 313 313 313 312 313 312 320 328 330 329 329 330 332 345 343 339 334 332 334 334 333 339 340 337 339 342 346
313 313 313 313 314 315 314 315 315 315 315 315 315 314 313 314 314 316 316 315 316 315 314 312 312 312 312 312 313 313 317 323 318 329 331 341 345 340 339 335 335 334 334 338 339 337 337 345 345
313 313 314 314 315 315 314 315 314 314 315 315 314 312 313 315 315 316 316 316 316 316 317 317 313 312 312 312 313 313 314 318 325 331 332 335 345 341 339 338 336 334 336 338 336 335 334 341 341
314 314 315 314 316 315 314 314 314 314 314 314 313 312 312 313 316 316 315 316 316 316 318 319 320 318 312 313 312 314 317 314 315 316 328 335 341 342 336 337 339 335 338 338 335 332 335 339 342
315 314 314 314 314 314 314 314 315 314 313 312 312 313 314 315 315 315 315 316 316 317 318 320 320 320 321 314 314 313 315 319 322 321 324 331 337 341 341 331 333 339 338 337 335 331 337 339 342
314 314 314 314 314 315 315 314 314 314 313 313 313 314 313 314 313 314 315 316 317 317 318 318 318 318 319 320 318 317 316 314 315 319 322 324 324 339 342 332 332 337 339 335 331 333 337 338 343
313 313 314 314 315 316 314 314 314 314 313 313 314 313 313 314 312 313 315 316 317 317 317 316 316 316 318 318 320 321 322 322 316 314 314 316 320 321 335 345 333 337 338 332 329 332 336 342 344
314 313 313 314 316 317 315 314 315 314 314 314 314 313 314 313 312 314 315 315 315 316 316 315 315 315 317 318 319 322 323 324 324 316 314 315 316 318 328 341 333 338 335 329 329 336 339 343 345
313 313 314 316 315 315 315 315 315 315 314 313 314 313 313 313 313 315 314 314 315 316 314 313 314 315 316 317 319 322 324 326 327 326 315 314 315 316 323 342 334 336 331 329 330 333 345 345 344

GFSSGP_850_thetae_081.txt.gz
Theta_e
324 326 320 328 334 333 334 334 332 330 330 329 328 328 330 330 332 335 338 340 337 345 332 322 320 319 322 325 329 336 333 331 327 323 320 320 320 320 320 319 319 319 319 319 319 320 320 319 319
318 325 322 330 335 341 337 333 329 330 328 327 328 328 328 329 331 335 337 341 337 344 333 322 320 319 321 324 328 334 334 330 326 322 320 321 321 321 320 320 320 320 320 319 320 320 320 320 320
319 323 323 330 339 342 341 331 329 329 326 326 328 328 329 330 332 335 339 342 339 343 337 323 321 320 320 323 328 332 332 327 325 322 321 321 321 321 321 320 320 320 320 320 320 320 320 320 320
325 325 324 326 332 336 337 337 328 328 326 325 326 329 329 331 332 337 341 343 343 340 348 325 321 321 321 322 326 330 331 328 325 321 321 321 321 321 321 320 320 320 320 320 320 320 320 320 320
324 325 328 328 326 328 332 334 332 329 327 326 326 328 330 331 330 336 343 343 343 339 346 331 321 321 321 322 324 328 330 330 326 321 320 321 321 321 321 320 320 319 319 319 319 320 320 320 320
326 326 327 328 328 326 326 327 331 330 328 327 327 329 330 332 328 334 342 343 342 338 345 343 321 321 322 322 323 326 329 330 324 320 320 320 321 321 321 320 319 319 318 318 319 319 319 320 320
325 328 328 327 328 328 326 324 325 329 331 332 328 329 330 331 328 329 336 343 342 338 343 345 321 320 321 322 323 326 328 329 323 319 320 321 321 321 320 320 319 319 319 318 318 318 318 319 319
323 326 327 327 327 327 327 325 324 325 328 330 331 329 330 330 327 328 332 343 339 339 342 350 324 320 320 320 322 324 326 325 321 320 320 321 321 321 320 320 320 319 319 318 318 318 317 317 318
322 325 326 326 326 327 327 327 325 325 325 326 330 330 328 329 326 328 330 338 341 337 341 345 344 342 334 330 320 321 321 321 321 320 321 321 321 321 321 320 320 320 319 319 318 318 317 317 316
322 325 324 325 326 326 326 327 326 327 326 327 329 329 329 328 327 327 328 333 342 338 340 341 344 343 342 340 337 320 320 321 321 321 322 322 323 338 338 333 324 321 320 319 318 318 317 317 316
321 324 324 325 324 324 326 327 327 327 328 327 328 329 329 328 326 326 326 331 335 340 338 340 344 342 343 340 341 339 335 327 323 322 327 331 336 341 343 342 337 326 320 319 319 320 318 318 329
320 320 321 322 322 323 325 326 327 327 327 326 326 326 328 329 326 325 325 327 332 340 338 338 343 345 344 342 340 342 340 341 341 340 329 337 337 342 343 344 342 342 343 337 333 340 338 336 335
319 320 319 319 319 321 323 325 325 325 326 325 324 323 327 328 325 324 324 325 330 335 341 339 340 344 348 345 344 343 343 341 342 342 343 340 345 343 345 343 340 339 340 340 342 340 338 338 338
318 318 318 318 318 319 320 320 320 321 323 323 323 321 324 327 325 323 324 323 328 334 329 335 340 340 331 337 343 343 342 341 342 342 343 341 341 344 343 341 341 339 337 336 337 337 338 339 339
316 317 318 318 318 319 318 319 320 319 320 321 320 319 321 325 325 326 326 325 324 330 330 330 339 342 338 331 329 331 343 338 340 340 340 342 337 339 341 341 341 338 336 334 328 329 337 338 340
317 316 316 318 318 318 318 319 320 319 320 320 319 319 318 318 321 322 324 323 322 323 331 329 328 336 338 332 333 342 339 337 338 336 339 334 328 326 332 336 338 336 331 335 325 329 339 340 342
317 316 317 318 318 317 318 318 320 319 319 319 319 319 319 318 318 320 321 320 320 321 318 328 329 330 331 336 328 332 339 342 335 334 337 336 333 327 322 322 326 329 323 330 332 331 336 342 343
317 318 318 317 318 318 317 318 318 318 319 319 318 319 319 318 318 318 319 319 316 322 320 322 327 332 330 329 336 337 338 344 340 340 340 336 330 329 323 322 324 322 323 330 333 332 338 342 343
317 317 317 318 318 317 317 317 318 318 317 318 318 318 318 318 318 317 318 317 320 316 319 320 321 325 326 327 328 333 342 344 340 339 341 339 337 335 329 327 322 322 324 334 335 333 332 340 345
315 315 316 317 317 317 317 317 317 318 318 317 317 317 317 317 317 317 317 318 321 316 315 318 318 316 324 323 325 327 330 333 336 342 339 342 343 339 335 332 326 324 328 334 335 333 336 342 344
315 315 316 317 317 317 316 317 318 318 317 317 316 316 317 317 317 317 317 318 320 320 316 314 317 316 314 324 322 325 326 324 328 330 331 337 341 342 339 338 335 329 326 334 335 333 337 344 345
315 316 316 316 316 316 317 318 318 319 318 318 317 317 317 317 317 317 317 318 319 318 318 314 315 313 313 313 320 324 325 322 327 333 331 331 336 337 336 343 342 336 339 335 339 338 337 338 341
315 315 316 315 316 316 316 317 317 318 318 318 318 317 317 317 316 316 318 318 318 318 318 317 314 313 313 313 313 315 322 323 324 328 330 332 331 332 340 336 340 344 333 344 345 336 338 338 339
315 314 315 316 316 317 317 318 317 317 318 318 318 315 314 315 316 317 318 318 318 318 319 319 317 313 313 313 313 313 313 315 319 325 330 331 332 328 334 333 340 345 343 344 344 337 339 341 341
315 316 317 317 317 317 318 317 317 317 317 317 317 316 314 314 315 317 318 317 317 318 319 319 321 322 323 323 320 314 313 313 313 317 322 328 331 328 330 333 336 339 347 345 347 340 340 339 335
316 317 319 320 318 317 316 317 318 317 316 315 315 314 315 315 315 317 317 317 317 318 318 319 321 322 322 322 323 323 322 324 323 318 313 315 329 338 338 332 334 343 345 348 344 337 339 337 332
316 316 316 317 317 316 317 317 317 317 316 315 314 315 316 316 316 316 315 315 316 317 318 319 320 320 319 320 321 322 323 324 325 323 324 326 321 326 333 339 344 346 348 351 349 341 342 342 330
315 316 316 319 319 317 315 315 316 317 316 316 315 315 315 315 315 316 315 314 316 317 318 319 319 318 319 319 319 321 321 324 325 322 317 316 322 331 331 337 340 347 351 353 348 349 349 340 332
316 316 316 315 316 319 319 318 317 316 316 316 317 316 315 315 315 315 314 314 315 316 316 317 318 317 317 317 318 320 321 322 324 325 325 322 316 315 327 333 343 346 347 351 349 350 349 333 344
316 315 316 319 317 315 315 315 318 317 316 316 316 316 316 316 316 315 315 315 316 316 316 317 317 316 315 316 317 318 319 321 323 326 327 327 326 321 317 327 327 347 351 349 349 348 346 342 348

GFSSGP_850_thetae_084.txt.gz
Theta_e
320 326 325 325 334 338 339 335 334 332 331 330 329 329 330 330 335 343 341 341 343 340 325 320 319 319 324 331 336 336 332 329 327 323 321 319 319 319 319 319 319 319 319 319 319 319 319 319 320
321 323 326 326 336 341 342 336 335 331 329 328 328 329 329 331 334 336 339 342 343 342 335 320 319 319 323 329 335 336 330 328 325 322 321 320 320 320 320 320 320 320 320 320 320 320 320 320 320
322 325 325 326 334 339 343 341 339 332 328 328 328 329 329 332 333 336 338 342 344 343 342 321 319 319 323 326 334 336 332 329 326 322 321 321 321 320 320 320 320 320 320 320 320 320 320 320 320
324 326 325 326 326 334 338 338 337 336 328 327 327 329 330 332 332 334 339 343 343 345 345 322 319 320 323 324 328 333 334 331 328 323 321 321 321 321 321 321 320 320 320 319 319 320 320 320 320
324 324 327 328 327 326 334 334 335 336 332 328 327 328 331 332 330 331 338 343 343 343 346 326 320 320 322 324 326 330 334 333 330 325 321 321 321 321 321 320 320 320 319 319 319 319 319 320 320
323 325 327 326 327 327 327 329 334 334 334 331 328 328 330 332 330 329 331 342 343 342 346 342 320 320 322 323 325 329 333 335 332 328 321 321 321 321 321 320 320 320 319 318 318 318 319 319 319
322 325 328 327 326 326 327 327 328 328 331 332 330 332 331 331 329 328 330 342 342 341 345 345 327 320 321 322 324 326 329 333 335 330 324 321 321 321 321 320 320 319 319 319 318 318 318 318 318
321 324 324 326 328 327 327 327 325 325 327 329 330 332 332 330 328 328 329 339 341 341 344 346 342 320 321 321 322 325 326 328 332 330 324 321 321 321 321 320 320 320 319 319 319 318 318 317 317
320 323 325 324 325 326 326 327 326 326 325 325 327 330 331 330 328 327 328 332 343 340 345 346 344 325 322 322 322 323 326 327 328 324 321 321 322 321 321 321 320 320 320 319 319 318 318 317 317
320 322 323 324 325 326 326 326 327 327 325 326 326 326 330 331 329 328 327 328 336 341 342 348 346 331 325 334 322 322 324 326 325 321 320 321 321 322 323 324 324 324 322 320 319 319 318 318 318
319 322 322 323 324 324 325 325 325 327 327 327 327 327 328 330 329 327 326 326 333 339 340 344 345 341 339 340 338 329 322 322 322 321 320 321 322 323 338 340 340 337 334 326 321 320 324 326 325
319 320 321 322 323 323 324 324 324 326 328 328 327 327 327 327 329 328 326 325 329 338 341 341 344 343 342 341 342 340 335 322 321 320 321 321 322 326 339 343 343 344 342 336 339 334 334 338 337
319 320 320 320 320 320 321 322 323 325 326 328 327 326 325 325 327 328 326 324 328 331 340 338 342 345 346 343 346 344 343 338 335 329 326 323 325 329 337 341 344 342 342 341 341 340 338 338 337
319 319 320 319 319 320 320 320 321 323 325 324 326 326 324 324 325 328 326 324 325 333 332 340 340 338 341 343 344 345 347 343 340 342 340 341 336 332 342 343 339 333 339 339 339 338 336 333 335
318 318 318 319 319 319 319 320 320 320 320 320 320 323 324 322 322 325 326 324 325 325 326 328 335 336 337 339 342 345 343 344 343 342 343 343 343 342 343 344 338 331 333 335 335 328 329 333 332
317 317 317 318 318 318 319 319 320 319 319 319 319 320 322 321 321 323 325 325 327 325 324 328 327 341 329 329 331 342 343 342 343 343 341 341 341 339 334 333 331 329 328 328 327 328 328 331 337
317 316 316 317 319 319 319 318 319 319 319 320 320 321 321 321 320 320 320 322 325 323 324 326 327 329 338 330 329 331 330 334 330 336 338 340 340 338 334 331 327 325 326 323 323 330 330 336 340
316 317 318 318 319 319 318 318 318 318 319 320 320 320 320 321 321 320 320 322 322 323 320 319 328 328 335 333 330 335 341 342 340 337 337 336 338 339 337 334 332 330 330 323 322 330 331 334 341
319 318 318 318 319 319 318 318 319 318 318 319 320 320 320 320 320 319 319 320 319 321 325 320 318 328 328 329 326 330 329 341 342 341 340 338 338 339 337 333 331 332 333 326 323 329 333 338 343
318 318 317 317 317 317 317 318 318 318 319 318 319 319 319 319 319 319 319 319 319 317 315 321 320 319 327 326 324 329 329 328 334 336 343 342 340 340 340 338 336 335 331 328 324 324 329 334 336
317 316 316 316 317 317 318 318 318 318 318 318 318 318 318 318 318 319 319 319 321 322 318 315 317 318 316 323 323 324 325 326 325 327 329 334 338 334 341 340 337 339 337 331 326 326 328 335 343
315 316 316 316 317 317 317 319 318 319 320 320 319 318 318 317 318 318 319 319 321 321 321 318 315 317 317 315 318 322 322 325 326 324 326 328 330 339 336 341 337 339 337 337 337 326 329 336 334
316 316 316 316 316 317 317 317 318 319 319 319 321 318 318 318 318 319 319 318 319 320 319 320 316 312 313 315 316 318 321 323 324 323 326 327 330 338 342 333 339 341 332 337 339 337 342 345 344
316 316 316 316 316 317 316 317 318 319 320 320 320 318 318 318 318 318 317 318 319 319 319 319 320 320 313 312 313 313 313 317 320 323 325 327 328 327 329 330 330 330 331 336 339 338 339 352 344
316 316 317 317 318 319 318 319 321 321 318 318 319 318 317 315 316 317 318 320 319 319 319 319 319 319 323 323 316 313 313 313 313 314 316 325 327 323 332 332 329 330 331 341 346 342 340 343 345
317 317 318 319 321 320 319 319 318 319 319 317 317 317 316 315 315 316 317 319 318 318 319 319 319 320 322 322 323 323 321 318 313 313 313 316 326 325 322 336 329 330 331 332 333 334 338 345 345
318 319 317 318 319 321 320 318 318 319 320 319 317 316 315 315 316 316 317 317 317 317 318 319 319 319 321 321 319 320 320 319 317 317 316 319 322 324 317 329 332 330 331 331 330 331 331 336 345
317 317 317 318 321 321 317 317 317 319 319 318 316 316 316 316 316 315 317 317 316 315 315 318 319 320 320 320 320 319 319 321 321 320 316 315 314 316 315 317 328 334 337 340 339 336 342 346 347
317 319 318 317 318 321 319 317 319 319 318 318 318 316 316 316 316 316 316 316 316 315 315 317 318 319 319 319 318 318 318 318 320 321 321 321 320 316 312 314 322 328 336 345 341 342 344 348 351
317 317 318 321 320 320 319 319 318 318 318 318 318 316 316 316 316 317 317 316 316 316 316 316 317 317 317 318 317 316 317 318 320 320 320 322 325 326 323 314 312 325 333 346 347 344 344 349 353

GFSSGP_850_thetae_087.txt.gz
Theta_e
322 321 326 326 328 329 334 332 331 332 328 328 328 327 332 336 341 343 342 345 341 339 322 320 324 326 324 324 330 329 326 323 321 320 321 322 321 320 320 319 319 320 320 320 320 319 319 320 319
323 322 326 325 330 333 335 338 337 336 331 328 328 329 332 334 337 338 339 343 345 342 329 319 321 324 323 323 325 329 326 324 322 321 320 320 320 320 321 320 320 320 320 320 320 320 320 320 320
322 324 326 319 323 333 336 338 335 336 336 329 327 329 331 333 333 336 340 342 343 344 341 320 320 324 324 324 324 327 329 327 324 321 320 320 321 321 321 320 320 320 320 320 320 320 320 320 320
322 324 326 322 322 323 332 334 335 336 335 333 327 328 331 332 332 336 338 339 343 345 342 323 319 323 325 324 325 326 332 332 326 322 321 321 321 321 321 320 320 320 320 320 320 320 320 320 320
320 323 321 324 323 324 323 333 335 335 333 334 332 328 330 329 330 330 336 337 344 344 345 332 319 323 326 325 325 326 327 334 329 324 322 321 321 321 321 320 320 320 320 320 320 320 319 320 320
319 324 322 323 323 324 323 329 334 332 332 333 332 330 330 329 329 329 329 339 340 345 346 339 320 321 325 327 326 327 327 329 331 327 322 321 321 321 321 320 320 320 320 319 319 319 319 319 319
317 317 321 323 324 324 324 325 328 331 331 328 329 330 331 329 328 328 330 342 341 344 346 340 320 321 323 326 328 327 327 326 330 329 324 321 321 321 321 320 320 320 319 319 319 319 318 318 318
318 316 319 320 322 323 324 325 326 331 329 331 327 329 330 328 329 328 329 341 342 344 347 343 324 321 322 324 327 328 327 326 325 326 324 321 321 321 321 320 320 320 319 319 319 319 318 318 317
318 315 318 320 321 321 323 322 325 326 325 326 326 327 328 329 328 329 328 329 343 347 347 344 342 320 321 323 325 327 328 327 327 325 323 321 321 321 321 321 320 320 320 320 320 319 319 318 318
315 314 316 318 320 320 322 322 323 324 324 325 325 326 327 328 328 329 327 327 332 342 350 345 343 342 321 322 324 325 326 328 327 326 322 321 321 321 321 321 321 322 323 324 323 320 319 319 321
315 314 316 319 321 321 322 322 323 322 323 324 324 325 325 326 328 328 329 325 333 338 340 348 344 343 339 321 323 325 324 325 327 326 323 321 321 321 321 322 325 330 335 338 329 326 326 326 332
314 316 317 319 320 320 320 321 320 321 323 326 326 326 326 327 327 327 329 327 326 333 342 349 346 343 334 322 322 332 327 323 325 325 323 320 320 321 321 322 328 339 336 340 338 331 331 330 331
314 315 318 318 319 320 320 319 319 320 321 325 327 327 327 327 327 326 327 327 325 329 339 347 344 343 342 335 341 342 342 341 331 322 321 321 320 321 322 324 331 338 336 337 337 334 332 332 333
316 316 316 317 318 318 318 318 319 319 319 320 325 327 327 326 326 325 326 326 325 328 332 344 346 345 343 342 348 348 344 346 342 333 329 324 323 323 324 327 332 333 331 330 332 336 336 337 337
315 313 314 315 317 316 318 317 317 319 319 319 319 320 324 326 326 325 324 326 326 326 331 329 338 336 337 343 342 343 347 346 342 341 341 341 341 340 336 331 332 331 330 333 335 330 331 336 337
312 312 312 313 316 317 316 316 317 318 319 319 319 319 319 320 325 324 322 325 325 325 325 328 325 328 328 328 338 342 343 346 345 346 345 346 344 343 341 338 334 334 330 326 326 327 328 333 334
312 311 312 313 315 315 314 315 317 318 318 318 319 319 319 319 323 322 321 324 325 326 325 325 325 325 326 327 328 330 340 343 343 344 343 343 343 342 340 338 336 336 333 331 327 328 327 329 331
312 312 313 314 316 315 315 315 315 318 318 318 318 319 320 320 321 320 320 320 321 322 325 325 326 326 326 327 327 328 329 333 338 338 342 342 340 342 340 339 337 335 333 334 328 327 330 326 331
315 316 316 317 316 314 314 314 315 317 317 317 317 318 318 320 320 320 320 320 319 323 325 327 330 330 327 327 327 327 328 333 335 336 335 332 333 338 339 338 338 336 332 331 328 326 328 326 332
315 314 314 315 315 315 313 314 314 315 316 317 318 317 317 319 319 320 320 319 320 321 322 321 318 333 335 328 329 328 327 327 335 334 344 342 339 335 334 336 338 338 336 332 329 327 326 325 330
314 314 315 315 315 315 314 314 314 316 317 317 317 317 318 317 319 320 320 319 320 320 319 318 320 320 327 335 333 330 329 327 327 330 331 333 332 334 337 333 334 336 336 337 336 333 326 325 325
313 314 315 315 314 313 314 314 314 314 315 316 316 317 317 317 317 320 320 319 319 319 319 318 316 318 319 319 322 329 328 328 326 327 326 326 325 326 332 330 335 339 333 338 337 337 333 333 330
314 315 314 315 313 312 313 312 314 314 315 315 316 317 318 318 317 318 320 320 321 321 320 319 318 316 314 315 316 317 316 320 324 325 326 325 325 327 331 338 341 341 335 335 340 341 341 339 333
316 314 313 313 311 313 313 313 314 314 316 318 317 318 318 318 319 320 320 319 320 320 320 318 317 315 315 313 313 313 314 314 316 323 324 325 326 325 328 338 335 330 330 330 335 340 342 339 334
315 313 313 313 312 314 314 315 315 317 318 317 317 317 318 318 318 318 318 318 319 319 318 318 319 319 318 318 315 314 314 314 313 314 315 322 324 326 326 327 328 328 327 329 335 340 342 335 334
316 316 316 318 315 316 316 318 317 317 317 317 317 318 316 315 317 317 317 317 318 319 318 318 319 319 319 319 320 322 321 321 318 317 316 313 314 322 325 325 325 324 328 327 334 339 342 339 334
316 316 316 317 318 318 315 316 316 317 317 317 316 317 315 315 315 315 318 318 319 319 319 318 319 318 318 318 320 321 320 319 319 317 317 316 315 317 315 319 322 323 322 327 332 330 332 343 335
314 316 315 317 322 321 318 317 315 317 317 317 317 316 316 316 316 316 317 318 318 316 315 317 318 318 318 319 319 318 317 318 318 319 322 321 318 318 316 316 317 317 319 327 329 337 339 338 335
315 314 315 318 317 320 318 314 317 318 316 315 315 317 315 315 316 316 316 316 316 316 316 315 315 316 318 319 319 319 319 318 316 315 317 318 319 319 319 317 314 312 315 319 327 334 337 341 343
314 316 316 321 321 319 320 319 316 316 316 316 316 316 316 316 315 316 315 315 316 317 316 316 315 317 318 318 319 319 318 317 316 315 314 315 320 320 321 323 326 323 318 314 319 330 338 339 342

GFSSGP_850_thetae_090.txt.gz
Theta_e
323 322 323 325 327 326 330 332 331 335 334 335 334 336 335 338 341 342 345 344 344 324 320 326 332 334 331 326 321 321 320 320 320 322 324 323 321 321 319 319 320 320 320 320 320 320 320 320 320
322 323 325 325 327 331 333 335 336 334 335 335 331 333 335 337 339 341 342 343 337 331 321 321 328 332 331 325 322 321 321 320 321 322 322 321 320 320 320 320 320 320 320 320 320 320 320 320 320
320 322 325 317 320 330 333 336 335 333 335 335 327 331 332 334 336 339 337 341 342 339 323 320 324 329 330 325 323 322 322 321 320 320 321 320 320 320 321 321 320 321 320 320 320 320 320 320 320
320 323 325 320 321 321 326 324 327 334 334 335 331 329 330 331 334 338 336 339 343 340 332 320 321 324 327 326 324 323 322 322 321 321 321 321 321 321 321 321 320 320 320 320 320 320 320 320 320
319 321 320 321 322 321 323 323 325 330 329 332 330 329 328 328 332 340 337 339 340 343 335 322 321 323 328 327 325 324 323 323 323 321 321 321 321 321 321 321 320 320 320 320 320 320 320 320 320
318 320 319 321 321 322 322 324 325 330 333 332 330 329 328 328 328 333 339 341 341 342 341 322 320 323 326 329 326 324 324 323 322 323 321 321 321 321 321 321 320 320 320 319 319 319 319 319 319
315 314 318 321 322 322 323 324 324 328 329 329 329 329 328 330 328 330 339 342 341 345 345 326 319 323 326 328 329 326 324 324 323 322 322 321 321 321 321 321 320 320 320 319 319 319 318 318 318
317 313 317 317 319 319 321 322 323 323 328 328 328 328 327 329 329 330 331 342 343 345 346 331 319 322 325 327 330 329 325 324 324 323 322 321 321 321 321 321 320 320 320 319 319 319 319 319 318
316 313 313 315 318 319 321 320 322 323 328 328 328 328 328 329 329 330 328 336 345 346 347 335 321 321 324 326 329 333 332 327 326 325 322 322 321 321 321 321 321 320 320 320 320 320 319 319 319
313 309 313 314 316 316 319 319 320 322 323 324 328 326 325 326 327 329 327 333 338 346 347 337 322 321 322 324 327 331 335 334 329 326 323 322 322 322 321 321 321 321 321 323 329 325 322 322 323
312 311 312 315 317 318 318 319 320 321 320 322 323 325 325 326 328 329 328 329 331 336 347 346 337 322 322 323 324 327 330 332 331 328 326 323 321 321 321 321 322 323 326 331 331 328 330 328 330
312 313 314 315 316 317 317 318 318 319 319 320 321 324 325 326 327 328 326 327 332 330 336 342 347 338 323 321 322 324 326 327 329 329 327 325 321 321 321 321 322 325 329 331 332 332 332 333 333
312 312 315 316 316 316 317 316 316 317 319 319 322 326 325 326 327 327 327 325 328 329 332 338 348 345 339 328 324 324 323 324 324 325 327 326 322 321 321 321 322 324 328 327 329 330 335 337 335
313 313 313 315 315 315 316 316 317 318 318 319 319 323 326 326 327 326 327 326 326 326 331 338 345 343 341 331 329 328 337 336 339 338 326 323 323 321 320 321 322 323 325 328 327 328 334 338 337
313 311 310 313 314 314 316 314 315 318 319 318 319 319 320 326 327 325 325 326 326 327 331 338 338 343 343 341 342 345 343 343 342 342 337 330 326 321 321 322 322 323 327 329 328 330 332 336 336
310 310 310 310 313 314 315 314 314 318 317 318 318 318 319 319 323 325 325 325 325 326 328 335 341 345 345 344 346 347 346 346 344 343 341 341 342 341 339 336 334 330 332 336 332 331 335 337 336
309 309 310 311 313 312 313 312 314 316 315 316 318 318 318 318 319 318 321 324 325 325 325 329 330 338 332 336 336 342 344 345 345 344 343 344 344 344 344 342 340 338 336 336 336 334 333 331 333
310 310 311 312 314 313 313 311 312 315 315 315 317 317 318 320 320 320 320 323 323 325 325 325 326 326 325 326 327 328 332 337 343 344 343 342 342 343 344 343 342 340 338 334 334 332 333 333 334
311 311 312 314 315 314 312 311 312 313 315 315 316 316 317 317 317 320 321 322 321 324 324 325 326 328 330 330 329 329 327 329 333 332 331 336 341 340 340 342 341 339 336 334 334 334 334 334 335
313 312 312 312 314 314 312 312 312 312 314 316 317 317 317 317 317 318 320 320 320 320 320 320 322 325 329 327 329 329 328 329 331 332 333 337 333 332 339 338 339 335 336 337 336 334 332 333 334
313 312 312 313 313 313 313 312 312 313 314 315 316 316 316 316 317 317 318 320 320 320 320 320 322 326 329 331 328 327 327 327 328 330 335 340 338 332 338 338 336 335 337 339 338 336 332 335 335
312 313 313 314 313 311 313 313 312 311 312 313 314 316 316 316 316 316 316 319 319 320 321 321 323 322 324 332 331 328 328 329 328 328 329 330 330 332 332 328 330 337 331 338 336 339 339 338 336
314 314 313 313 312 310 311 311 312 311 312 312 312 315 317 317 317 317 316 317 321 323 323 323 321 319 319 321 327 333 334 331 330 329 327 327 329 327 327 327 328 329 330 339 337 337 341 339 338
314 313 312 311 309 311 310 310 313 312 312 313 315 317 317 317 318 318 316 318 321 320 319 318 318 317 317 315 314 314 316 321 322 325 327 325 326 326 327 327 327 328 329 333 334 333 329 332 340
313 311 313 313 313 315 311 311 312 312 314 315 315 317 317 317 317 318 317 321 321 320 319 318 318 317 317 316 316 315 314 313 314 314 314 314 320 325 325 325 327 328 331 335 335 331 329 329 339
313 313 314 318 315 316 314 314 314 314 315 316 317 317 316 318 317 320 321 321 320 319 318 318 318 317 317 317 317 317 317 318 318 317 317 315 314 315 320 322 324 326 326 329 331 329 329 330 334
314 313 314 316 318 316 317 316 315 315 315 315 315 315 315 317 318 318 319 319 318 317 318 318 318 317 318 317 317 317 317 317 318 317 315 315 315 315 316 316 318 319 322 326 327 326 329 331 329
314 315 315 313 322 323 320 318 317 315 315 315 314 313 314 315 315 315 316 317 317 318 318 318 318 317 318 318 318 317 317 317 318 316 315 314 313 316 317 318 318 321 326 325 327 324 326 329 330
314 314 317 317 316 322 321 316 314 315 314 314 315 316 316 316 316 316 315 316 315 318 318 317 316 317 318 318 317 318 318 317 317 317 317 316 315 314 316 317 317 318 321 319 319 321 326 331 332
314 314 314 314 317 319 318 318 314 315 315 314 314 316 316 316 316 316 316 315 316 317 315 316 315 315 316 315 317 318 318 318 318 318 317 316 316 316 314 314 317 317 318 325 327 326 322 320 325

GFSSGP_850_thetae_093.txt.gz
Theta_e
322 322 323 325 327 326 331 331 331 334 333 334 334 334 336 337 339 339 345 346 338 323 324 333 338 338 339 334 327 321 320 320 325 333 332 329 327 323 320 319 319 319 319 319 319 319 319 319 318
321 322 324 324 326 332 333 333 334 333 333 333 332 333 333 338 341 342 344 343 336 322 324 331 332 333 335 327 322 320 319 319 326 328 326 325 322 320 320 320 320 320 320 320 320 320 320 320 320
319 321 324 316 322 330 333 334 325 325 330 331 329 330 332 334 337 337 339 339 331 323 323 328 330 327 329 325 320 320 320 321 324 324 323 321 320 320 320 321 321 321 320 320 320 320 320 320 320
319 322 323 320 321 320 329 322 323 324 331 329 329 328 328 331 333 338 339 340 336 325 323 326 331 326 325 324 322 321 321 322 322 322 321 320 320 321 321 320 320 321 320 320 320 320 320 320 320
319 320 318 321 321 320 321 323 322 324 329 329 330 328 327 331 337 336 338 342 341 334 323 325 327 328 324 323 322 322 322 321 321 321 321 321 321 321 321 320 320 320 320 320 320 320 319 319 319
318 319 318 321 320 321 321 322 323 323 328 330 329 328 327 329 333 332 339 340 340 339 328 323 328 328 325 323 323 323 322 322 322 321 321 321 321 321 321 320 320 320 320 320 319 319 319 318 318
314 313 318 320 321 320 322 323 322 322 322 325 330 326 327 327 331 338 342 342 342 336 327 324 329 329 327 325 324 324 323 322 322 322 322 321 321 321 321 321 320 320 320 320 319 319 319 318 318
316 311 316 316 318 319 319 320 320 321 321 322 327 328 327 326 328 329 340 341 343 342 333 324 326 329 329 328 325 325 324 323 323 323 323 322 322 321 321 321 320 320 320 320 320 319 319 319 318
315 311 313 315 317 317 318 318 319 319 320 321 325 328 329 327 328 330 330 335 342 344 337 328 323 328 330 329 328 326 326 325 324 323 322 322 322 322 322 321 321 321 321 320 320 320 320 320 319
311 309 312 313 315 314 316 317 317 318 319 320 320 322 327 327 327 329 330 331 338 344 344 335 324 323 328 330 330 329 327 329 328 326 323 322 322 322 322 321 321 321 321 321 325 329 327 324 322
311 311 311 313 315 316 315 316 317 318 317 320 320 320 322 327 327 328 329 329 329 338 346 346 330 322 324 327 330 331 329 329 330 329 327 324 322 322 322 322 322 321 322 324 329 330 332 332 328
311 312 312 314 315 314 313 316 316 317 318 318 319 320 324 325 327 327 328 329 331 332 341 346 335 323 321 324 326 329 330 329 328 329 329 329 324 322 322 322 322 322 324 327 331 333 335 335 333
310 311 313 314 314 314 315 313 314 315 316 318 319 319 325 325 327 326 326 327 329 329 331 338 342 342 329 322 323 324 327 329 328 329 329 328 327 324 321 321 321 321 323 328 329 333 338 337 336
312 311 311 313 314 313 313 313 314 316 317 318 318 319 319 324 326 327 327 327 327 327 329 331 338 345 345 342 330 323 323 325 327 328 328 328 327 326 322 320 321 321 322 325 330 333 336 337 336
312 311 309 311 313 313 314 312 313 316 315 316 316 318 319 319 321 326 327 327 327 327 327 328 340 347 344 342 339 332 325 325 326 325 326 327 325 324 324 321 320 321 322 325 329 333 334 336 337
309 308 309 309 311 312 313 311 313 315 315 315 315 316 317 319 319 322 325 325 325 326 327 328 338 343 343 342 341 335 328 335 330 341 342 339 330 325 323 322 321 323 326 327 330 334 335 332 334
306 307 309 310 310 312 311 311 312 315 314 315 316 315 315 317 318 318 319 322 324 325 326 328 332 333 336 339 342 341 343 343 339 337 341 341 340 338 340 339 340 340 339 337 338 338 338 333 333
308 309 310 311 312 312 311 310 310 314 313 314 315 316 314 316 318 318 319 319 319 324 325 327 330 335 337 341 343 343 345 346 344 339 331 330 342 344 344 342 343 342 343 341 340 338 338 336 333
310 310 310 311 311 312 311 310 310 312 313 312 315 315 315 316 317 317 318 319 319 321 325 326 326 337 343 342 344 343 340 342 343 343 340 339 339 335 336 338 342 343 343 340 339 338 338 338 338
311 311 311 311 311 311 311 311 310 311 312 314 314 315 316 316 316 316 316 318 320 322 324 326 329 330 339 332 333 330 329 333 335 336 338 340 339 335 331 329 331 338 339 340 338 338 339 339 338
311 312 312 312 312 311 312 311 311 311 312 313 314 314 314 315 315 316 315 316 320 321 322 324 325 327 331 329 329 329 329 330 332 336 337 336 335 334 334 330 330 331 336 336 336 337 340 339 339
311 311 312 312 312 311 311 312 310 310 310 311 313 313 314 314 315 315 316 316 316 318 319 320 321 322 325 328 331 330 330 330 329 331 329 335 334 335 337 335 329 331 332 332 333 336 339 340 340
312 312 311 312 311 310 310 308 309 310 310 311 309 313 314 315 317 317 317 318 318 316 317 320 321 322 324 325 330 334 332 328 328 329 328 328 331 333 333 334 335 331 330 329 329 329 336 339 341
313 312 311 307 307 310 310 309 311 310 311 310 311 314 315 315 317 317 317 317 317 318 318 322 323 325 324 325 328 332 332 330 328 326 328 328 327 327 327 329 329 328 327 328 328 328 328 331 335
313 309 310 311 312 315 311 310 311 310 311 311 310 313 315 316 317 317 318 317 316 317 320 323 322 323 320 317 316 316 315 316 318 322 325 328 329 329 328 326 326 326 327 327 327 327 328 329 332
311 310 312 315 314 315 314 315 313 312 312 314 313 315 315 316 318 318 318 318 318 322 324 324 320 317 317 317 317 316 315 315 315 314 312 313 315 315 316 317 321 325 326 329 328 326 328 329 330
313 313 311 313 315 315 314 314 314 314 313 313 314 314 312 315 316 319 318 320 321 322 319 319 318 317 317 317 316 316 315 315 315 314 316 315 313 312 312 313 314 319 324 324 325 327 327 327 328
314 314 314 313 321 320 317 317 316 314 313 313 313 313 315 314 314 317 317 320 321 320 319 318 318 318 317 317 317 316 315 316 316 315 316 316 314 314 313 313 314 315 316 318 321 323 324 325 326
315 316 317 317 317 322 321 316 310 314 313 313 312 313 315 315 315 315 315 316 316 317 319 319 318 318 317 317 317 315 315 316 317 316 316 316 316 316 313 313 313 314 315 317 319 323 327 327 326
314 315 316 319 320 319 319 315 312 311 313 313 313 313 313 315 314 315 315 315 316 316 316 317 318 318 318 317 316 316 316 317 318 317 316 316 317 317 315 315 313 312 314 314 315 317 323 324 326

GFSSGP_850_thetae_096.txt.gz
Theta_e
322 322 323 325 326 325 330 329 328 332 332 332 334 333 336 336 338 337 344 342 336 329 328 340 340 340 339 338 334 328 336 340 341 341 339 331 325 322 320 319 319 319 320 320 320 320 320 319 318
320 321 323 323 326 332 332 331 332 331 327 331 331 329 333 337 342 342 343 343 339 326 325 340 340 340 339 338 331 326 326 334 336 338 335 327 323 320 319 319 320 320 320 320 320 320 320 320 319
318 320 323 316 322 331 333 330 322 323 330 331 328 330 331 333 337 338 341 340 335 325 324 337 340 339 337 333 325 322 320 323 329 333 327 323 321 320 320 320 320 320 320 320 320 320 320 319 319
319 321 321 320 321 321 329 322 321 323 330 330 328 327 328 332 334 337 339 338 331 324 324 336 338 338 335 327 322 320 319 323 327 324 323 321 320 320 320 321 321 320 320 320 320 320 320 319 319
319 320 318 320 321 320 320 321 321 322 326 329 329 327 327 336 336 336 338 339 337 323 325 333 336 336 333 325 321 320 320 323 324 323 322 321 320 321 321 321 320 320 320 320 320 320 319 319 319
317 318 317 320 320 321 320 322 322 321 321 328 328 327 327 329 329 332 340 340 338 327 325 332 335 337 333 326 322 321 322 323 322 322 321 321 321 321 321 321 320 320 320 320 319 319 319 318 318
314 313 317 319 320 320 321 321 320 318 318 321 322 326 327 332 331 338 340 338 340 333 325 328 333 336 334 328 324 322 321 322 322 322 322 322 322 321 321 321 321 320 320 319 319 319 318 318 318
316 311 315 316 318 319 319 319 320 319 318 319 320 326 326 328 333 340 341 340 340 338 330 326 330 333 333 332 329 324 322 321 320 321 322 322 323 322 321 321 321 320 320 320 319 319 319 318 318
315 311 313 315 316 316 317 315 318 318 318 319 320 321 323 327 330 335 341 340 342 339 335 327 327 330 332 332 331 329 325 323 322 321 321 321 322 322 322 321 321 320 320 320 320 320 320 320 319
311 309 312 313 314 315 315 315 316 317 317 317 318 319 321 326 330 335 336 334 335 341 341 335 326 327 329 330 330 329 328 327 324 323 322 321 321 322 322 321 321 321 321 321 321 327 329 327 325
309 310 310 313 315 315 313 315 316 316 315 317 317 317 319 325 329 334 330 330 330 336 342 342 331 325 326 329 328 329 327 328 328 325 323 322 322 321 321 321 321 321 321 321 325 333 332 333 328
311 311 311 312 313 312 312 314 313 315 316 317 317 317 320 322 324 329 329 328 330 333 341 343 337 329 325 328 329 328 328 327 327 327 326 323 322 322 321 321 321 321 321 325 329 335 335 335 334
309 310 312 313 313 313 313 312 312 313 316 317 317 317 319 323 324 325 329 328 328 330 336 339 345 340 329 323 327 328 328 327 326 326 327 327 325 323 322 321 321 321 321 324 332 333 337 337 337
310 310 310 312 312 312 312 312 313 315 316 317 317 317 317 321 325 325 331 331 330 329 329 330 336 340 337 326 323 322 325 327 328 330 330 331 330 328 326 323 321 321 321 322 328 335 337 336 336
310 309 308 310 312 312 312 311 312 314 315 316 315 315 316 316 317 324 326 327 327 328 328 327 330 336 341 342 333 325 323 325 328 329 337 337 333 331 330 328 325 321 321 322 327 333 339 340 339
308 306 307 307 310 311 312 311 311 313 313 313 314 315 315 316 316 317 321 325 326 327 327 327 327 328 334 341 344 340 332 326 326 331 326 327 326 326 326 326 326 324 322 323 327 333 338 340 342
304 305 307 308 308 310 311 310 311 315 314 313 314 315 315 316 316 316 317 323 326 326 327 326 325 326 336 343 342 341 339 333 328 328 328 330 330 337 332 326 326 324 330 337 338 339 342 341 340
307 308 309 309 310 310 310 308 308 314 312 313 314 315 315 316 316 316 317 317 317 320 326 326 325 326 332 336 340 341 338 331 328 332 334 331 333 336 339 337 337 340 342 341 342 342 343 341 340
310 309 309 309 310 311 310 309 309 311 311 312 313 314 315 315 316 316 316 316 317 319 319 325 325 325 330 333 338 341 339 339 341 340 340 333 329 329 334 340 342 342 339 340 343 341 339 339 341
309 309 309 310 310 309 309 309 309 308 310 313 314 314 315 315 315 315 315 316 316 317 319 319 325 327 328 336 340 340 341 342 335 340 339 337 338 331 330 330 339 337 336 333 334 338 335 335 337
310 310 310 311 311 310 310 310 310 311 311 313 313 314 314 314 314 314 314 315 315 316 316 319 321 327 332 333 339 341 337 338 333 334 332 334 333 337 335 331 329 327 331 331 328 331 331 336 335
309 309 311 311 310 310 310 312 309 309 309 309 312 313 314 314 314 315 315 314 315 315 316 316 321 324 331 333 340 337 332 333 330 328 333 331 332 333 334 334 333 334 331 332 332 331 330 329 332
310 311 310 311 310 309 310 308 308 308 309 309 309 313 314 314 315 315 317 317 317 317 317 317 317 321 327 334 332 333 330 329 328 331 335 335 334 336 334 333 336 335 333 330 331 331 329 331 329
311 312 309 306 306 309 309 309 311 309 309 310 310 312 313 313 313 314 316 317 317 317 316 316 317 317 321 329 336 336 330 330 332 332 331 330 330 329 330 332 331 332 334 330 331 330 330 329 329
311 309 309 311 311 315 311 310 310 309 310 309 309 312 315 315 315 315 316 317 317 317 317 317 316 316 319 325 333 336 335 334 334 332 330 331 330 330 329 328 328 328 330 330 328 328 329 329 329
309 308 310 314 313 313 312 313 312 310 311 313 314 314 315 315 314 314 316 318 317 317 317 316 315 317 323 327 329 332 333 328 323 319 316 316 315 315 319 322 326 327 327 326 326 327 327 328 329
313 312 311 312 312 313 313 312 313 313 313 313 313 313 312 313 315 314 315 319 319 318 318 318 320 324 326 324 318 316 316 316 315 314 313 313 314 313 312 313 313 314 318 323 324 326 327 330 331
313 313 315 315 320 319 314 315 315 314 313 312 312 311 312 312 313 315 315 315 319 320 321 323 324 322 318 317 317 316 316 316 315 314 314 314 313 315 314 314 313 312 312 313 314 319 323 325 324
314 317 316 316 318 320 320 316 311 312 312 313 310 312 311 312 313 313 315 315 315 318 320 320 318 317 317 317 316 316 316 316 314 314 315 315 315 314 314 314 313 312 312 312 313 313 315 318 321
316 316 315 319 320 321 320 316 311 311 312 311 310 310 311 312 313 314 315 315 315 314 315 317 318 319 318 317 316 316 316 316 315 314 315 316 316 316 316 316 314 313 313 312 313 314 315 316 317

GFSSGP_850_thetae_099.txt.gz
Theta_e
320 322 322 324 330 333 335 336 332 331 333 332 333 336 340 339 341 345 344 336 334 329 331 338 338 337 336 335 333 336 343 345 345 343 340 330 324 321 320 319 319 319 319 319 320 320 319 318 319
319 320 322 324 330 333 335 333 328 328 327 329 330 331 337 341 341 343 344 338 336 332 328 337 338 337 337 336 333 336 343 344 343 342 338 327 322 320 320 320 320 320 320 320 320 320 320 318 318
317 318 323 324 329 333 335 326 326 325 327 331 329 329 332 336 337 340 342 340 338 331 325 334 338 338 338 338 335 332 342 342 342 341 335 325 321 320 320 321 321 320 320 320 320 320 319 319 318
317 320 321 325 325 326 332 325 324 325 328 329 329 331 329 332 335 337 339 342 336 328 325 333 339 339 338 338 335 328 335 339 339 338 329 322 321 321 321 321 321 320 320 320 320 320 319 319 319
318 320 324 325 324 323 323 323 323 324 324 326 328 330 331 334 335 337 339 339 334 327 325 332 338 339 339 337 332 326 324 331 333 334 325 322 321 321 321 321 320 320 320 320 319 319 319 319 319
319 319 322 324 324 322 323 322 323 322 322 323 324 326 329 330 332 337 338 338 337 328 323 330 338 339 338 335 327 323 321 323 331 329 324 321 321 322 321 321 320 320 320 319 319 319 318 318 318
319 321 320 321 322 322 323 321 322 321 322 322 320 325 328 329 330 334 340 340 338 328 324 327 336 337 337 334 325 321 320 324 328 325 323 321 321 322 322 321 320 320 319 319 318 318 318 317 317
316 319 320 320 319 319 320 320 319 320 320 319 320 326 326 325 329 335 340 339 337 330 325 327 333 335 336 334 327 323 322 324 325 323 322 321 321 321 321 321 320 320 319 319 318 318 318 318 318
315 318 318 318 319 318 318 319 317 317 317 318 319 319 319 321 325 336 340 338 337 333 329 327 333 335 334 333 328 324 323 323 324 323 322 320 321 321 320 320 320 320 320 319 319 320 320 320 320
316 318 318 317 318 318 316 316 316 317 318 318 318 318 317 320 326 335 340 338 338 337 336 330 328 333 333 334 330 326 323 322 321 321 320 320 321 321 321 321 320 320 320 320 320 321 331 331 328
312 316 315 315 315 316 316 316 315 316 317 317 317 318 318 318 327 331 338 340 336 336 338 337 330 329 333 333 331 328 326 324 323 322 321 321 321 321 321 321 321 321 321 321 321 328 334 335 331
314 313 314 314 313 314 314 314 315 315 316 316 316 316 317 319 322 327 333 336 334 332 334 340 339 331 329 333 332 331 328 326 325 324 323 322 322 321 321 321 321 321 321 322 325 332 337 337 336
313 313 312 312 312 312 312 314 315 314 316 316 316 317 317 317 322 322 325 332 335 331 331 336 341 340 331 328 332 331 332 329 329 328 325 324 323 323 322 322 322 322 322 322 327 336 338 339 339
312 312 313 312 313 312 313 315 313 316 315 316 316 316 316 316 317 324 324 326 330 331 329 335 341 342 340 338 328 328 330 330 330 329 329 327 326 325 326 326 324 325 323 322 322 326 334 338 338
311 313 312 313 314 315 313 315 315 315 314 315 315 315 315 316 316 317 322 325 328 329 330 333 334 340 338 340 338 327 326 331 330 330 329 332 334 331 330 330 329 328 326 323 322 322 328 334 340
312 311 314 314 312 313 313 316 315 313 314 315 315 315 315 315 316 316 317 319 326 327 328 329 333 333 333 335 339 337 327 326 326 328 329 330 329 332 330 330 329 329 328 325 322 325 329 334 340
311 313 312 312 313 312 314 315 316 314 314 315 315 315 315 316 316 316 316 316 319 323 327 327 328 328 329 329 331 336 334 330 327 327 331 329 329 327 325 325 327 326 325 324 325 334 337 341 340
311 311 312 314 315 315 315 316 316 315 315 315 315 315 315 315 316 316 316 315 317 321 325 330 328 328 327 330 329 337 342 340 336 330 328 327 329 328 327 329 333 329 326 330 336 342 341 339 337
312 313 314 314 315 313 316 316 316 316 315 315 315 316 316 315 315 316 316 316 315 316 318 324 326 327 329 328 329 339 342 342 341 337 330 326 327 328 332 339 338 338 339 338 342 342 341 337 333
312 313 314 314 314 314 316 316 316 316 316 315 315 316 316 316 315 314 315 315 315 315 315 317 318 322 329 328 329 338 337 338 340 338 330 330 335 334 335 336 338 337 337 339 337 335 335 336 333
313 314 314 314 315 314 314 316 316 316 314 314 314 315 315 314 314 314 314 315 314 314 316 316 316 319 321 327 331 333 341 339 340 336 339 337 334 338 335 333 336 334 329 327 329 332 331 333 330
314 314 314 314 315 315 314 316 316 316 316 316 315 316 315 315 315 314 314 315 315 315 314 315 315 316 316 320 330 334 336 339 339 340 336 332 332 335 337 336 333 332 332 330 328 330 328 327 332
314 313 314 314 315 315 316 316 316 315 316 317 317 316 316 314 313 313 314 313 314 315 317 317 317 317 316 317 320 329 340 342 340 333 328 330 330 331 334 333 334 335 333 331 329 330 330 331 332
314 314 315 313 314 316 316 316 317 317 317 317 316 315 315 316 316 315 316 316 316 316 317 317 317 316 316 316 317 321 329 339 337 334 332 330 333 336 334 333 335 334 331 331 334 333 331 333 332
314 315 316 317 317 318 317 317 317 317 317 317 316 316 316 315 315 316 315 315 315 316 317 317 317 317 317 317 317 317 324 337 335 333 337 335 332 331 332 332 332 330 333 334 334 332 334 332 330
316 316 317 321 320 319 317 317 318 317 315 316 316 316 314 313 313 314 316 315 316 318 318 318 318 317 317 317 316 316 321 332 336 335 333 332 331 330 330 329 329 329 329 329 329 331 330 328 329
316 316 316 317 317 318 318 318 317 317 317 316 316 314 313 312 313 313 314 315 315 315 316 319 320 321 320 318 319 319 324 332 333 331 330 327 318 316 315 315 318 323 325 326 327 327 327 326 327
316 316 317 318 320 321 319 319 319 318 317 316 316 313 312 312 312 313 314 314 315 315 315 317 321 323 324 325 326 330 335 331 327 321 316 314 313 313 313 314 313 313 314 315 317 321 324 325 327
317 318 318 318 319 322 322 320 318 318 315 314 313 312 313 313 314 314 315 315 315 315 315 314 317 319 318 319 323 322 317 316 315 315 314 314 314 315 314 314 315 314 314 314 315 316 317 320 323
316 317 317 323 324 321 322 321 316 315 313 313 313 313 314 313 314 315 315 314 314 314 314 314 314 314 316 318 318 317 317 316 316 315 314 315 315 315 315 313 315 315 314 316 316 316 317 318 320

GFSSGP_850_thetae_102.txt.gz
Theta_e
320 320 323 326 334 337 341 342 338 338 337 335 335 338 343 343 345 351 349 344 341 345 334 339 339 338 340 340 340 343 344 346 345 343 340 329 322 321 320 319 319 319 319 319 319 319 318 319 322
318 320 324 326 334 340 342 339 340 335 334 333 334 335 340 345 344 349 347 342 343 346 330 337 338 338 337 336 334 337 342 346 345 343 339 328 322 320 320 320 319 319 320 320 320 319 319 318 322
317 319 324 328 332 339 340 334 332 331 334 334 333 333 337 341 340 347 349 340 346 347 331 334 337 337 337 335 334 335 343 346 345 343 338 328 322 321 321 321 320 320 320 320 320 319 319 318 319
319 322 324 326 330 332 337 332 330 332 333 333 332 333 334 335 336 342 342 343 348 347 346 330 336 338 337 336 335 335 344 345 345 343 338 326 322 321 321 321 321 320 320 320 319 319 319 319 318
319 321 326 327 327 327 330 330 328 330 330 331 331 333 334 334 341 345 345 346 348 346 346 330 336 338 338 338 336 333 343 344 345 342 337 325 321 321 321 321 321 320 320 319 319 319 319 319 319
320 321 325 327 326 325 326 326 327 327 327 329 330 329 333 333 342 348 349 349 347 346 346 327 335 338 338 338 337 333 332 342 342 341 336 325 321 321 322 321 320 320 319 319 319 319 319 319 319
319 321 321 322 324 326 326 325 325 326 326 327 325 330 332 331 332 348 350 349 347 346 347 338 336 339 338 338 337 331 326 328 335 335 332 325 321 320 321 321 320 320 319 319 318 318 318 317 317
319 321 320 321 321 322 324 324 324 323 324 322 324 331 332 324 328 340 349 349 348 346 346 349 338 339 338 338 336 328 325 323 325 331 328 324 321 320 320 320 319 319 319 318 318 318 318 318 318
318 320 320 320 320 320 321 321 321 319 320 321 323 323 323 321 332 340 346 348 347 346 345 348 348 346 343 342 333 326 323 321 325 330 327 324 321 320 320 320 320 319 319 319 319 319 319 320 320
319 320 321 320 320 320 320 319 319 319 320 320 322 322 321 321 330 337 344 345 345 345 344 346 349 348 346 344 339 327 323 322 324 327 325 323 325 333 334 331 320 320 320 320 320 320 322 332 337
318 320 321 319 319 319 319 318 318 318 320 320 321 322 321 321 324 335 338 341 343 345 345 347 349 350 347 345 344 337 338 331 325 325 324 322 330 330 321 330 323 321 321 326 329 326 338 343 344
317 318 318 318 318 317 318 318 318 318 318 319 318 318 320 320 324 326 334 337 342 344 346 347 350 348 345 346 345 343 341 340 339 335 326 325 323 323 334 335 337 330 338 337 331 337 342 340 340
316 318 316 316 316 316 316 317 318 318 318 318 318 318 319 320 320 325 326 331 339 344 346 347 349 349 346 346 346 344 344 343 343 342 335 329 334 335 322 335 337 337 336 335 336 340 344 345 346
317 317 317 316 317 316 317 317 317 318 318 318 318 319 319 319 319 320 325 327 332 344 346 347 346 345 344 340 344 346 343 343 343 343 342 324 328 329 332 324 323 325 331 335 333 338 339 343 342
316 316 317 317 317 318 317 318 318 317 317 318 318 318 318 318 318 319 320 324 329 332 342 343 333 336 341 341 335 342 347 344 345 344 345 330 325 326 325 328 326 327 326 325 324 321 322 325 339
316 317 318 319 317 317 316 317 319 318 317 318 318 318 318 318 318 319 319 320 324 331 339 340 338 334 338 338 340 342 347 347 346 343 332 333 328 328 328 330 331 330 329 329 327 323 328 339 342
317 317 317 317 316 316 316 317 319 317 318 318 318 318 318 318 319 319 320 318 317 321 328 346 347 337 335 338 346 347 348 346 345 347 341 330 327 327 334 330 327 327 331 328 327 326 330 340 346
316 316 315 315 317 317 317 317 318 318 318 318 318 318 318 318 318 319 320 317 317 317 317 323 341 344 339 343 344 349 349 347 346 346 343 334 331 331 330 337 335 327 325 329 327 325 342 341 345
315 315 316 317 318 318 319 319 319 319 318 319 318 318 318 318 318 318 319 320 316 316 316 317 320 326 337 348 349 348 347 347 347 346 344 336 329 332 330 338 329 327 328 331 330 327 345 347 339
315 316 317 318 318 318 318 319 319 320 319 318 318 318 318 318 318 318 318 318 320 318 315 316 316 318 322 343 345 344 345 345 347 348 347 343 333 330 330 330 333 329 335 336 340 337 345 343 338
316 317 317 318 318 318 318 319 319 319 319 318 318 317 318 318 318 318 318 319 319 320 319 315 315 316 317 322 338 345 345 347 346 348 347 339 339 332 327 327 336 340 342 345 339 339 338 335 334
317 317 317 317 318 319 319 320 320 320 320 320 319 318 318 318 319 318 318 318 318 319 319 319 315 315 315 316 329 337 342 342 342 344 346 344 337 332 330 332 338 342 341 343 341 340 333 329 333
316 317 316 317 318 320 320 321 321 321 320 320 320 319 319 319 319 319 319 319 319 319 320 321 318 317 317 316 316 331 338 337 338 340 342 343 344 334 339 343 343 339 337 341 339 337 330 330 330
317 317 318 319 320 321 320 321 321 322 322 322 321 319 319 320 319 319 319 319 319 319 320 323 324 317 317 317 317 319 318 327 333 337 341 344 348 346 339 342 338 334 336 337 340 337 332 332 334
317 319 320 322 322 323 322 322 322 321 321 321 320 319 320 318 318 317 318 319 319 320 321 323 324 323 320 317 318 320 332 331 329 329 339 344 345 345 344 341 340 341 335 339 338 337 334 335 339
319 320 321 323 324 325 323 324 323 320 319 319 319 319 318 317 316 316 316 317 318 319 319 320 322 325 325 321 319 320 319 330 334 336 338 341 342 342 343 343 339 335 340 335 336 336 337 340 341
320 321 320 321 322 323 322 322 322 321 320 319 319 318 317 316 316 316 316 316 317 317 318 319 320 322 326 327 325 322 326 329 333 336 340 341 341 339 339 334 332 332 332 332 336 337 339 339 338
318 319 321 321 326 326 323 322 323 321 320 320 319 317 316 316 315 315 315 315 316 316 317 318 319 320 323 324 326 328 330 330 333 335 338 338 335 333 330 329 330 329 328 329 330 334 334 336 336
318 320 320 321 324 326 326 323 321 321 320 319 318 316 316 315 315 314 315 315 316 316 316 317 318 319 318 320 323 324 327 330 331 333 335 332 327 320 321 319 318 314 318 323 326 329 328 330 333
318 319 319 324 325 325 326 325 320 320 319 317 317 316 315 314 314 314 315 316 316 316 316 316 316 316 317 318 319 322 323 323 323 324 325 323 314 314 314 314 320 321 322 323 325 326 324 327 328

GFSSGP_850_thetae_105.txt.gz
Theta_e
322 322 323 327 334 339 341 339 342 340 339 337 337 336 341 345 349 355 350 344 343 351 327 335 340 339 344 347 346 344 345 345 341 341 330 324 323 322 321 321 321 321 321 319 319 319 319 320 323
321 322 324 328 336 342 343 341 343 341 338 336 336 335 337 345 347 349 346 343 345 351 331 335 338 337 340 342 343 344 344 345 343 342 334 326 323 322 321 320 320 319 319 319 320 319 319 320 324
320 321 325 331 334 340 342 343 341 337 336 337 337 335 339 343 344 349 348 345 346 349 344 332 335 337 338 338 338 342 344 345 345 343 338 328 324 322 320 320 320 320 320 320 319 319 319 319 321
320 322 324 329 334 336 339 340 335 336 336 336 335 336 336 339 341 346 346 346 348 347 347 332 334 337 337 336 334 336 341 345 346 344 340 330 325 322 320 320 320 320 320 320 319 319 319 319 318
319 322 327 330 331 333 333 336 333 335 335 334 334 336 336 339 343 347 346 347 349 347 346 335 335 337 337 337 336 333 339 345 346 344 342 333 326 322 320 320 320 320 320 320 319 319 319 319 319
321 323 325 329 331 331 330 331 332 333 333 333 334 334 336 339 343 345 346 346 348 347 347 339 334 337 337 337 337 333 338 345 345 344 342 335 328 323 321 320 319 319 319 319 319 319 319 319 319
321 324 325 326 327 329 329 328 329 331 332 332 331 333 335 334 339 346 347 347 346 348 349 348 334 337 337 338 337 335 334 344 344 344 342 336 327 323 320 320 319 319 319 319 319 318 318 318 317
319 322 323 324 323 324 326 327 327 328 329 327 326 332 335 328 331 343 344 345 345 346 348 352 337 337 338 338 337 336 332 332 342 343 341 337 328 323 320 320 319 319 319 319 318 318 318 318 318
320 322 321 322 322 323 323 324 324 325 324 325 326 328 329 325 330 337 343 344 344 345 347 351 348 346 344 343 338 336 331 327 327 334 337 334 328 324 320 320 320 319 319 319 318 318 319 320 321
321 322 322 323 323 323 322 322 323 322 322 323 323 324 326 326 327 336 341 343 343 344 344 349 351 349 347 344 345 336 327 326 324 324 328 331 330 336 332 326 320 320 319 319 319 320 321 324 335
320 321 323 322 322 321 322 321 320 320 321 321 323 324 326 326 327 331 337 340 341 342 342 345 352 351 349 346 347 343 338 331 326 330 332 328 336 337 338 338 325 321 320 320 325 324 330 343 345
320 321 321 322 321 320 321 320 320 320 320 320 320 321 322 324 325 329 333 337 340 341 343 344 350 353 351 348 346 346 339 338 338 337 336 339 334 338 341 339 340 333 336 331 339 338 340 345 348
320 321 320 320 320 319 319 319 320 320 320 319 320 319 320 322 324 326 329 331 335 341 343 345 348 354 354 347 348 347 342 340 339 340 342 341 341 339 342 339 338 339 339 340 340 338 342 346 348
320 319 320 319 319 319 319 319 319 320 319 319 320 320 320 323 322 322 324 327 329 335 344 345 347 352 355 352 348 347 345 342 342 341 342 336 342 341 341 339 341 340 339 338 338 338 341 344 346
319 319 320 320 319 320 319 320 320 320 320 320 320 320 321 321 322 322 323 324 329 330 339 347 349 351 353 351 349 350 348 346 344 343 343 344 338 342 342 343 342 339 338 332 337 338 339 332 339
319 319 319 321 321 320 319 320 321 320 320 320 320 320 320 320 320 321 322 322 323 327 332 338 343 347 355 354 356 353 351 350 347 344 337 340 341 336 328 339 341 335 331 335 337 338 338 337 339
319 319 320 320 321 320 319 319 321 320 320 320 320 320 320 320 320 321 321 322 322 323 328 337 344 346 350 355 355 354 352 352 351 347 345 346 346 335 329 325 334 333 329 339 330 334 335 336 337
320 320 320 320 321 319 319 319 320 320 320 320 321 321 320 320 320 320 321 322 322 324 325 328 340 350 351 354 355 354 353 352 351 350 350 349 348 343 331 344 342 346 347 346 343 331 326 326 334
319 319 319 320 320 319 320 321 321 321 321 321 321 320 321 320 320 320 320 321 322 323 324 326 328 319 348 350 350 351 350 350 350 350 349 350 350 347 336 342 345 348 347 344 341 340 337 342 346
319 318 319 320 320 320 321 321 321 322 321 321 321 321 321 320 320 320 320 320 320 322 323 325 326 329 320 338 345 347 347 347 347 348 348 349 349 347 346 345 344 344 344 340 339 336 342 345 347
319 319 320 320 320 321 321 321 321 321 321 320 320 320 320 320 320 320 320 320 321 321 322 323 325 327 332 323 336 345 347 346 344 343 346 349 349 348 343 344 339 343 341 343 338 335 343 344 346
319 319 319 318 319 320 321 321 323 323 323 323 321 321 321 320 320 320 321 321 321 321 321 321 323 326 324 322 330 332 340 342 340 339 340 343 348 350 347 342 342 338 343 341 342 345 347 339 341
318 319 319 319 320 321 321 322 323 324 324 324 323 322 321 321 322 322 321 322 322 321 321 322 323 325 329 329 330 331 332 333 335 338 339 339 344 347 348 347 343 340 341 344 348 347 343 343 342
319 319 320 321 322 323 323 324 324 324 325 325 324 323 323 322 322 321 321 321 321 321 322 323 324 327 330 330 331 329 325 334 335 335 337 338 342 344 343 346 345 344 344 347 346 343 343 342 341
320 321 322 323 324 324 324 325 326 326 324 324 324 323 323 322 321 320 320 320 320 321 322 323 324 326 328 329 331 331 332 331 330 332 334 334 338 341 345 342 343 345 342 343 346 343 343 341 338
321 321 321 324 326 326 325 326 327 326 324 323 321 322 322 321 320 320 319 319 319 320 320 321 322 322 324 327 329 331 331 330 330 330 332 335 332 335 343 343 340 342 343 346 343 342 344 345 344
321 322 321 325 326 327 324 325 325 325 325 323 322 321 321 321 320 319 318 318 318 319 319 320 320 322 321 323 327 329 332 332 330 326 328 333 332 333 340 338 335 336 333 343 343 345 343 342 339
321 320 322 324 332 329 325 326 326 326 325 324 323 322 321 319 319 319 318 318 318 318 318 319 319 320 320 321 323 325 328 331 333 333 332 331 337 337 338 339 332 325 333 339 341 341 340 339 339
321 322 322 322 324 329 329 325 323 324 324 324 323 321 319 318 318 318 318 317 317 317 317 317 318 318 318 320 321 322 325 328 330 333 334 336 338 338 339 339 330 328 338 337 335 334 335 335 336
321 321 321 327 327 326 327 329 323 323 323 322 321 319 318 317 317 316 315 315 315 316 317 317 317 318 318 318 318 320 324 326 327 328 331 334 334 335 336 333 330 327 325 323 320 320 319 322 328

GFSSGP_850_thetae_108.txt.gz
Theta_e
322 322 323 325 331 335 339 337 336 341 341 339 338 337 337 348 351 359 349 345 351 330 327 331 336 339 345 346 344 344 344 339 339 331 324 323 322 323 326 326 326 325 323 320 319 320 320 322 324
322 322 323 326 333 338 341 339 343 342 338 337 336 336 335 349 350 349 344 347 352 327 329 332 334 337 342 345 344 344 344 343 340 336 326 323 322 322 321 321 321 320 320 320 320 320 320 322 324
322 323 323 328 333 336 340 342 342 340 338 337 337 336 338 344 349 348 344 347 352 331 330 333 334 336 339 341 343 344 344 345 342 340 330 325 324 322 321 321 320 320 320 320 320 319 318 319 322
321 323 323 327 331 334 336 338 340 338 337 337 337 337 338 340 344 349 346 347 352 350 339 334 335 336 337 337 335 339 343 345 344 342 338 329 325 323 322 321 320 320 320 320 319 319 319 318 319
319 322 326 329 330 332 334 338 336 335 337 336 336 337 339 342 344 347 346 347 348 350 349 335 335 336 337 336 334 332 338 343 346 343 341 332 327 324 322 321 319 319 319 319 319 319 319 319 319
320 323 325 328 329 331 332 332 335 335 335 335 334 335 340 341 344 347 346 348 347 348 349 335 334 336 337 336 335 333 335 342 345 344 342 336 329 324 322 320 320 319 319 319 319 319 319 319 319
320 323 325 326 326 327 329 330 330 331 333 334 333 334 336 339 344 345 346 347 348 348 349 343 331 336 337 337 336 333 334 342 345 345 344 341 332 325 322 320 320 320 319 319 319 319 318 318 318
319 321 321 324 325 326 328 329 329 329 330 329 329 331 331 330 335 346 346 346 347 347 352 348 330 334 336 337 337 335 331 343 345 345 344 342 335 327 322 320 320 320 320 319 319 319 318 318 319
320 320 320 321 323 324 325 325 327 328 328 328 327 328 329 327 331 338 343 343 344 346 350 350 330 333 335 336 336 336 332 335 344 345 344 342 338 327 323 320 320 320 320 320 319 319 319 320 321
321 321 321 323 323 323 324 324 324 324 325 325 325 325 326 327 328 333 339 343 343 344 348 352 347 343 336 341 336 335 333 329 331 337 341 342 338 329 324 321 320 321 320 319 319 320 320 321 337
320 321 322 322 323 323 323 322 323 323 323 323 323 324 325 326 328 329 335 340 343 343 344 349 350 349 346 345 344 339 335 329 327 328 329 334 335 334 334 326 327 322 320 320 320 320 321 331 343
320 321 321 321 322 322 322 322 322 321 321 321 321 321 322 323 326 327 330 336 340 341 341 349 351 350 349 347 346 346 337 329 323 324 324 324 332 331 338 336 335 331 323 320 323 331 336 340 347
320 321 321 321 321 321 321 321 321 321 321 320 320 320 320 321 322 325 327 329 331 338 342 342 341 349 352 349 347 347 343 337 332 324 321 323 330 333 337 339 341 339 338 337 333 340 339 340 337
320 320 321 321 321 320 320 320 320 320 320 320 320 320 320 320 321 323 324 325 328 328 337 342 343 336 351 350 351 347 347 341 340 337 333 327 326 328 333 335 336 340 340 340 339 338 338 338 345
320 321 321 321 320 320 320 320 320 320 320 320 320 320 321 321 321 323 323 323 324 329 332 345 340 335 333 352 349 352 348 344 342 340 339 337 329 327 328 328 332 336 340 339 340 338 338 340 343
320 320 319 321 321 320 320 320 321 321 320 321 321 321 321 321 321 322 323 323 323 324 328 341 349 351 350 352 349 348 353 348 345 343 342 342 341 335 339 339 332 327 328 333 338 335 336 328 326
321 320 320 320 322 321 321 320 321 321 322 321 321 321 321 321 321 321 321 322 323 323 324 325 337 340 351 348 350 351 351 351 349 347 345 345 345 343 338 338 338 338 334 328 326 328 328 327 328
319 320 320 320 322 321 321 320 320 320 321 321 321 321 321 321 321 321 321 322 322 323 324 327 328 345 348 352 351 353 354 352 351 351 348 346 344 343 345 342 339 339 342 342 341 341 338 338 337
320 320 320 321 322 321 321 321 321 321 321 321 321 322 322 322 321 321 321 321 322 323 323 324 326 321 350 351 350 353 351 356 351 350 353 350 348 347 347 346 344 339 346 345 345 345 343 339 336
321 320 320 320 321 321 321 321 321 322 323 322 322 322 322 322 321 321 321 321 321 322 321 323 324 326 325 336 352 353 353 349 353 351 350 351 348 348 348 347 343 335 345 346 348 346 342 338 334
320 320 320 320 320 321 321 321 322 322 322 321 322 322 322 322 322 322 322 321 321 321 323 323 322 323 325 331 327 342 342 346 351 351 348 348 348 347 347 347 343 342 347 347 344 346 344 340 336
320 320 320 320 320 319 321 322 324 324 324 324 323 322 322 321 321 321 321 322 323 322 322 322 322 323 323 326 329 326 334 343 343 346 348 349 345 346 346 342 345 343 345 348 346 344 340 339 341
320 320 319 319 320 320 320 321 321 322 323 324 325 324 323 322 322 323 323 323 323 323 323 322 323 323 322 325 328 332 333 330 333 342 344 340 343 346 343 343 340 346 348 347 347 345 342 337 338
320 319 320 320 319 322 320 322 322 324 326 327 327 325 323 323 324 323 322 322 322 322 323 323 324 325 327 329 330 331 329 330 333 336 336 340 339 344 349 346 346 345 345 345 346 345 342 342 340
320 320 321 322 323 324 323 324 326 327 327 326 325 325 324 324 323 322 322 321 321 321 321 322 323 323 323 325 328 329 331 331 331 324 331 337 339 340 341 346 343 344 343 344 345 341 341 344 344
320 321 321 323 325 323 325 327 326 327 326 326 326 324 324 323 322 322 321 321 320 320 320 321 321 321 322 323 323 326 329 329 330 331 330 324 326 329 334 336 337 332 333 328 338 336 340 341 342
320 320 321 324 326 327 325 325 325 327 327 326 325 323 323 323 322 321 321 320 319 319 319 320 320 320 321 322 321 321 325 327 328 328 328 328 325 324 324 325 331 335 338 332 325 322 331 326 331
322 322 323 325 333 328 325 326 326 326 326 326 325 323 322 322 321 320 320 320 319 319 319 319 319 320 320 320 320 322 322 323 327 328 331 330 330 327 323 327 338 340 338 336 325 326 327 325 325
322 323 324 325 324 328 327 325 325 326 326 326 325 323 322 321 320 320 319 318 318 317 316 317 318 319 319 318 319 319 319 321 324 327 328 327 329 331 331 333 337 339 338 336 332 329 330 329 324
321 322 323 328 327 326 328 329 325 324 323 323 323 322 321 320 318 318 318 317 316 315 316 316 317 317 317 317 318 319 319 318 320 324 326 327 327 330 332 334 338 336 336 334 332 326 325 322 321

GFSSGP_850_thetae_111.txt.gz
Theta_e
322 322 322 323 323 326 329 333 333 336 339 336 336 335 347 351 354 355 348 346 346 327 332 336 336 339 342 342 342 339 337 334 324 322 323 324 324 324 324 324 324 323 322 320 320 320 322 323 326
322 322 323 323 324 327 331 335 340 339 338 337 336 336 349 351 350 348 349 348 347 326 333 336 336 337 341 342 342 343 339 337 327 322 322 322 323 324 324 324 322 321 320 320 320 320 322 323 325
320 321 323 319 323 327 330 338 337 339 338 338 336 336 342 346 345 345 346 346 346 326 333 336 335 337 339 341 342 343 343 339 335 325 322 322 321 321 321 321 320 321 321 321 320 320 320 321 322
319 320 322 319 321 325 330 332 338 339 338 337 337 338 342 349 345 344 347 348 347 328 334 336 336 338 338 339 340 342 344 342 339 332 326 323 322 322 321 320 320 320 320 320 320 320 320 319 319
320 320 318 321 322 326 328 331 337 338 334 335 335 339 343 347 347 345 346 348 346 329 336 336 336 337 337 337 337 340 343 345 341 340 331 326 323 322 321 321 321 320 320 320 320 320 320 320 319
318 320 318 319 322 326 326 326 335 335 334 333 334 341 342 347 346 346 347 348 347 346 330 333 335 336 336 335 333 336 341 343 344 341 339 330 324 322 321 321 321 320 320 320 320 320 320 319 319
317 316 317 319 321 323 325 327 326 330 331 330 332 333 338 346 346 346 347 348 347 347 345 332 332 335 336 334 333 331 336 342 345 343 341 336 328 323 321 321 321 321 320 320 320 320 319 319 319
318 315 317 317 320 321 323 325 327 329 329 328 331 330 330 341 346 346 347 347 348 347 347 347 331 333 335 336 335 332 332 340 344 345 343 341 333 325 322 321 321 321 320 320 320 320 319 319 319
317 313 314 316 317 319 322 321 324 327 328 327 327 328 329 329 334 344 346 348 347 347 344 346 332 333 335 336 336 334 330 338 344 345 344 343 340 330 323 321 321 321 320 320 320 319 319 320 321
315 315 316 318 319 318 320 321 322 324 324 325 326 327 325 326 328 331 340 346 347 345 344 342 334 330 335 336 336 335 331 334 343 344 344 344 341 336 326 322 321 321 320 320 320 320 320 320 330
316 315 318 320 320 322 321 321 322 322 322 322 322 323 324 323 326 328 331 337 345 345 344 345 343 337 334 334 336 336 334 330 333 342 344 343 343 340 331 324 321 321 321 320 320 320 320 321 330
315 317 319 319 320 320 320 322 321 321 321 322 322 321 321 321 323 326 327 328 337 345 349 348 345 344 348 343 343 342 338 334 328 327 328 335 339 339 333 325 322 322 322 321 320 320 323 332 341
315 316 319 320 320 320 321 320 320 320 321 321 320 320 320 320 320 323 324 324 327 340 350 347 347 339 336 331 334 346 346 345 333 328 325 323 328 333 332 327 326 327 328 325 321 321 325 333 336
317 318 319 320 320 320 319 319 320 320 320 320 320 320 320 320 320 320 324 324 324 325 334 344 344 343 340 333 334 340 348 347 341 330 326 322 321 326 331 328 328 328 332 335 333 329 327 330 334
319 316 317 318 319 318 319 317 318 320 320 320 320 320 320 320 320 320 321 322 323 329 331 336 343 343 340 335 337 351 350 348 346 342 339 332 324 323 330 331 331 327 333 337 339 337 338 334 336
316 316 315 316 318 319 318 316 318 320 320 320 320 320 320 320 320 320 321 322 324 324 328 339 342 342 339 332 349 350 352 350 347 343 341 341 340 335 329 332 332 331 334 339 339 338 339 335 333
315 315 316 317 318 318 318 316 318 320 320 320 320 321 321 321 320 321 321 321 324 323 324 328 344 343 341 337 338 345 348 351 350 345 344 344 342 341 341 334 329 329 332 339 341 340 341 338 334
315 316 316 318 318 317 317 317 317 320 319 321 321 320 321 321 320 320 321 321 321 322 323 327 329 328 341 349 348 348 352 347 351 349 346 347 343 342 342 342 341 335 337 336 338 339 339 338 338
316 317 317 317 318 318 316 317 317 319 319 319 321 321 321 321 321 321 321 320 320 322 322 323 323 322 322 341 348 348 349 348 348 350 349 348 348 345 344 344 343 342 341 340 338 337 335 335 334
317 316 316 318 319 318 316 317 318 318 319 320 321 321 321 321 321 321 321 321 321 321 322 322 321 321 320 322 332 346 347 346 346 345 349 348 347 347 346 345 344 344 344 343 343 345 342 341 341
318 318 318 319 319 318 317 317 318 320 320 321 321 321 321 321 322 322 321 321 321 321 322 323 323 322 321 321 321 321 337 348 347 348 346 346 345 344 347 345 347 346 347 347 340 344 348 345 344
317 318 318 319 318 317 318 317 316 319 319 319 320 321 321 321 321 321 323 324 324 323 322 322 322 324 323 322 324 323 321 324 338 341 344 345 347 343 335 329 333 340 341 343 343 340 344 345 341
318 319 318 318 316 317 317 315 316 319 319 319 318 321 321 321 321 322 323 323 323 323 322 322 322 322 325 327 327 327 328 327 326 330 337 340 338 341 342 333 331 340 329 335 340 342 340 342 341
319 318 317 317 316 316 316 317 316 318 319 320 324 324 322 322 323 323 322 322 322 322 322 322 323 323 324 326 328 328 329 329 328 323 328 332 336 336 339 340 341 340 335 340 338 340 339 337 337
318 317 317 317 317 317 317 319 317 321 323 325 324 323 323 323 322 322 321 321 321 321 321 322 322 322 322 322 322 324 324 326 328 329 327 322 324 329 334 334 337 340 340 340 339 338 337 337 338
320 319 318 321 321 322 322 323 322 322 325 324 324 323 323 322 321 321 321 320 320 320 320 320 320 321 321 321 321 322 322 322 326 327 328 324 320 321 321 322 326 330 333 332 336 335 333 328 325
322 320 321 322 323 322 322 322 321 323 324 324 324 323 322 321 321 321 320 320 319 319 319 319 319 319 320 319 320 320 321 321 321 323 328 330 328 322 321 321 322 326 329 331 330 332 329 328 328
321 321 324 324 329 327 323 323 325 326 325 324 323 322 322 321 320 320 319 319 319 319 317 317 317 319 320 319 319 319 318 319 321 322 322 326 329 328 326 324 324 326 326 325 331 335 328 329 328
319 319 322 322 323 328 323 321 324 324 322 322 321 321 322 321 320 320 319 318 317 317 317 316 316 316 318 319 318 318 319 319 318 318 317 318 324 327 328 327 329 331 333 335 337 336 334 331 328
317 318 322 325 327 324 325 324 321 321 320 320 320 319 320 321 319 318 317 317 317 317 317 316 315 315 316 316 316 316 316 315 317 318 317 316 315 321 326 327 328 330 333 333 334 335 334 329 327

GFSSGP_850_thetae_114.txt.gz
Theta_e
321 322 321 322 320 321 325 329 331 336 336 336 339 348 349 350 350 351 348 349 347 331 333 341 342 339 338 338 335 332 326 323 324 323 322 322 322 322 323 323 323 323 323 322 321 321 323 324 327
320 321 322 323 320 324 325 327 336 337 338 337 346 349 349 349 347 349 351 349 344 329 330 339 341 339 338 340 338 335 328 321 322 323 323 323 324 324 324 323 323 322 321 321 321 322 323 324 325
318 319 321 317 317 322 325 328 331 336 338 337 335 342 345 347 347 349 348 345 332 326 330 338 341 340 338 340 340 338 332 323 321 322 323 324 324 324 323 323 322 321 321 321 321 321 321 322 323
316 320 321 317 319 321 326 326 327 336 338 335 340 341 345 345 346 346 347 344 332 327 332 336 340 340 340 339 342 340 337 329 323 321 321 321 321 321 321 321 322 322 322 321 321 320 320 320 320
316 319 315 317 319 321 323 326 325 334 335 333 336 341 347 346 344 345 346 347 337 327 332 334 337 340 340 339 341 343 340 336 329 324 322 321 321 321 321 321 322 322 321 321 320 320 320 320 320
318 317 316 317 319 322 321 324 324 331 334 334 339 341 345 346 345 346 347 347 340 326 330 333 335 338 340 339 339 342 343 341 337 331 325 322 322 321 322 322 323 322 322 321 320 320 320 320 319
315 311 315 317 319 319 321 323 323 326 329 329 340 332 344 348 345 345 346 347 346 331 328 331 334 338 338 338 337 339 342 344 341 338 332 325 323 322 322 322 323 323 322 321 320 320 320 319 319
317 313 315 315 317 318 320 320 322 322 327 329 340 330 334 342 347 347 347 347 347 346 340 329 333 335 336 335 334 334 340 342 344 341 338 333 326 323 322 322 322 321 321 321 320 320 319 319 320
316 312 312 314 317 317 320 318 321 323 327 328 328 336 336 341 339 348 348 348 347 347 343 343 332 332 334 334 333 332 332 338 342 344 342 340 335 327 323 321 321 321 321 320 320 320 319 319 320
313 311 314 315 317 317 318 319 320 322 322 324 328 328 327 327 327 336 348 347 347 347 345 340 339 329 333 334 334 333 331 334 340 344 344 342 340 335 327 323 321 321 321 320 320 320 319 320 320
313 312 314 317 318 318 318 319 320 321 321 322 322 323 321 322 326 327 332 346 346 347 346 344 339 327 329 333 334 334 332 328 336 342 343 343 342 341 337 328 323 321 321 321 320 320 320 320 321
313 314 315 317 318 319 317 320 320 320 321 321 322 322 321 320 320 324 323 329 342 348 347 348 339 332 330 330 330 331 332 329 327 338 342 343 343 342 339 336 326 322 321 321 321 320 320 320 322
312 313 316 317 318 319 319 317 319 319 320 320 321 321 321 320 320 320 320 321 329 344 347 347 345 343 339 338 336 333 332 333 330 327 328 336 342 341 341 338 333 324 322 321 321 320 320 320 326
315 314 315 317 317 318 317 318 318 320 320 320 319 320 320 320 320 320 320 320 323 330 339 346 348 343 344 336 340 336 340 343 345 345 336 325 324 327 335 337 336 329 324 325 326 323 321 321 327
315 314 313 315 316 315 318 316 317 319 320 320 319 319 319 320 320 320 320 320 320 325 330 343 346 345 343 342 338 338 341 345 347 346 346 332 326 322 322 324 329 330 327 329 332 334 330 327 327
316 313 314 314 316 318 317 316 316 319 319 319 319 319 319 319 320 320 320 320 320 325 330 334 339 343 343 344 339 336 341 350 349 347 347 345 340 338 328 323 321 329 334 334 335 338 338 337 337
311 314 315 316 316 316 315 315 315 319 319 318 319 319 319 319 320 320 320 320 322 325 327 334 341 344 344 342 338 339 346 350 350 350 348 346 343 342 340 338 330 326 333 336 337 337 340 339 339
314 314 314 315 316 316 314 314 316 318 318 318 318 320 319 320 320 320 320 321 322 323 323 324 336 343 339 340 337 339 343 340 350 351 351 349 346 343 342 341 341 339 335 333 337 339 340 341 341
314 314 314 315 315 316 314 314 314 315 316 315 319 320 319 320 320 320 320 320 321 321 323 324 329 328 326 326 338 345 347 345 346 348 346 348 347 345 344 343 342 342 341 339 336 334 336 340 341
315 314 314 314 316 315 316 316 316 316 316 318 319 320 320 320 320 321 320 321 320 321 322 323 324 323 321 321 320 330 338 343 345 345 344 343 344 345 345 342 343 343 343 342 341 341 340 338 337
316 315 315 316 317 317 317 315 315 315 318 319 319 320 320 320 321 320 320 320 321 321 322 323 322 322 321 321 320 320 321 327 335 343 345 344 344 344 342 343 342 340 341 336 340 340 340 340 339
317 317 317 317 316 314 316 314 314 314 314 316 319 319 320 320 320 321 320 320 321 323 323 323 322 322 322 321 321 321 321 320 319 319 320 324 332 336 339 341 342 340 337 330 328 332 340 334 337
316 316 317 317 316 314 314 313 313 314 315 314 315 319 323 324 321 321 321 322 323 324 323 322 322 322 322 323 322 324 327 327 326 325 323 322 324 326 329 334 338 338 336 335 331 331 336 337 337
317 317 315 313 312 314 314 313 313 314 315 315 317 322 323 321 319 322 323 322 322 322 322 322 322 324 325 326 326 325 325 326 326 325 325 324 323 323 322 327 330 330 337 335 329 326 331 332 336
316 313 314 315 314 316 318 320 314 316 323 322 321 320 321 321 322 322 322 322 321 321 321 321 322 322 322 322 322 322 321 320 322 323 323 323 321 321 327 328 327 330 331 334 337 337 334 336 335
320 316 314 319 318 318 320 320 320 322 323 322 321 319 321 321 320 320 320 320 320 320 320 320 320 319 319 319 319 319 318 318 320 320 321 320 321 324 324 329 330 329 329 329 332 333 337 334 334
321 321 318 319 320 320 319 319 318 323 322 322 321 320 319 320 320 320 319 319 319 319 319 319 319 319 319 319 318 318 318 318 318 318 318 317 320 319 318 326 328 327 326 325 328 327 328 330 330
319 319 321 318 320 322 321 321 321 324 323 322 322 322 320 319 319 319 319 318 318 318 317 317 316 316 316 316 317 319 319 319 318 318 316 317 317 317 316 316 323 326 325 328 330 332 329 328 329
315 316 319 319 324 326 323 319 320 320 320 320 320 321 323 323 323 320 317 317 317 317 317 317 317 316 315 316 319 318 318 318 318 318 317 317 316 316 316 315 316 320 326 326 326 329 330 330 331
315 318 320 321 324 325 325 323 318 318 317 319 319 319 319 320 321 321 320 319 319 319 319 317 317 316 315 315 317 317 316 316 316 316 316 316 315 314 314 313 313 315 319 322 324 326 326 329 330

GFSSGP_850_thetae_117.txt.gz
Theta_e
321 321 321 322 320 319 324 327 328 331 336 337 338 344 347 347 348 346 346 336 339 332 339 340 340 337 335 329 329 329 330 331 331 328 323 320 320 321 322 323 323 322 323 323 321 321 321 324 327
320 320 321 322 319 322 324 324 328 328 335 340 348 348 348 348 347 347 344 339 342 331 335 338 339 338 336 331 328 328 329 330 327 322 321 321 321 321 321 322 323 323 322 322 322 322 323 325 327
318 318 320 315 316 321 324 325 328 329 326 333 337 343 346 348 347 346 348 348 339 332 333 336 338 338 337 335 332 325 322 322 323 321 322 323 323 323 323 323 323 322 322 322 322 322 323 324 325
317 319 319 316 318 319 323 322 323 323 328 337 343 343 346 346 347 347 347 344 335 330 333 336 337 338 337 338 336 328 322 321 322 322 323 323 323 323 323 323 322 322 322 322 321 320 321 321 322
315 318 314 316 317 319 321 322 323 321 330 332 344 343 346 346 345 345 345 339 331 330 333 336 337 338 336 340 338 334 326 321 321 322 322 322 322 322 322 322 322 322 322 321 321 320 320 319 319
316 315 315 316 318 321 319 322 322 321 325 344 344 343 345 345 344 345 346 341 332 328 333 336 337 338 338 339 341 339 333 326 322 321 321 321 321 321 321 322 323 323 322 321 320 320 320 320 319
314 311 315 316 319 319 320 322 320 321 320 328 344 341 346 346 346 345 346 344 333 329 331 334 337 339 339 338 340 342 339 334 329 323 322 321 321 321 321 322 322 322 321 321 320 320 320 319 319
315 310 314 314 317 319 320 319 319 319 321 334 344 335 341 345 347 348 346 341 333 329 329 329 332 334 336 337 337 340 342 341 337 335 330 325 323 322 321 322 322 322 321 320 320 320 319 319 319
315 311 312 314 315 317 317 316 320 321 323 326 328 341 345 346 347 348 347 344 340 336 330 330 331 332 334 335 335 336 340 342 343 340 338 335 328 324 322 322 322 321 321 320 320 320 319 319 319
312 309 313 314 317 317 317 317 318 320 322 325 329 328 337 344 347 347 348 347 346 344 341 335 331 330 332 332 331 331 332 339 342 343 342 339 336 331 326 323 322 321 320 320 320 319 319 319 319
312 312 314 315 317 317 316 317 319 319 319 323 324 323 323 337 344 347 347 347 347 346 345 341 339 333 331 331 331 331 331 330 335 340 342 342 340 339 337 330 324 322 321 321 321 320 320 319 319
312 312 314 316 316 317 316 318 318 319 320 322 322 321 321 320 322 330 341 346 348 347 347 345 341 338 331 331 331 331 330 328 326 333 338 341 342 341 340 337 333 326 322 321 321 320 320 320 319
311 312 314 315 316 315 316 316 316 318 320 320 320 320 319 320 320 319 321 323 330 342 345 347 346 343 331 331 332 331 332 330 328 325 327 336 339 340 341 340 339 336 329 324 321 321 321 320 319
313 313 314 315 315 315 315 315 316 318 320 320 320 320 319 319 320 319 319 319 322 323 335 346 348 345 332 330 331 332 332 332 331 330 328 327 328 333 339 340 340 338 336 332 324 321 322 322 321
315 313 312 313 315 314 316 314 315 318 319 319 319 319 319 319 320 319 320 319 319 322 324 333 347 347 338 336 339 338 337 335 338 342 344 345 343 335 329 329 329 330 335 336 331 326 329 332 329
315 312 313 313 315 316 315 315 316 319 318 318 319 319 319 319 319 319 319 320 319 320 324 326 331 347 344 344 342 342 341 341 344 346 347 346 346 344 337 335 331 326 325 327 331 330 331 336 337
311 314 314 315 314 316 315 314 314 318 318 317 318 319 319 319 319 319 319 320 320 319 322 328 335 346 345 345 345 344 343 340 345 347 345 345 345 345 344 342 341 339 335 327 326 331 334 335 338
314 314 314 314 315 315 314 313 313 317 316 315 317 319 319 319 319 319 319 320 320 320 323 330 330 337 342 346 344 343 341 337 343 343 341 345 346 346 346 344 342 341 339 339 334 333 334 335 333
314 313 314 314 314 315 313 313 314 315 316 313 315 317 318 319 320 320 319 320 320 320 324 326 333 337 342 340 337 337 337 336 345 343 343 344 344 343 341 343 341 342 341 340 340 339 338 339 338
314 314 313 313 313 312 313 314 313 315 315 315 315 317 319 319 320 320 320 320 320 320 321 322 324 330 329 331 332 335 335 338 336 340 344 343 341 338 339 340 339 338 332 335 339 340 340 339 339
314 314 313 314 315 314 315 313 314 315 316 317 318 318 318 318 319 319 320 320 320 320 321 322 322 323 328 325 322 321 321 322 327 332 336 335 337 337 338 341 342 343 340 338 338 336 339 338 337
314 314 316 315 315 313 314 313 312 313 313 314 316 318 319 319 319 320 321 320 319 320 321 324 328 335 325 321 320 320 320 320 320 320 321 322 322 322 324 327 331 335 338 340 339 336 329 329 329
314 315 315 315 314 313 313 311 311 312 314 313 315 320 322 322 322 323 323 321 319 320 323 329 330 324 322 322 322 322 321 322 323 323 324 325 325 324 323 322 322 327 331 331 335 338 336 328 332
317 315 311 310 310 313 313 313 311 313 315 318 319 319 319 320 320 320 320 319 320 322 323 323 323 325 327 326 326 325 324 324 323 320 319 320 321 321 320 319 321 324 326 329 331 334 337 336 334
314 311 312 313 313 314 316 316 314 317 322 321 319 318 319 321 322 324 324 325 325 326 325 325 325 325 325 324 322 322 321 319 318 317 318 320 319 318 317 317 319 322 324 323 325 328 331 333 335
318 313 313 316 315 315 317 318 318 321 320 318 318 318 318 318 319 321 321 321 320 321 321 321 320 320 319 319 319 319 319 318 317 317 318 318 318 317 316 315 317 317 320 325 325 323 323 326 330
320 319 315 317 317 319 317 317 318 320 320 321 321 320 319 318 318 318 319 320 320 319 319 319 319 319 319 319 318 318 318 317 317 318 318 318 317 316 314 315 315 315 315 323 325 324 322 325 328
317 317 320 317 321 320 318 319 318 322 321 320 319 320 322 321 321 322 318 317 317 318 318 317 317 317 317 316 316 315 317 319 319 319 318 318 317 316 316 315 315 313 314 313 320 325 324 326 328
315 315 316 315 317 318 321 319 316 319 319 318 317 318 319 320 321 322 321 322 321 318 317 317 316 316 316 315 315 315 317 317 317 318 317 317 316 316 316 315 314 313 311 310 312 319 322 324 325
314 317 315 313 318 322 325 321 317 316 315 315 315 316 316 316 317 320 320 320 322 321 318 318 318 317 316 315 315 316 317 317 317 317 316 316 316 315 315 314 314 313 312 310 309 310 317 322 323

GFSSGP_850_thetae_123.txt.gz
Theta_e
320 320 319 321 327 329 334 334 329 333 331 332 328 338 344 346 348 350 346 338 337 331 338 344 343 337 332 330 329 331 338 340 339 339 335 332 329 326 322 324 324 322 322 321 320 319 321 322 326
319 319 319 321 332 336 337 330 332 329 326 325 332 344 347 349 348 347 342 335 335 331 336 340 341 336 331 329 328 329 332 333 333 332 330 326 322 320 321 324 322 321 322 322 322 322 323 325 327
318 318 320 324 328 338 339 330 327 325 323 326 335 343 347 348 347 341 336 335 333 333 337 339 339 335 333 331 330 329 329 330 331 330 325 320 319 320 322 322 321 323 323 322 323 323 324 325 325
318 317 318 324 329 328 331 328 324 325 323 326 338 346 346 346 342 342 340 338 334 334 337 339 338 334 334 332 329 329 329 330 330 325 320 320 320 321 322 322 323 323 322 322 322 322 322 323 324
316 317 322 322 325 323 323 323 323 325 322 323 338 346 348 346 347 346 343 343 334 334 337 339 337 335 334 330 328 328 329 329 328 321 320 320 321 321 322 323 323 322 321 321 320 320 320 321 322
316 316 321 322 322 322 322 322 323 321 321 321 336 346 348 346 345 346 345 344 335 331 334 338 336 336 334 332 330 327 322 323 323 321 321 322 323 323 323 323 322 321 321 320 319 319 318 319 320
315 319 321 321 322 322 323 321 321 321 321 324 340 347 345 345 345 345 345 344 335 334 334 338 337 337 335 334 334 331 324 320 322 322 322 323 323 323 323 323 321 321 320 320 319 319 319 318 318
314 317 318 320 322 323 320 319 318 319 322 325 339 346 346 345 345 344 342 341 335 333 334 335 337 337 336 336 336 336 330 323 321 322 322 323 322 322 321 321 321 321 320 320 319 319 319 319 319
313 316 318 319 319 322 318 320 319 319 320 322 332 331 341 344 345 344 342 339 335 334 334 335 338 337 337 336 337 337 336 333 327 322 322 322 322 321 321 321 321 321 321 320 320 319 319 319 319
313 315 318 318 319 321 318 318 318 320 320 325 327 336 340 345 345 344 343 339 335 333 332 335 337 337 337 337 337 338 340 339 336 331 328 325 324 323 323 322 322 321 321 321 320 320 319 319 319
314 315 319 317 317 317 318 318 317 319 321 320 323 336 346 347 346 345 344 342 338 334 332 334 336 337 338 337 337 337 337 339 340 340 337 334 334 332 329 326 324 323 322 321 321 320 320 319 319
315 315 314 317 316 317 317 317 317 318 319 319 318 319 338 345 346 346 346 345 343 340 336 335 335 335 336 338 337 336 335 334 336 338 340 341 340 338 336 334 333 331 328 326 324 323 321 320 320
317 317 319 315 317 315 315 316 317 317 318 318 318 319 319 323 329 335 342 346 346 346 344 341 338 336 334 334 336 336 335 334 333 333 334 337 339 340 341 340 339 338 338 337 336 335 332 329 325
313 313 316 315 314 314 315 316 315 317 318 318 318 318 319 320 320 320 322 324 329 334 336 343 344 342 339 335 335 334 335 334 333 333 332 331 331 331 334 339 341 342 342 342 342 342 341 340 338
312 313 313 313 314 315 315 316 316 318 318 318 318 318 318 318 318 319 319 319 319 319 320 322 330 342 344 342 340 337 334 334 333 334 334 334 333 333 340 341 340 338 338 337 333 332 330 329 330
313 314 316 317 314 316 316 317 319 317 317 318 318 318 318 318 318 318 318 318 319 319 319 319 319 322 334 345 344 341 337 333 333 334 334 334 338 339 340 344 344 343 340 338 338 337 337 335 328
314 316 316 317 315 315 316 317 318 317 317 318 319 318 318 319 319 319 319 319 318 318 319 319 319 320 324 336 346 345 343 333 333 336 337 338 340 339 343 340 341 343 343 342 342 341 340 340 338
316 315 315 317 316 316 316 318 318 317 317 318 318 318 317 318 319 319 318 318 318 318 318 319 319 320 321 328 340 347 345 335 334 339 341 341 343 343 341 339 340 342 341 339 340 340 341 340 338
316 316 316 316 316 317 317 318 319 317 317 319 319 317 317 316 317 317 317 318 318 319 318 319 319 320 322 324 332 345 345 337 341 342 342 338 343 341 341 342 344 342 339 337 336 339 339 338 336
316 317 317 316 315 316 318 318 318 319 318 318 317 317 318 319 319 318 318 319 319 319 318 318 319 320 321 324 331 343 344 340 342 344 342 341 342 343 343 344 342 338 336 336 337 339 340 339 338
316 317 317 317 316 316 317 318 318 318 316 316 317 320 321 321 321 320 319 319 319 319 318 319 319 320 322 325 330 340 344 342 344 344 341 342 344 343 340 337 330 322 320 321 323 329 337 340 340
317 316 317 317 318 318 315 318 318 318 319 317 322 321 320 320 321 322 322 321 319 319 319 319 319 321 323 328 331 338 344 343 342 342 339 339 338 327 323 323 323 321 321 321 321 322 326 334 337
317 316 317 317 318 317 316 318 319 315 318 322 321 320 321 321 323 323 322 322 321 321 320 320 320 321 324 332 342 343 343 341 340 340 338 326 324 323 319 318 318 317 316 316 316 317 321 328 332
316 316 315 315 316 319 319 319 319 318 320 324 320 319 319 320 322 325 325 325 323 321 321 319 319 327 335 341 341 336 332 332 330 325 323 320 318 317 317 317 316 313 313 313 313 314 316 319 322
316 318 318 319 319 319 316 317 319 318 321 320 320 319 319 319 320 321 322 326 328 327 328 331 333 333 330 327 326 326 324 322 320 319 318 317 317 316 315 315 316 315 313 312 311 311 311 312 316
320 319 319 318 318 318 318 320 322 321 319 319 320 321 322 322 321 320 318 320 321 321 322 324 325 324 323 321 320 319 319 318 318 317 317 317 316 316 316 316 316 316 315 314 313 312 311 310 311
320 320 317 320 320 321 320 320 323 322 322 320 318 317 318 319 319 320 321 318 318 318 317 318 319 318 318 317 317 317 317 316 316 316 316 317 317 317 318 318 318 316 315 315 314 314 312 311 309
321 319 324 323 325 323 322 322 321 325 323 319 318 316 316 316 317 318 318 320 321 318 318 318 319 320 320 319 318 319 319 318 317 317 316 317 317 319 319 318 318 317 316 315 315 315 314 313 312
321 322 321 322 323 324 322 321 320 325 322 320 318 315 315 315 316 317 316 318 320 320 319 319 319 318 318 318 318 318 318 319 318 316 316 317 319 319 318 318 317 318 318 317 317 316 315 313 313
316 319 322 326 324 325 325 325 321 322 319 317 315 314 315 316 316 315 315 315 315 315 314 314 313 312 312 312 311 312 312 312 313 313 315 316 316 318 318 317 317 317 318 318 317 316 314 313 313

GFSSGP_850_thetae_126.txt.gz
Theta_e
320 319 320 323 332 336 337 338 337 338 336 333 332 337 345 345 350 357 355 351 348 349 334 342 343 341 336 335 335 340 343 344 344 344 344 342 336 327 322 324 324 331 330 325 320 320 321 323 326
319 320 321 327 335 339 337 337 338 336 331 331 338 342 348 351 353 354 353 347 349 348 337 341 342 339 334 332 334 338 341 342 343 342 341 337 329 323 321 323 322 322 321 321 320 321 322 326 327
318 320 325 332 336 340 338 337 337 332 330 336 340 346 348 351 353 350 349 348 349 348 337 340 342 336 332 330 332 336 338 339 338 336 333 328 322 321 323 324 322 321 323 322 321 321 323 327 327
318 321 323 330 335 336 339 337 332 332 330 331 340 346 350 351 349 350 347 348 349 349 348 338 340 335 332 330 330 331 332 332 332 331 328 322 320 321 324 323 322 323 323 321 320 322 323 325 326
318 322 330 332 333 334 334 332 330 332 330 331 340 345 349 353 353 350 348 348 348 348 349 337 338 334 332 331 330 330 330 331 330 328 322 320 321 323 323 322 323 323 321 320 320 321 321 322 323
320 323 330 332 332 331 331 330 330 329 329 330 338 344 349 354 355 351 351 349 347 349 350 337 337 334 333 331 329 329 330 330 330 322 320 320 321 322 322 323 324 322 320 320 319 319 319 319 320
319 325 330 331 331 330 331 327 329 327 327 333 338 344 350 353 356 353 353 351 348 349 349 336 336 335 334 330 329 329 326 325 324 321 321 321 323 323 323 324 323 322 321 320 319 319 319 318 318
317 321 328 327 328 330 327 325 323 325 326 326 338 343 346 354 356 355 353 351 348 348 348 347 338 335 334 332 331 331 327 322 322 322 322 323 324 324 324 323 322 321 321 320 320 319 319 319 319
315 320 325 326 326 328 324 325 323 322 323 327 335 338 344 355 355 354 353 351 348 347 348 347 345 345 343 342 333 333 333 327 322 323 323 323 325 324 322 321 321 321 321 320 320 319 319 319 319
319 321 322 323 324 326 324 322 322 324 325 329 333 346 349 353 353 352 352 350 348 347 347 347 347 346 345 343 343 335 335 335 329 324 322 323 335 338 336 333 322 321 321 321 320 320 320 319 325
326 324 321 319 320 325 328 323 322 323 326 325 327 340 349 352 351 350 349 348 348 347 347 348 348 347 346 345 346 344 344 343 340 335 330 327 339 335 325 335 325 323 322 323 326 322 321 332 331
328 328 321 318 318 321 323 323 322 323 324 323 322 322 346 351 350 348 348 348 348 348 348 348 346 335 338 346 346 347 346 346 346 346 339 340 336 341 340 341 341 339 339 339 336 336 335 326 321
328 327 327 324 323 325 323 323 323 322 321 321 322 321 323 345 350 350 349 347 348 349 349 349 347 335 334 336 347 348 348 347 348 348 344 340 344 346 346 345 345 345 344 344 344 343 342 340 338
326 327 328 326 326 324 323 321 320 321 321 320 321 322 322 323 336 339 342 341 343 347 350 350 347 342 338 336 339 350 349 348 349 348 348 336 342 346 346 345 344 346 346 346 347 347 347 346 345
321 324 323 322 321 320 321 320 319 319 320 321 321 322 321 322 322 326 327 331 334 336 343 347 342 342 341 340 339 344 350 348 349 349 348 339 333 332 332 344 345 345 346 344 341 336 343 342 341
322 318 315 315 317 319 318 322 323 321 320 320 321 321 321 321 321 321 321 323 327 331 336 340 342 343 325 334 343 348 351 350 349 349 349 336 334 334 336 340 342 347 349 348 346 346 346 345 345
316 316 316 316 315 316 320 320 319 320 320 320 321 321 321 321 322 322 321 321 322 319 320 320 322 325 330 327 342 351 352 351 350 349 348 342 335 337 338 344 349 344 347 348 348 347 347 346 346
318 315 315 316 318 316 317 317 320 320 320 321 322 322 321 321 321 322 324 324 323 319 318 318 319 319 321 337 338 351 352 352 350 349 347 341 337 339 339 346 349 347 349 349 348 347 347 346 346
318 317 317 317 318 318 319 319 320 321 320 321 321 322 322 323 322 321 321 321 318 318 318 318 318 320 320 326 347 348 350 352 351 348 346 341 341 343 346 349 350 347 349 349 348 345 345 344 343
318 318 317 318 318 319 319 319 320 321 321 321 322 322 325 325 326 326 326 321 318 318 318 318 318 318 319 334 338 346 350 351 351 347 347 340 343 340 344 345 348 348 347 347 345 341 343 341 341
318 318 319 319 319 319 319 320 320 320 321 320 323 325 325 326 327 328 329 325 319 322 321 320 318 318 320 326 338 342 347 351 350 349 350 346 344 340 344 346 345 345 339 339 342 332 328 338 338
319 318 318 319 318 318 320 319 321 321 321 321 325 325 326 327 328 329 330 329 327 321 319 319 318 319 320 320 342 344 346 348 348 350 351 347 340 341 342 338 326 322 333 336 334 335 337 336 335
319 318 318 319 320 320 320 319 321 321 321 323 325 325 326 326 328 329 330 331 330 325 322 320 319 319 324 325 335 346 346 347 348 348 344 342 339 338 325 323 323 318 321 328 318 325 332 332 332
318 319 320 321 321 322 320 321 321 321 321 326 325 324 325 325 326 326 328 329 331 334 336 329 326 323 325 331 341 344 346 347 344 342 339 336 333 326 318 318 316 316 318 318 320 321 317 320 324
319 321 321 321 321 320 322 321 321 325 325 325 325 324 324 324 324 324 324 326 327 330 332 335 336 336 336 336 337 337 337 337 336 328 331 329 328 327 325 317 316 323 320 319 315 316 312 318 321
320 321 320 321 321 321 321 320 325 325 323 324 324 324 324 324 324 324 322 323 322 323 324 325 326 327 327 327 322 321 321 328 328 327 326 325 324 325 326 320 317 316 320 320 318 320 320 322 319
321 322 322 322 322 322 321 325 325 325 324 324 323 322 322 322 322 323 324 322 321 322 320 322 323 322 319 318 318 318 318 318 322 318 317 324 324 324 325 326 326 324 325 323 320 321 320 320 318
323 322 322 322 323 324 322 323 323 327 326 324 322 321 321 320 321 321 322 323 323 322 321 320 321 320 319 319 319 319 318 318 318 318 317 317 318 320 319 324 325 326 326 326 325 322 321 322 321
323 322 322 325 324 325 325 324 324 326 326 325 323 320 320 320 320 320 319 319 320 320 319 318 318 317 317 317 317 317 317 316 317 317 317 318 317 317 318 323 324 324 325 325 325 324 322 321 321
322 323 323 327 325 324 324 327 325 325 326 324 322 320 319 319 319 318 318 317 317 316 316 315 315 315 314 314 313 313 313 313 313 313 314 314 314 314 315 318 320 321 322 323 324 324 323 323 321

GFSSGP_850_thetae_129.txt.gz
Theta_e
321 324 325 327 334 337 337 337 339 340 340 337 337 340 346 347 352 358 357 348 347 353 331 338 341 343 340 337 338 342 344 345 343 342 343 342 337 330 324 322 328 331 333 333 326 320 322 324 325
320 322 325 330 336 339 338 338 339 339 337 335 338 341 346 351 354 345 355 348 348 352 332 337 341 340 336 334 339 343 344 345 344 343 343 341 334 328 324 324 329 333 330 322 319 319 322 326 326
321 322 326 333 336 338 339 337 338 337 334 336 339 343 347 353 352 353 352 348 351 351 348 338 341 338 334 332 335 342 344 344 343 343 342 339 332 326 324 325 324 324 322 322 321 322 324 326 326
321 323 326 333 335 337 338 340 338 336 334 336 339 345 350 350 350 350 348 348 350 350 351 338 340 336 333 331 332 338 342 342 341 338 336 332 327 323 324 325 323 322 323 322 321 322 323 325 325
321 325 332 335 336 335 337 338 336 336 335 335 339 343 352 353 351 349 348 347 348 349 352 337 339 335 332 330 331 332 334 336 335 333 331 325 322 322 324 324 322 324 322 321 321 321 322 322 323
323 325 331 335 337 336 336 335 335 335 334 334 337 341 351 353 351 350 348 347 348 349 353 334 337 334 332 331 330 330 331 331 331 330 324 321 321 323 323 323 323 323 322 321 320 320 320 320 320
323 328 331 333 337 336 335 333 334 335 334 334 335 340 353 352 351 351 349 348 348 349 351 335 336 334 333 331 329 329 330 331 330 326 321 320 321 322 322 323 323 323 321 321 320 320 319 319 319
322 327 330 331 335 336 333 332 332 331 331 330 335 342 352 353 353 352 350 349 349 349 351 348 338 334 333 331 329 329 329 327 327 323 321 321 322 323 323 323 324 323 321 321 321 320 319 319 319
320 324 328 330 333 334 331 330 331 328 327 328 337 343 355 356 353 352 351 349 349 348 350 348 346 344 343 341 331 331 329 325 323 323 322 322 323 324 323 323 323 322 321 321 321 320 320 319 319
322 323 328 326 329 330 330 328 328 328 328 329 335 346 353 354 353 351 351 349 348 348 348 348 346 346 345 344 343 333 333 329 324 323 323 323 332 339 338 336 325 322 321 321 321 321 320 320 320
324 328 326 323 325 323 327 329 326 326 330 330 331 340 349 350 350 349 348 347 347 347 348 348 347 348 346 344 347 344 344 343 339 336 329 324 337 338 339 340 335 324 322 322 325 323 321 324 333
327 327 327 324 322 321 324 327 327 326 327 326 326 326 341 348 348 346 345 346 346 347 349 348 350 350 348 346 346 348 345 346 346 345 343 341 335 340 341 338 339 340 339 337 338 339 339 338 337
328 329 328 327 326 324 326 327 325 326 326 325 325 325 327 346 346 344 345 346 346 347 349 351 353 351 344 345 348 348 347 347 347 348 349 349 348 346 346 344 343 342 342 341 342 340 340 341 343
327 329 329 329 328 328 328 328 325 325 327 326 326 325 327 331 344 345 346 347 347 349 350 352 353 353 347 338 343 350 350 349 348 349 349 351 349 348 348 348 348 348 346 345 345 345 346 347 347
328 330 328 329 329 330 326 329 329 324 324 324 325 325 326 327 330 340 344 347 344 342 344 350 353 355 354 353 352 351 352 351 350 349 349 350 349 349 348 347 346 346 346 347 347 347 347 347 344
328 329 332 330 329 328 327 332 330 327 325 325 326 326 325 325 326 328 331 331 332 334 336 341 342 346 354 354 356 356 354 353 352 351 350 351 351 344 347 348 349 350 350 349 348 348 348 348 346
325 331 327 325 322 325 328 333 329 326 322 324 326 327 326 324 324 325 324 324 324 327 331 335 339 339 344 351 351 353 353 354 353 352 351 350 351 348 338 348 348 344 351 350 348 347 348 347 346
321 327 326 323 319 322 327 330 326 326 324 323 323 325 325 325 324 324 324 324 324 325 327 332 336 339 342 346 351 351 351 351 352 352 352 350 351 350 339 348 349 352 350 347 347 346 347 348 346
321 321 321 320 321 320 319 320 322 323 323 323 324 326 328 327 325 324 324 325 327 327 328 330 332 335 341 343 345 348 348 349 351 351 352 351 351 351 350 351 352 350 350 348 348 348 345 346 343
320 320 320 321 319 320 320 320 320 321 322 322 323 323 324 324 326 328 328 327 327 327 329 328 321 325 337 342 343 343 346 346 349 351 352 351 351 352 352 351 350 347 343 350 347 347 347 342 340
320 320 320 320 321 320 320 321 321 321 321 322 322 324 326 326 328 330 331 332 331 330 331 333 323 324 334 341 343 347 349 350 350 350 352 351 352 352 351 350 349 348 345 343 343 344 342 341 337
321 320 320 320 321 321 320 320 321 321 321 322 322 325 325 327 328 330 331 333 333 333 331 328 331 337 341 347 343 345 347 345 345 348 348 351 353 353 351 348 350 346 345 340 338 339 337 338 338
320 321 320 321 322 321 320 319 319 323 321 322 323 326 327 327 328 330 331 333 334 337 336 336 337 342 344 346 347 344 348 345 345 346 348 349 350 350 351 349 347 341 330 333 333 334 337 335 334
320 320 321 320 321 322 322 322 321 322 323 323 325 325 326 326 327 328 330 331 334 337 340 342 342 343 343 343 345 346 349 348 349 347 349 348 347 345 341 338 337 334 327 325 332 327 324 322 326
320 321 322 322 321 322 323 323 323 324 322 327 327 326 325 325 325 326 327 328 330 332 334 336 338 339 340 341 342 343 344 345 348 345 345 343 340 337 335 332 332 331 323 322 327 325 319 321 322
320 322 323 323 323 321 323 323 326 326 326 325 326 326 326 326 326 325 325 325 325 326 327 327 328 329 330 330 331 332 333 334 334 334 334 332 330 330 329 330 332 329 325 327 325 323 323 323 325
322 322 323 325 325 325 324 329 328 326 326 326 326 326 326 325 325 325 326 325 325 326 326 326 327 327 327 326 327 321 319 320 327 328 323 326 326 327 327 328 329 331 330 329 327 327 324 323 323
323 323 324 324 326 325 323 325 325 327 327 326 326 324 324 324 323 324 324 325 326 325 324 324 323 324 323 323 323 322 321 320 320 319 320 321 322 324 323 323 327 330 330 329 328 327 326 324 323
323 326 323 324 323 324 326 327 329 328 328 327 325 324 324 324 323 323 322 322 322 322 322 322 321 321 321 320 320 320 321 321 321 320 320 321 318 317 318 320 326 327 328 328 328 327 325 324 325
325 321 323 327 327 327 328 328 326 327 328 326 325 324 323 322 322 322 321 321 320 319 319 318 318 318 318 317 317 317 317 318 318 319 318 318 318 318 319 320 320 322 323 324 325 325 325 326 325

GFSSGP_850_thetae_132.txt.gz
Theta_e
321 324 325 327 331 335 337 337 337 341 341 339 338 341 347 347 352 355 350 349 351 331 330 337 341 343 342 340 339 342 344 344 339 340 342 337 329 324 323 325 325 326 329 329 325 321 323 325 324
321 322 325 327 333 337 338 337 338 340 337 336 338 342 351 350 347 354 350 349 354 328 332 337 341 340 337 335 338 342 344 344 341 341 342 337 329 325 324 325 331 330 329 323 320 320 323 326 325
321 322 325 330 333 336 337 338 339 339 336 335 339 350 352 343 352 354 348 349 351 333 333 337 338 336 334 333 337 342 344 344 343 342 341 335 328 325 325 325 328 326 322 321 320 322 324 325 325
322 324 326 330 334 335 335 336 338 338 336 335 339 350 347 340 352 353 348 353 350 348 333 336 337 335 333 331 334 341 343 344 343 342 338 331 325 323 324 324 322 321 323 322 322 322 323 324 324
322 324 330 333 334 335 335 338 339 338 336 334 337 351 349 351 351 348 349 351 351 351 334 336 337 334 331 330 332 337 340 341 340 338 334 327 323 321 323 323 322 323 323 322 322 322 322 321 321
322 324 329 332 334 335 335 337 338 336 336 334 335 348 352 350 348 348 349 349 350 352 335 336 335 333 331 330 330 332 333 335 335 333 330 324 321 321 323 323 322 323 323 322 321 320 320 320 320
322 326 329 332 333 335 336 335 336 336 336 335 335 343 353 350 349 348 347 349 351 353 333 334 334 332 331 330 330 330 330 331 332 331 326 322 321 322 323 322 323 323 322 321 321 320 320 319 319
322 325 328 331 333 334 335 335 334 335 335 330 335 349 354 351 350 348 348 349 351 353 335 334 334 332 332 330 329 329 330 330 331 330 322 321 321 322 322 322 323 323 322 321 321 321 320 320 320
322 324 327 329 332 333 334 333 333 333 330 329 334 352 353 352 351 349 348 349 350 352 348 338 334 332 331 331 329 329 328 327 327 325 321 321 321 322 323 323 323 323 322 322 322 321 321 320 320
322 325 326 328 329 331 333 331 330 331 330 329 330 345 354 347 343 350 349 348 349 351 350 348 344 334 337 336 331 331 329 325 322 322 321 321 322 323 325 325 326 323 322 322 322 322 321 321 320
323 323 326 328 325 330 331 327 329 328 330 330 333 338 344 352 349 349 349 348 349 349 349 348 346 342 345 345 339 332 333 331 326 322 322 322 323 337 340 339 338 332 325 322 322 322 323 322 323
324 324 324 327 324 324 325 325 328 329 328 328 327 328 334 345 346 347 347 347 348 348 348 349 347 347 346 345 346 343 341 342 338 333 329 324 329 337 339 340 338 339 340 328 333 326 338 338 337
324 325 325 326 326 326 326 326 328 328 328 328 327 326 326 331 343 346 346 346 346 347 348 350 349 348 346 347 346 348 346 346 347 347 346 341 333 339 340 341 339 340 341 342 341 340 339 339 339
324 325 326 327 328 328 328 329 329 328 328 326 328 327 326 327 335 344 345 346 346 348 351 350 351 347 340 346 349 348 349 347 347 348 348 349 345 346 344 346 344 343 345 344 343 344 344 344 346
323 325 328 330 331 330 330 330 330 329 328 326 327 326 327 327 329 342 344 345 347 345 346 350 352 354 351 343 347 350 349 349 350 349 349 349 349 345 349 349 349 346 346 347 346 346 347 348 347
323 328 331 330 330 330 330 333 330 329 328 328 327 327 326 327 327 328 337 342 341 340 345 353 353 353 350 348 349 346 350 353 351 351 350 350 350 349 348 349 348 347 346 347 348 345 346 347 347
323 329 333 333 329 330 330 331 329 329 330 329 327 325 326 328 326 326 327 330 334 333 332 339 343 347 345 345 339 350 351 353 354 353 351 351 350 350 348 348 343 349 349 350 350 346 347 346 349
323 329 331 334 330 330 328 328 329 331 330 327 326 324 327 327 327 325 326 326 326 325 325 326 338 338 348 345 345 346 353 352 354 351 351 350 350 350 346 344 346 346 347 345 346 343 343 344 346
326 327 329 330 326 325 325 327 328 330 328 326 326 324 325 326 327 326 326 325 325 327 328 330 327 337 339 345 348 346 342 351 350 350 349 351 347 351 348 348 341 344 346 346 350 348 347 343 337
322 325 324 324 327 322 322 322 322 323 324 328 325 324 324 326 327 327 328 329 329 327 326 327 328 328 337 338 338 345 346 344 347 347 349 347 351 334 346 346 336 346 346 342 343 341 339 340 343
320 320 322 321 321 321 321 322 322 321 321 327 326 324 324 327 326 328 330 332 332 332 330 333 334 330 328 342 342 343 343 347 346 348 349 350 349 348 348 347 347 349 347 346 344 340 337 338 339
319 320 320 321 322 321 321 322 324 323 322 326 326 324 325 326 327 329 331 334 335 335 333 333 331 339 330 333 340 347 346 343 346 344 349 349 347 345 349 348 350 346 346 346 342 343 345 342 333
319 320 320 321 321 321 322 321 321 324 322 322 324 323 324 326 327 330 332 334 336 340 341 340 339 343 342 343 343 345 346 348 347 346 348 351 349 349 347 348 347 344 343 347 343 339 338 334 335
320 321 321 321 322 323 322 321 321 323 324 324 323 326 327 327 329 329 331 333 336 340 342 343 343 341 342 345 346 344 347 350 348 346 349 348 347 348 348 346 347 345 349 344 335 336 335 333 328
320 323 323 321 321 321 322 322 324 325 325 323 324 326 325 325 326 327 328 330 332 333 334 336 337 339 341 343 343 342 343 344 345 346 344 343 344 344 344 344 340 340 339 334 331 332 327 322 321
320 322 322 323 323 321 322 323 324 325 324 324 326 326 325 325 325 326 326 326 327 328 328 328 329 329 330 330 333 338 336 333 336 338 336 335 335 332 334 335 335 332 332 332 329 325 324 320 319
321 321 322 324 324 326 324 327 327 326 328 328 327 327 326 326 327 326 325 326 326 327 327 328 327 327 327 325 326 320 320 325 327 329 330 330 328 327 330 332 333 332 329 328 328 328 326 325 325
321 321 321 323 329 331 327 329 328 328 327 328 328 327 326 326 325 325 325 327 327 326 325 325 324 325 324 323 322 323 321 320 320 320 320 320 320 321 320 322 325 328 330 330 330 330 329 328 327
322 324 325 325 325 330 332 332 329 329 328 328 328 326 325 324 324 324 323 324 323 324 324 323 323 322 322 321 320 320 320 319 320 320 319 319 318 318 317 317 317 317 317 320 326 328 329 327 327
322 322 327 330 327 327 332 333 330 329 328 327 325 325 325 324 324 323 323 323 322 322 321 320 320 319 319 319 318 318 318 318 318 318 317 316 315 315 315 316 317 318 319 321 323 324 325 327 326